[[{"header":{"parameterUnit":"m.s-1","parameterCategory":1,"la1":31.0,"la2":29.5877,"lo1":-88.7671,"lo2":-86.6584,"dy":0.0162,"dx":0.0185,"nx":115,"ny":88,"refTime":"2024-09-19T12:00:00:Z","depth":0,"parameterNumber":2,"parameterNumberName":"U-component_of_WINDS"},"data":[0.0,0.0,0.0,0.0,0.0,0.0,0.0,0.0,0.0,0.0,0.0,0.0,0.0,0.0,0.0,0.0,0.0,0.0,0.0,0.0,0.0,0.0,0.0,0.0,0.0,0.0,0.0,0.0,0.0,0.0,0.0,0.0,0.0,0.0,0.0,0.0,0.0,0.0,0.0,0.0,0.0,0.0,0.0,0.0,0.0,0.0,0.0,0.0,0.0,0.0,0.0,0.0,0.0,0.0,0.0,0.0,0.0,0.0,0.0,0.0,0.0,0.0,0.0,0.0,0.0,0.0,0.0,0.0,0.0,0.0,0.0,0.0,0.0,0.0,0.0,0.0,0.0,0.0,0.0,0.0,0.0,0.0,0.0,0.0,0.0,0.0,0.0,0.0,0.0,0.0,0.0,0.0,0.0,0.0,0.0,0.0,0.0,0.0,0.0,0.0,0.0,0.0,0.0,0.0,0.0,0.0,0.0,0.0,0.0,0.0,0.0,0.0,0.0,0.0,0.0,0.0,0.0,0.0,0.0,0.0,0.0,0.0,0.0,0.0,0.0,0.0,0.0,0.0,0.0,0.0,0.0,0.0,0.0,0.0,0.0,0.0,0.0,0.0,0.0,0.0,0.0,0.0,0.0,0.0,0.0,0.0,0.0,0.0,0.0,0.0,0.0,0.0,0.0,0.0,0.0,0.0,0.0,0.0,0.0,0.0,0.0,0.0,0.0,0.0,0.0,0.0,0.0,0.0,0.0,0.0,0.0,0.0,0.0,0.0,0.0,0.0,0.0,0.0,0.0,0.0,0.0,0.0,0.0,0.0,0.0,0.0,0.0,0.0,0.0,0.0,0.0,0.0,0.0,0.0,0.0,0.0,0.0,0.0,0.0,0.0,0.0,0.0,0.0,0.0,0.0,0.0,0.0,0.0,0.0,0.0,0.0,0.0,0.0,0.0,0.0,0.0,0.0,0.0,0.0,0.0,0.0,0.0,0.0,0.0,0.0,0.0,0.0,0.0,0.0,0.0,0.0,0.0,0.0,0.0,0.0,0.0,0.0,0.0,0.0,0.0,0.0,0.0,0.0,0.0,0.0,0.0,0.0,0.0,0.0,0.0,0.0,0.0,0.0,0.0,0.0,0.0,0.0,0.0,0.0,0.0,0.0,0.0,0.0,0.0,0.0,0.0,0.0,0.0,0.0,0.0,0.0,0.0,0.0,0.0,0.0,0.0,0.0,0.0,0.0,0.0,0.0,0.0,0.0,0.0,0.0,0.0,0.0,0.0,0.0,0.0,0.0,0.0,0.0,0.0,0.0,0.0,0.0,0.0,0.0,0.0,0.0,0.0,0.0,0.0,0.0,0.0,0.0,0.0,0.0,0.0,0.0,0.0,0.0,0.0,0.0,0.0,0.0,0.0,0.0,0.0,0.0,0.0,0.0,0.0,0.0,0.0,0.0,0.0,0.0,0.0,0.0,0.0,0.0,0.0,0.0,0.0,0.0,0.0,0.0,0.0,0.0,0.0,0.0,0.0,0.0,0.0,0.0,0.0,0.0,0.0,0.0,0.0,0.0,0.0,0.0,0.0,0.0,0.0,0.0,0.0,0.0,0.0,0.0,0.0,0.0,0.0,0.0,0.0,0.0,0.0,0.0,0.0,0.0,0.0,0.0,0.0,0.0,0.0,0.0,0.0,0.0,0.0,0.0,0.0,0.0,0.0,0.0,0.0,0.0,0.0,0.0,0.0,0.0,0.0,0.0,0.0,0.0,0.0,0.0,0.0,0.0,0.0,0.0,0.0,0.0,0.0,0.0,0.0,0.0,0.0,0.0,0.0,0.0,0.0,0.0,0.0,0.0,0.0,0.0,0.0,0.0,0.0,0.0,0.0,0.0,0.0,0.0,0.0,0.0,0.0,0.0,0.0,0.0,0.0,0.0,0.0,0.0,0.0,0.0,0.0,0.0,0.0,0.0,0.0,0.0,0.0,0.0,0.0,0.0,0.0,0.0,0.0,0.0,0.0,0.0,0.0,0.0,0.0,0.0,0.0,0.0,0.0,0.0,0.0,0.0,0.0,0.0,0.0,0.0,0.0,0.0,0.0,0.0,0.0,0.0,0.0,0.0,0.0,0.0,0.0,0.0,0.0,0.0,0.0,0.0,0.0,0.0,0.0,0.0,0.0,0.0,0.0,0.0,0.0,0.0,0.0,0.0,0.0,0.0,0.0,0.0,0.0,0.0,0.0,0.0,0.0,0.0,0.0,0.0,0.0,0.0,0.0,0.0,0.0,0.0,0.0,0.0,0.0,0.0,0.0,0.0,0.0,0.0,0.0,0.0,0.0,0.0,0.0,0.0,0.0,0.0,0.0,0.0,0.0,0.0,0.0,0.0,0.0,0.0,0.0,0.0,0.0,0.0,0.0,0.0,0.0,0.0,0.0,0.0,0.0,0.0,0.0,0.0,0.0,0.0,0.0,0.0,0.0,0.0,0.0,0.0,0.0,0.0,0.0,0.0,0.0,0.0,0.0,0.0,0.0,0.0,0.0,0.0,0.0,0.0,0.0,0.0,0.0,0.0,0.0,0.0,0.0,0.0,0.0,0.0,0.0,0.0,0.0,0.0,0.0,0.0,0.0,0.0,0.0,0.0,0.0,0.0,0.0,0.0,0.0,0.0,0.0,0.0,0.0,0.0,0.0,0.0,0.0,0.0,0.0,0.0,0.0,0.0,0.0,0.0,0.0,0.0,0.0,0.0,0.0,0.0,0.0,0.0,0.0,0.0,0.0,0.0,0.0,0.0,0.0,0.0,0.0,0.0,0.0,0.0,0.0,0.0,0.0,0.0,0.0,0.0,0.0,0.0,0.0,0.0,0.0,0.0,0.0,0.0,0.0,0.0,0.0,0.0,0.0,0.0,0.0,0.0,0.0,0.0,0.0,0.0,0.0,0.0,0.0,0.0,0.0,0.0,0.0,0.0,0.0,0.0,0.0,0.0,0.0,0.0,0.0,0.0,0.0,0.0,0.0,0.0,0.0,0.0,0.0,0.0,0.0,0.0,0.0,0.0,0.0,0.0,0.0,0.0,0.0,0.0,0.0,0.0,0.0,0.0,0.0,0.0,0.0,0.0,0.0,0.0,0.0,0.0,0.0,0.0,0.0,0.0,0.0,0.0,0.0,0.0,0.0,0.0,0.0,0.0,0.0,0.0,0.0,0.0,0.0,0.0,0.0,0.0,0.0,0.0,0.0,0.0,0.0,0.0,0.0,0.0,0.0,0.0,0.0,0.0,0.0,0.0,0.0,0.0,0.0,0.0,0.0,0.0,0.0,0.0,0.0,0.0,0.0,0.0,0.0,0.0,0.0,0.0,0.0,0.0,0.0,0.0,0.0,0.0,0.0,0.0,0.0,0.0,0.0,0.0,0.0,0.0,0.0,0.0,0.0,0.0,0.0,0.0,0.0,0.0,0.0,0.0,0.0,0.0,0.0,0.0,0.0,0.0,0.0,0.0,0.0,0.0,0.0,0.0,0.0,0.0,0.0,0.0,0.0,0.0,0.0,0.0,0.0,0.0,0.0,0.0,0.0,0.0,0.0,0.0,0.0,0.0,0.0,0.0,0.0,0.0,0.0,0.0,0.0,0.0,0.0,0.0,0.0,0.0,0.0,0.0,0.0,0.0,0.0,0.0,0.0,0.0,0.0,0.0,0.0,0.0,0.0,0.0,0.0,0.0,0.0,0.0,0.0,0.0,0.0,0.0,0.0,0.0,0.0,0.0,0.0,0.0,0.0,0.0,0.0,0.0,0.0,0.0,0.0,0.0,0.0,0.0,0.0,0.0,0.0,0.0,0.0,0.0,0.0,0.0,0.0,0.0,0.0,0.0,0.0,0.0,0.0,0.0,0.0,0.0,0.0,0.0,0.0,0.0,0.0,0.0,0.0,0.0,0.0,0.0,0.0,0.0,0.0,0.0,0.0,0.0,0.0,0.0,0.0,0.0,0.0,0.0,0.0,0.0,0.0,0.0,0.0,0.0,0.0,0.0,0.0,0.0,0.0,0.0,0.0,0.0,0.0,0.0,0.0,0.0,0.0,0.0,0.0,0.0,0.0,0.0,0.0,0.0,0.0,0.0,0.0,0.0,0.0,0.0,0.0,0.0,0.0,0.0,0.0,0.0,0.0,0.0,0.0,0.0,0.0,0.0,0.0,0.0,0.0,0.0,0.0,0.0,0.0,0.0,0.0,0.0,0.0,0.0,0.0,0.0,0.0,0.0,0.0,0.0,0.0,0.0,0.0,2.45,0.0,0.0,0.0,0.0,0.0,0.0,0.0,0.0,0.0,0.0,0.0,0.0,0.0,0.0,0.0,0.0,0.0,0.0,0.0,0.0,0.0,0.0,0.0,0.0,0.0,0.0,0.0,0.0,0.0,0.0,0.0,0.0,0.0,0.0,0.0,0.0,0.0,0.0,0.0,0.0,0.0,0.0,0.0,0.0,0.0,0.0,0.0,0.0,0.0,0.0,0.0,0.0,0.0,0.0,0.0,0.0,0.0,0.0,0.0,0.0,0.0,0.0,0.0,0.0,0.0,0.0,0.0,0.0,0.0,0.0,0.0,0.0,0.0,0.0,0.0,0.0,0.0,0.0,0.0,0.0,0.0,0.0,0.0,0.0,0.0,0.0,0.0,0.0,0.0,0.0,0.0,0.0,0.0,0.0,0.0,0.0,0.0,0.0,0.0,0.0,0.0,0.0,0.0,0.0,0.0,0.0,0.0,0.0,0.0,0.0,2.4095,2.4114,2.4266,2.4357,2.4284,0.0,0.0,0.0,0.0,0.0,0.0,0.0,0.0,0.0,0.0,0.0,0.0,0.0,0.0,0.0,0.0,0.0,0.0,0.0,0.0,0.0,0.0,0.0,0.0,0.0,0.0,0.0,0.0,0.0,0.0,0.0,0.0,0.0,0.0,0.0,0.0,0.0,0.0,0.0,0.0,0.0,0.0,0.0,0.0,0.0,0.0,0.0,0.0,0.0,0.0,0.0,0.0,0.0,0.0,0.0,0.0,0.0,0.0,0.0,0.0,0.0,0.0,0.0,0.0,0.0,0.0,0.0,0.0,0.0,0.0,0.0,0.0,0.0,0.0,0.0,0.0,0.0,0.0,0.0,0.0,0.0,0.0,0.0,0.0,0.0,0.0,0.0,0.0,0.0,0.0,0.0,0.0,0.0,0.0,0.0,0.0,0.0,0.0,0.0,0.0,0.0,0.0,0.0,0.0,0.0,0.0,0.0,0.0,0.0,0.0,0.0,0.0,2.4096,2.408,2.3895,0.0,0.0,0.0,0.0,0.0,0.0,0.0,0.0,0.0,0.0,0.0,0.0,0.0,0.0,0.0,0.0,0.0,0.0,0.0,0.0,0.0,0.0,0.0,0.0,0.0,0.0,0.0,0.0,0.0,0.0,0.0,0.0,0.0,0.0,0.0,0.0,0.0,0.0,0.0,0.0,0.0,0.0,0.0,0.0,0.0,0.0,0.0,0.0,0.0,0.0,0.0,0.0,0.0,0.0,0.0,0.0,0.0,0.0,0.0,0.0,0.0,0.0,0.0,0.0,0.0,0.0,0.0,0.0,0.0,0.0,0.0,0.0,0.0,0.0,0.0,0.0,0.0,0.0,0.0,0.0,0.0,0.0,0.0,0.0,0.0,0.0,0.0,0.0,0.0,0.0,0.0,0.0,0.0,0.0,0.0,0.0,0.0,0.0,0.0,0.0,0.0,0.0,0.0,0.0,0.0,0.0,0.0,0.0,0.0,0.0,2.3978,2.3978,2.4056,0.0,2.3252,0.0,0.0,0.0,0.0,0.0,0.0,0.0,0.0,0.0,0.0,0.0,0.0,0.0,0.0,0.0,0.0,0.0,0.0,0.0,0.0,0.0,0.0,0.0,0.0,0.0,0.0,0.0,0.0,0.0,0.0,0.0,0.0,0.0,0.0,0.0,0.0,0.0,0.0,0.0,0.0,0.0,0.0,0.0,0.0,0.0,0.0,0.0,0.0,0.0,0.0,0.0,0.0,0.0,0.0,0.0,0.0,0.0,0.0,0.0,0.0,0.0,0.0,0.0,0.0,0.0,0.0,0.0,0.0,0.0,0.0,0.0,0.0,0.0,0.0,0.0,0.0,0.0,0.0,0.0,0.0,0.0,0.0,0.0,0.0,0.0,0.0,0.0,0.0,0.0,0.0,0.0,0.0,0.0,0.0,0.0,0.0,0.0,0.0,0.0,0.0,0.0,0.0,0.0,0.0,0.0,0.0,0.0,0.0,0.0,0.0,0.0,2.3896,2.3894,2.3613,0.0,0.0,0.0,0.0,0.0,0.0,0.0,0.0,0.0,0.0,0.0,0.0,0.0,0.0,0.0,0.0,0.0,0.0,0.0,0.0,0.0,0.0,0.0,0.0,0.0,0.0,0.0,0.0,0.0,0.0,0.0,0.0,0.0,0.0,0.0,0.0,0.0,0.0,0.0,0.0,0.0,0.0,0.0,0.0,0.0,0.0,0.0,0.0,0.0,0.0,0.0,0.0,0.0,0.0,0.0,0.0,0.0,0.0,0.0,0.0,0.0,0.0,0.0,0.0,0.0,0.0,0.0,0.0,0.0,0.0,0.0,0.0,0.0,0.0,0.0,0.0,0.0,0.0,0.0,0.0,0.0,0.0,0.0,0.0,0.0,0.0,0.0,0.0,0.0,0.0,0.0,0.0,0.0,0.0,0.0,0.0,0.0,0.0,0.0,0.0,0.0,0.0,0.0,0.0,0.0,0.0,0.0,0.0,0.0,0.0,2.3792,0.0,2.3732,2.3527,2.3125,2.2557,0.0,0.0,0.0,0.0,0.0,0.0,0.0,0.0,0.0,0.0,0.0,0.0,0.0,0.0,0.0,0.0,0.0,0.0,0.0,0.0,0.0,0.0,0.0,0.0,0.0,0.0,0.0,0.0,0.0,0.0,0.0,0.0,0.0,0.0,0.0,0.0,0.0,0.0,0.0,0.0,0.0,0.0,0.0,0.0,0.0,0.0,0.0,0.0,0.0,0.0,0.0,0.0,0.0,0.0,0.0,0.0,0.0,0.0,0.0,0.0,0.0,0.0,0.0,0.0,0.0,0.0,0.0,0.0,0.0,0.0,0.0,0.0,0.0,0.0,0.0,0.0,0.0,0.0,0.0,0.0,0.0,0.0,0.0,0.0,0.0,0.0,0.0,0.0,0.0,0.0,0.0,0.0,0.0,0.0,0.0,0.0,0.0,0.0,0.0,0.0,0.0,0.0,0.0,0.0,0.0,0.0,0.0,0.0,0.0,2.3795,2.3728,2.3589,2.2873,2.2211,0.0,0.0,0.0,0.0,0.0,0.0,0.0,0.0,0.0,0.0,0.0,0.0,0.0,0.0,0.0,0.0,0.0,0.0,0.0,0.0,0.0,0.0,0.0,0.0,0.0,0.0,0.0,0.0,0.0,0.0,0.0,0.0,0.0,0.0,0.0,0.0,0.0,0.0,0.0,0.0,0.0,0.0,0.0,0.0,0.0,0.0,0.0,0.0,0.0,0.0,0.0,0.0,0.0,0.0,0.0,0.0,0.0,0.0,0.0,0.0,0.0,0.0,0.0,0.0,0.0,0.0,0.0,0.0,0.0,0.0,0.0,0.0,0.0,0.0,0.0,0.0,0.0,0.0,0.0,0.0,0.0,0.0,0.0,0.0,0.0,0.0,0.0,0.0,0.0,0.0,0.0,0.0,0.0,0.0,0.0,0.0,0.0,0.0,0.0,0.0,0.0,0.0,0.0,0.0,0.0,0.0,0.0,0.0,0.0,2.3795,2.3795,2.375,2.3638,2.2908,2.2238,0.0,0.0,0.0,0.0,0.0,0.0,0.0,0.0,0.0,0.0,0.0,0.0,0.0,0.0,0.0,0.0,0.0,0.0,0.0,0.0,0.0,0.0,0.0,0.0,0.0,0.0,0.0,0.0,0.0,0.0,0.0,0.0,0.0,0.0,0.0,0.0,0.0,0.0,0.0,0.0,0.0,0.0,0.0,0.0,0.0,0.0,0.0,0.0,0.0,0.0,0.0,0.0,0.0,0.0,0.0,0.0,0.0,0.0,0.0,0.0,0.0,0.0,0.0,0.0,0.0,0.0,0.0,0.0,0.0,0.0,0.0,0.0,0.0,0.0,0.0,0.0,0.0,0.0,0.0,0.0,0.0,0.0,0.0,0.0,0.0,0.0,0.0,0.0,0.0,0.0,0.0,0.0,0.0,0.0,0.0,0.0,0.0,0.0,0.0,0.0,0.0,0.0,0.0,0.0,0.0,0.0,0.0,0.0,0.0,2.3813,0.0,2.3753,0.0,2.2759,2.2081,0.0,0.0,0.0,0.0,0.0,0.0,0.0,0.0,0.0,0.0,0.0,0.0,0.0,0.0,0.0,0.0,0.0,0.0,0.0,0.0,0.0,0.0,0.0,0.0,0.0,0.0,0.0,0.0,0.0,0.0,0.0,0.0,0.0,0.0,0.0,0.0,0.0,0.0,0.0,0.0,0.0,0.0,0.0,0.0,0.0,0.0,0.0,0.0,0.0,0.0,0.0,0.0,0.0,0.0,0.0,0.0,0.0,0.0,0.0,0.0,0.0,0.0,0.0,0.0,0.0,0.0,0.0,0.0,0.0,0.0,0.0,0.0,0.0,0.0,0.0,0.0,0.0,0.0,0.0,0.0,0.0,0.0,0.0,0.0,0.0,0.0,0.0,0.0,0.0,0.0,0.0,0.0,0.0,0.0,0.0,0.0,0.0,0.0,0.0,0.0,0.0,0.0,0.0,0.0,0.0,0.0,0.0,0.0,2.3807,2.3795,2.3756,2.3735,2.3678,2.2331,2.1624,0.0,0.0,0.0,0.0,0.0,0.0,0.0,0.0,0.0,0.0,0.0,0.0,0.0,0.0,0.0,0.0,0.0,0.0,0.0,0.0,0.0,0.0,0.0,0.0,0.0,0.0,0.0,0.0,0.0,0.0,0.0,0.0,0.0,0.0,0.0,0.0,0.0,0.0,0.0,0.0,0.0,0.0,0.0,0.0,0.0,0.0,0.0,0.0,0.0,0.0,0.0,0.0,0.0,0.0,0.0,0.0,0.0,0.0,0.0,0.0,0.0,0.0,0.0,0.0,0.0,0.0,0.0,0.0,0.0,0.0,0.0,0.0,0.0,0.0,0.0,0.0,0.0,0.0,0.0,0.0,0.0,0.0,0.0,0.0,0.0,0.0,0.0,0.0,0.0,0.0,0.0,0.0,0.0,0.0,0.0,0.0,0.0,0.0,0.0,0.0,0.0,0.0,0.0,0.0,0.0,0.0,0.0,0.0,0.0,2.3937,2.4004,2.41,2.4137,2.2747,2.2037,0.0,0.0,0.0,0.0,0.0,0.0,0.0,0.0,0.0,0.0,0.0,0.0,0.0,0.0,0.0,0.0,0.0,0.0,0.0,0.0,0.0,0.0,0.0,0.0,0.0,0.0,0.0,0.0,0.0,0.0,0.0,0.0,0.0,0.0,0.0,0.0,0.0,0.0,0.0,0.0,0.0,0.0,0.0,0.0,0.0,0.0,0.0,0.0,0.0,0.0,0.0,0.0,0.0,0.0,0.0,0.0,0.0,0.0,0.0,0.0,0.0,0.0,0.0,0.0,0.0,0.0,0.0,0.0,0.0,0.0,0.0,0.0,0.0,0.0,0.0,0.0,0.0,0.0,0.0,0.0,0.0,0.0,0.0,0.0,0.0,0.0,0.0,0.0,0.0,0.0,0.0,0.0,0.0,0.0,0.0,0.0,0.0,0.0,0.0,0.0,0.0,0.0,0.0,0.0,0.0,0.0,0.0,0.0,0.0,2.3842,2.4006,2.4226,2.4532,2.2992,2.2238,2.235,0.0,0.0,0.0,0.0,0.0,0.0,0.0,0.0,0.0,0.0,0.0,0.0,0.0,0.0,0.0,0.0,0.0,0.0,0.0,0.0,0.0,0.0,0.0,0.0,0.0,0.0,0.0,0.0,0.0,0.0,0.0,0.0,0.0,0.0,0.0,0.0,0.0,0.0,0.0,0.0,0.0,0.0,0.0,0.0,0.0,0.0,0.0,0.0,0.0,0.0,0.0,0.0,0.0,0.0,0.0,0.0,0.0,0.0,0.0,0.0,0.0,0.0,0.0,0.0,0.0,0.0,0.0,0.0,0.0,0.0,0.0,0.0,0.0,0.0,0.0,0.0,0.0,0.0,0.0,0.0,0.0,0.0,0.0,0.0,0.0,0.0,0.0,0.0,0.0,0.0,0.0,0.0,0.0,0.0,0.0,0.0,0.0,0.0,0.0,0.0,0.0,0.0,0.0,0.0,0.0,0.0,0.0,0.0,2.3506,2.37,2.4099,2.4733,2.3079,2.2305,0.0,0.0,0.0,0.0,0.0,0.0,0.0,0.0,0.0,0.0,0.0,0.0,0.0,0.0,0.0,0.0,0.0,0.0,0.0,0.0,0.0,0.0,0.0,0.0,0.0,0.0,0.0,0.0,0.0,0.0,0.0,0.0,0.0,0.0,0.0,0.0,0.0,0.0,0.0,0.0,0.0,0.0,0.0,0.0,0.0,0.0,0.0,0.0,0.0,0.0,0.0,0.0,0.0,0.0,0.0,0.0,0.0,0.0,0.0,0.0,0.0,0.0,0.0,0.0,0.0,0.0,0.0,0.0,0.0,0.0,0.0,0.0,0.0,0.0,0.0,0.0,0.0,0.0,0.0,0.0,0.0,0.0,0.0,0.0,0.0,0.0,0.0,0.0,0.0,0.0,0.0,0.0,0.0,0.0,0.0,0.0,0.0,0.0,0.0,0.0,0.0,0.0,0.0,0.0,0.0,0.0,0.0,0.0,0.0,2.2542,2.25,2.3173,2.4487,2.3538,2.2749,0.0,0.0,0.0,0.0,0.0,0.0,0.0,0.0,0.0,0.0,0.0,0.0,0.0,0.0,0.0,0.0,0.0,0.0,0.0,0.0,0.0,0.0,0.0,0.0,0.0,0.0,0.0,0.0,0.0,0.0,0.0,0.0,0.0,0.0,0.0,0.0,0.0,0.0,0.0,0.0,0.0,0.0,0.0,0.0,0.0,0.0,0.0,0.0,0.0,0.0,0.0,0.0,0.0,0.0,0.0,0.0,0.0,0.0,0.0,0.0,0.0,0.0,0.0,0.0,0.0,0.0,0.0,0.0,0.0,0.0,0.0,0.0,0.0,0.0,0.0,0.0,0.0,0.0,0.0,0.0,0.0,0.0,0.0,0.0,0.0,0.0,0.0,0.0,0.0,0.0,0.0,0.0,0.0,0.0,0.0,0.0,0.0,0.0,0.0,0.0,0.0,0.0,0.0,0.0,0.0,0.0,0.0,0.0,2.1522,2.2073,2.1707,2.2045,2.3199,2.2513,2.2123,0.0,0.0,0.0,0.0,0.0,0.0,0.0,0.0,0.0,0.0,0.0,0.0,0.0,0.0,0.0,0.0,0.0,0.0,0.0,0.0,0.0,0.0,0.0,0.0,0.0,0.0,0.0,0.0,0.0,0.0,0.0,0.0,0.0,0.0,0.0,0.0,0.0,0.0,0.0,0.0,0.0,0.0,0.0,0.0,0.0,0.0,0.0,0.0,0.0,0.0,0.0,0.0,0.0,0.0,0.0,0.0,0.0,0.0,0.0,0.0,0.0,0.0,0.0,0.0,0.0,0.0,0.0,0.0,0.0,0.0,0.0,0.0,0.0,0.0,0.0,0.0,0.0,0.0,0.0,0.0,0.0,0.0,0.0,0.0,0.0,0.0,0.0,0.0,0.0,0.0,0.0,0.0,0.0,0.0,0.0,0.0,0.0,0.0,0.0,0.0,0.0,0.0,0.0,0.0,0.0,0.0,0.0,0.0,2.056,2.1498,2.0901,2.0795,2.1185,2.0819,2.1001,0.0,0.0,0.0,0.0,0.0,0.0,0.0,0.0,0.0,0.0,0.0,0.0,0.0,0.0,0.0,0.0,0.0,0.0,0.0,0.0,0.0,0.0,0.0,0.0,0.0,0.0,0.0,0.0,0.0,0.0,0.0,0.0,0.0,0.0,0.0,0.0,0.0,0.0,0.0,0.0,0.0,0.0,0.0,0.0,0.0,0.0,0.0,0.0,0.0,0.0,0.0,0.0,0.0,0.0,0.0,0.0,0.0,0.0,0.0,0.0,0.0,0.0,0.0,0.0,0.0,0.0,0.0,0.0,0.0,0.0,0.0,0.0,0.0,0.0,0.0,0.0,0.0,0.0,0.0,0.0,0.0,0.0,0.0,0.0,0.0,0.0,0.0,0.0,0.0,0.0,0.0,0.0,0.0,0.0,0.0,0.0,0.0,0.0,0.0,0.0,0.0,0.0,0.0,0.0,0.0,0.0,0.0,0.0,1.9712,1.9176,1.9143,1.9236,1.9456,2.059,2.1022,0.0,0.0,0.0,0.0,0.0,0.0,0.0,0.0,0.0,0.0,0.0,0.0,0.0,0.0,0.0,0.0,0.0,0.0,0.0,0.0,0.0,0.0,0.0,0.0,0.0,0.0,0.0,0.0,0.0,0.0,0.0,0.0,0.0,0.0,0.0,0.0,0.0,0.0,0.0,0.0,0.0,0.0,0.0,0.0,0.0,0.0,0.0,0.0,2.4192,0.0,0.0,0.0,0.0,0.0,0.0,0.0,0.0,0.0,0.0,0.0,0.0,0.0,0.0,0.0,0.0,0.0,0.0,0.0,0.0,0.0,0.0,0.0,0.0,0.0,0.0,0.0,0.0,0.0,0.0,0.0,0.0,0.0,0.0,0.0,0.0,0.0,0.0,0.0,0.0,0.0,0.0,0.0,0.0,0.0,0.0,0.0,0.0,0.0,0.0,0.0,0.0,0.0,0.0,0.0,0.0,0.0,0.0,0.0,1.9219,1.8535,1.8531,1.8526,1.8465,1.9199,1.9776,0.0,0.0,0.0,0.0,0.0,0.0,0.0,0.0,0.0,0.0,0.0,0.0,0.0,0.0,0.0,0.0,0.0,0.0,0.0,0.0,0.0,0.0,0.0,0.0,0.0,0.0,0.0,0.0,0.0,0.0,0.0,0.0,0.0,0.0,0.0,0.0,0.0,0.0,0.0,0.0,0.0,0.0,0.0,0.0,0.0,0.0,0.0,0.0,0.0,0.0,0.0,0.0,0.0,0.0,0.0,0.0,0.0,0.0,0.0,0.0,0.0,0.0,0.0,0.0,0.0,0.0,0.0,0.0,0.0,0.0,0.0,0.0,0.0,0.0,0.0,0.0,0.0,0.0,0.0,0.0,0.0,0.0,0.0,0.0,0.0,0.0,0.0,0.0,0.0,0.0,0.0,0.0,0.0,0.0,0.0,0.0,0.0,0.0,0.0,0.0,0.0,0.0,0.0,0.0,0.0,0.0,0.0,1.8623,1.8923,1.8361,1.8289,1.803,1.7541,1.7304,1.7932,1.9431,0.0,0.0,0.0,0.0,0.0,0.0,0.0,0.0,0.0,0.0,0.0,0.0,0.0,0.0,0.0,0.0,0.0,0.0,0.0,0.0,0.0,0.0,0.0,0.0,0.0,0.0,0.0,0.0,0.0,0.0,0.0,0.0,0.0,0.0,0.0,0.0,0.0,0.0,2.3102,2.3218,0.0,0.0,0.0,0.0,0.0,0.0,0.0,0.0,2.451,0.0,0.0,0.0,0.0,0.0,0.0,0.0,0.0,0.0,0.0,0.0,0.0,0.0,0.0,0.0,0.0,0.0,0.0,0.0,0.0,0.0,0.0,0.0,0.0,0.0,0.0,0.0,0.0,0.0,0.0,0.0,0.0,0.0,0.0,0.0,0.0,0.0,0.0,0.0,0.0,0.0,0.0,0.0,0.0,0.0,0.0,0.0,0.0,0.0,0.0,0.0,0.0,0.0,0.0,0.0,0.0,1.7808,1.9107,1.8933,1.7244,1.7478,1.7048,1.5872,1.5615,1.5956,1.691,0.0,0.0,0.0,0.0,0.0,0.0,0.0,0.0,0.0,0.0,0.0,0.0,0.0,0.0,0.0,0.0,0.0,0.0,0.0,0.0,0.0,0.0,0.0,0.0,0.0,0.0,0.0,0.0,0.0,0.0,0.0,0.0,0.0,0.0,0.0,0.0,0.0,0.0,0.0,2.323,2.357,0.0,0.0,0.0,0.0,0.0,0.0,0.0,0.0,2.467,0.0,0.0,0.0,0.0,0.0,0.0,0.0,0.0,0.0,0.0,0.0,0.0,0.0,0.0,0.0,0.0,0.0,0.0,0.0,0.0,0.0,0.0,0.0,0.0,0.0,0.0,0.0,0.0,0.0,0.0,0.0,0.0,0.0,0.0,0.0,0.0,0.0,0.0,0.0,0.0,0.0,0.0,0.0,0.0,0.0,0.0,0.0,0.0,0.0,0.0,0.0,0.0,0.0,0.0,0.0,1.8097,1.952,1.917,1.7008,1.7305,1.6881,1.5623,1.5264,1.5478,0.0,0.0,0.0,0.0,0.0,0.0,0.0,0.0,0.0,0.0,0.0,0.0,0.0,0.0,0.0,0.0,0.0,0.0,0.0,0.0,0.0,0.0,0.0,0.0,0.0,0.0,0.0,0.0,0.0,0.0,0.0,0.0,0.0,0.0,0.0,0.0,0.0,0.0,0.0,0.0,2.3064,2.3545,2.4062,0.0,0.0,0.0,0.0,0.0,0.0,2.496,2.4936,0.0,0.0,0.0,0.0,0.0,0.0,0.0,0.0,0.0,0.0,0.0,0.0,0.0,0.0,0.0,0.0,0.0,0.0,0.0,0.0,0.0,0.0,0.0,0.0,0.0,0.0,0.0,0.0,0.0,0.0,0.0,0.0,0.0,0.0,0.0,0.0,0.0,0.0,0.0,0.0,0.0,0.0,0.0,0.0,0.0,0.0,0.0,0.0,0.0,0.0,0.0,0.0,0.0,0.0,0.0,1.8392,1.9889,1.9451,1.7138,1.7321,1.6843,1.5521,1.5117,1.5183,0.0,0.0,0.0,0.0,0.0,0.0,0.0,0.0,0.0,0.0,0.0,0.0,0.0,0.0,0.0,0.0,0.0,0.0,0.0,0.0,0.0,0.0,0.0,0.0,0.0,0.0,0.0,0.0,0.0,0.0,0.0,0.0,0.0,0.0,0.0,0.0,0.0,0.0,0.0,0.0,0.0,2.3559,2.41,2.457,0.0,0.0,0.0,0.0,2.4986,2.5062,0.0,0.0,0.0,0.0,0.0,0.0,0.0,0.0,0.0,0.0,0.0,0.0,0.0,0.0,0.0,0.0,0.0,0.0,0.0,0.0,0.0,0.0,0.0,0.0,0.0,0.0,0.0,0.0,0.0,0.0,0.0,0.0,0.0,0.0,0.0,0.0,0.0,0.0,0.0,0.0,0.0,0.0,0.0,0.0,0.0,0.0,0.0,0.0,0.0,0.0,0.0,0.0,0.0,0.0,0.0,0.0,1.8985,2.0238,1.9686,1.7402,1.7423,1.6609,1.479,1.4391,1.4232,0.0,0.0,0.0,0.0,0.0,0.0,0.0,0.0,0.0,0.0,0.0,0.0,0.0,0.0,0.0,0.0,0.0,0.0,0.0,0.0,0.0,0.0,0.0,0.0,0.0,0.0,0.0,0.0,0.0,0.0,0.0,0.0,0.0,0.0,0.0,0.0,0.0,0.0,0.0,0.0,0.0,2.3725,2.4449,2.4789,2.5015,0.0,0.0,2.4984,2.4924,2.4928,0.0,0.0,0.0,0.0,0.0,0.0,0.0,0.0,0.0,0.0,0.0,0.0,0.0,0.0,0.0,0.0,0.0,0.0,0.0,0.0,0.0,0.0,0.0,0.0,0.0,0.0,0.0,0.0,0.0,0.0,0.0,0.0,0.0,0.0,0.0,0.0,0.0,0.0,0.0,0.0,0.0,0.0,0.0,0.0,0.0,0.0,0.0,0.0,0.0,0.0,0.0,0.0,0.0,0.0,0.0,1.8482,1.9403,2.0573,1.9949,1.7521,1.7461,1.6564,1.4651,1.4277,1.4054,0.0,0.0,0.0,0.0,0.0,0.0,0.0,0.0,0.0,0.0,0.0,0.0,0.0,0.0,0.0,0.0,0.0,0.0,0.0,0.0,0.0,0.0,0.0,0.0,0.0,0.0,0.0,0.0,0.0,0.0,0.0,0.0,0.0,0.0,0.0,0.0,0.0,0.0,0.0,0.0,0.0,0.0,2.4411,2.4723,0.0,0.0,0.0,2.4895,2.4804,0.0,0.0,0.0,0.0,0.0,0.0,0.0,0.0,0.0,0.0,0.0,0.0,0.0,0.0,0.0,0.0,0.0,0.0,0.0,0.0,0.0,0.0,0.0,0.0,0.0,0.0,0.0,0.0,0.0,0.0,0.0,0.0,0.0,0.0,0.0,0.0,0.0,0.0,0.0,0.0,0.0,0.0,0.0,0.0,0.0,0.0,0.0,0.0,0.0,0.0,0.0,0.0,0.0,0.0,0.0,0.0,0.0,1.945,2.0727,2.0126,1.7599,1.7481,1.6583,1.467,1.4264,0.0,0.0,0.0,0.0,0.0,0.0,0.0,0.0,0.0,0.0,0.0,0.0,0.0,0.0,0.0,0.0,0.0,0.0,0.0,0.0,0.0,0.0,0.0,0.0,0.0,0.0,0.0,1.9744,0.0,0.0,0.0,0.0,0.0,0.0,0.0,0.0,0.0,0.0,0.0,0.0,0.0,0.0,2.328,2.4215,2.4681,2.5057,0.0,0.0,2.4531,2.4352,2.3656,2.3359,0.0,0.0,0.0,0.0,0.0,0.0,0.0,0.0,0.0,0.0,0.0,0.0,0.0,0.0,0.0,0.0,0.0,0.0,0.0,0.0,0.0,0.0,0.0,0.0,0.0,0.0,0.0,0.0,0.0,0.0,0.0,0.0,0.0,0.0,0.0,0.0,0.0,0.0,0.0,0.0,0.0,0.0,0.0,0.0,0.0,0.0,0.0,0.0,0.0,0.0,0.0,0.0,0.0,0.0,0.0,1.9091,2.0601,2.0124,1.7599,1.7481,1.6573,1.467,1.4203,1.3977,0.0,0.0,0.0,0.0,0.0,0.0,0.0,0.0,0.0,0.0,0.0,0.0,0.0,0.0,0.0,0.0,0.0,0.0,0.0,0.0,0.0,0.0,0.0,0.0,0.0,0.0,0.0,0.0,0.0,0.0,0.0,0.0,0.0,0.0,0.0,0.0,0.0,0.0,0.0,0.0,0.0,2.3017,2.3834,2.4693,2.5297,0.0,0.0,2.3662,2.3354,2.2224,2.166,2.2495,0.0,0.0,0.0,0.0,0.0,0.0,0.0,0.0,0.0,0.0,0.0,0.0,0.0,0.0,0.0,0.0,0.0,0.0,0.0,0.0,0.0,0.0,0.0,0.0,0.0,0.0,0.0,0.0,0.0,0.0,0.0,0.0,0.0,0.0,0.0,0.0,0.0,0.0,0.0,0.0,0.0,0.0,0.0,0.0,0.0,0.0,0.0,0.0,0.0,0.0,0.0,0.0,0.0,1.8709,1.9248,1.9847,1.9351,1.7693,1.7064,1.6064,1.4632,1.4216,1.3949,0.0,0.0,0.0,0.0,0.0,0.0,0.0,0.0,0.0,0.0,0.0,0.0,0.0,0.0,0.0,0.0,0.0,0.0,0.0,0.0,0.0,0.0,0.0,0.0,0.0,0.0,0.0,0.0,1.9462,1.8885,1.7757,0.0,0.0,0.0,0.0,0.0,0.0,0.0,0.0,0.0,0.0,2.2038,2.3025,2.4228,0.0,0.0,2.4851,2.4157,2.349,2.172,1.9663,1.7314,1.3822,0.0,0.0,0.0,0.0,0.0,0.0,0.0,0.0,0.0,0.0,0.0,0.0,0.0,0.0,0.0,0.0,0.0,0.0,0.0,0.0,0.0,0.0,0.0,0.0,0.0,0.0,0.0,0.0,0.0,0.0,0.0,0.0,0.0,0.0,0.0,0.0,0.0,0.0,0.0,0.0,0.0,0.0,0.0,0.0,0.0,0.0,0.0,0.0,0.0,0.0,0.0,0.0,1.8771,1.9447,1.957,1.8992,1.7727,1.6767,1.5762,1.4641,1.419,1.392,0.0,0.0,0.0,0.0,0.0,0.0,0.0,0.0,0.0,0.0,0.0,0.0,0.0,0.0,0.0,0.0,0.0,0.0,0.0,0.0,0.0,0.0,0.0,0.0,0.0,0.0,0.0,0.0,1.8412,1.7336,1.581,0.0,0.0,0.0,0.0,0.0,0.0,0.0,0.0,0.0,0.0,2.0871,2.2297,2.3783,2.491,2.5305,2.4785,2.3969,2.2918,1.9983,1.6458,1.2442,0.0,0.0,0.0,0.0,0.0,0.0,0.0,0.0,0.0,0.0,0.0,0.0,0.0,0.0,0.0,0.0,0.0,0.0,0.0,0.0,0.0,0.0,0.0,0.0,0.0,0.0,0.0,0.0,0.0,0.0,1.7658,0.0,0.0,0.0,0.0,0.0,0.0,0.0,0.0,0.0,0.0,0.0,0.0,0.0,0.0,0.0,0.0,0.0,0.0,0.0,0.0,0.0,0.0,1.9169,1.9577,1.9877,1.9287,1.7742,1.6792,1.5743,1.4651,1.416,1.3874,1.3811,0.0,0.0,0.0,0.0,0.0,0.0,0.0,0.0,0.0,0.0,0.0,0.0,0.0,0.0,0.0,0.0,0.0,0.0,0.0,0.0,0.0,0.0,0.0,0.0,0.0,0.0,1.7811,1.633,1.4816,0.0,0.0,0.0,0.0,0.0,0.0,0.0,0.0,0.0,0.0,1.7565,1.9449,2.1665,2.3542,2.4778,2.5067,2.4097,2.2802,2.126,1.6473,1.1712,0.0,0.0,0.0,0.0,0.0,0.0,0.0,0.0,0.0,0.0,0.0,0.0,0.0,0.0,0.0,0.0,0.0,0.0,0.0,0.0,0.0,0.0,0.0,0.0,0.0,0.0,0.0,1.5765,1.6803,0.0,0.0,0.0,0.0,0.0,0.0,0.0,0.0,0.0,0.0,0.0,1.5164,1.5395,0.0,0.0,0.0,0.0,0.0,0.0,0.0,0.0,0.0,0.0,0.0,0.0,1.9461,1.9521,1.9255,1.8638,1.7707,1.6215,1.5225,1.4822,1.4222,1.3948,1.4059,0.0,0.0,0.0,0.0,0.0,0.0,0.0,0.0,0.0,0.0,0.0,0.0,0.0,0.0,0.0,0.0,0.0,0.0,0.0,0.0,0.0,0.0,0.0,0.0,0.0,1.5395,0.0,0.0,0.0,0.0,0.0,0.0,0.0,0.0,0.0,0.0,0.0,1.172,1.3325,1.5938,1.8482,2.0644,2.2843,2.436,0.0,0.0,0.0,0.0,0.0,0.0,0.0,0.0,0.0,0.0,0.0,0.0,0.0,0.0,-1.9945,-1.8945,-1.7422,-1.5944,-1.4955,0.0,0.0,0.0,0.0,0.0,0.0,0.0,0.0,0.0,0.0,0.0,0.0,0.0,0.0,1.0823,0.0,1.4133,0.0,0.0,0.0,0.0,0.0,0.0,0.0,0.0,1.1837,1.1979,1.194,1.1636,1.0897,0.0,0.8951,0.9802,0.0,0.0,0.0,0.0,0.0,0.0,0.0,0.0,1.9372,1.9749,1.9122,1.8393,1.7689,1.6221,1.527,1.4914,1.4265,1.3823,1.3648,1.4332,1.4905,0.0,0.0,0.0,0.0,0.0,0.0,0.0,0.0,0.0,0.0,0.0,0.0,0.0,0.0,0.0,0.0,0.0,0.0,0.0,0.0,0.0,0.0,0.0,1.0088,0.0,0.0,0.0,0.0,0.0,0.0,0.0,0.0,0.0,0.6972,0.8097,0.932,1.1098,1.4213,1.725,1.9871,0.0,0.0,0.0,0.0,0.0,0.0,0.0,0.2764,-0.5208,-1.2396,-1.8764,-2.369,-2.5014,-2.5641,-2.6314,0.0,0.0,-2.2062,-2.0542,-1.9209,-1.8206,-1.792,-1.7552,-1.6695,-1.6489,-1.6574,0.0,0.0,0.0,0.0,0.0,0.0,0.0,0.0,0.0314,0.2954,0.0,0.9056,0.0,0.0,0.0,0.0,0.0,0.987,0.0,0.0,0.845,0.8151,0.7691,0.6564,0.5736,0.5303,0.4867,0.497,0.5705,0.8145,0.0,0.0,0.0,0.0,0.0,0.0,1.9007,2.0244,1.9414,1.8542,1.771,1.672,1.5797,1.4896,1.4235,1.3522,1.2735,1.3693,1.4086,1.3828,1.521,0.0,0.0,0.0,0.0,0.0,0.0,0.0,0.0,0.0,0.0,0.0,0.0,0.0,0.0,0.0,0.0,0.0,0.0,0.0,0.0,0.3998,0.0,0.0,0.0,0.0,0.0,0.0,0.0,0.0,0.0,0.0,0.3613,0.5341,0.7123,0.9238,0.0,0.0,0.0,0.0,2.3166,2.3469,2.1861,1.8752,1.3325,0.5305,-0.2769,-1.0,0.0,0.0,-2.6728,-2.6599,-2.6218,-2.6883,-2.5796,-2.4633,-2.3571,-2.2329,-2.1191,-2.015,-1.9849,-1.9461,-1.8443,-1.7948,-1.7747,-1.5465,0.0,0.0,0.0,0.0,-0.7044,-0.6047,-0.4432,-0.2629,-0.0216,0.2695,0.525,0.0,0.0,0.0,0.0,0.0,0.0,0.6416,0.5198,0.5002,0.4835,0.4548,0.3189,0.2179,0.1551,0.0915,0.0975,0.1689,0.3445,0.655,1.0901,0.0,0.0,0.0,0.0,1.9107,1.9463,1.882,1.8152,1.7565,1.6183,1.5083,1.4371,1.4038,1.3696,1.3348,1.4292,1.4906,1.505,1.5687,0.0,0.0,0.0,0.0,0.0,0.0,0.0,0.0,0.0,0.0,0.0,0.0,0.0,0.0,0.0,0.0,0.0,0.0,0.0,0.0274,-0.0543,-0.083,0.0,0.0,0.0,0.0,0.0,0.0,0.0,0.0,0.0,0.1516,0.3519,0.5864,0.0,0.0,1.5623,1.9014,2.1152,2.2278,2.2009,2.1773,0.0,0.8373,0.0921,-0.6334,-1.403,-2.0899,-2.5736,-2.6779,-2.6593,-2.6211,-2.6005,-2.4779,-2.3504,-2.2681,-2.2231,-2.172,-2.1163,-2.0663,-2.0156,-1.9523,-1.9051,-1.8702,-2.2067,-1.7039,-1.5534,-1.4697,-1.4241,-1.3503,-1.2285,-1.0711,-0.8684,-0.6056,-0.2913,-0.0093,0.2127,0.3819,0.5251,0.0,0.0,0.0,0.3425,0.1803,0.2027,0.1752,0.1091,-0.0109,-0.0878,-0.1269,-0.1438,-0.0998,0.0056,0.1986,0.5026,0.9148,0.0,0.0,1.6158,1.7406,1.8507,1.935,1.8545,1.7899,1.7521,1.5886,1.476,1.4241,1.4016,1.3727,1.3362,1.4346,1.4902,1.4905,1.5727,1.6321,0.0,0.0,0.0,0.0,0.0,0.0,0.0,0.0,0.0,0.0,0.0,1.6248,1.3615,0.0,0.0,0.0,0.1558,-0.2639,-0.5715,-0.6054,0.0,0.0,0.0,0.0,0.0,0.0,0.0,-0.2052,-0.0746,0.0404,0.1034,0.3135,0.5545,0.7953,1.1508,1.509,1.8395,0.0,2.1453,2.0478,1.9133,1.4547,0.4257,-0.3335,-1.0804,-1.8944,-2.3495,-2.6151,-2.6164,-2.5861,-2.538,-2.4688,-2.3635,-2.2628,-2.199,-2.148,-2.1052,-2.0799,-2.0428,-1.9826,-1.8792,-1.8249,-1.7891,-2.539,-2.5281,-2.3224,-2.2371,-2.2235,-2.062,-1.942,-1.8546,-1.6125,-1.3203,-0.9794,-0.6193,-0.2808,0.0366,0.1651,0.0,0.1102,0.1436,0.0664,-0.1055,-0.0389,-0.0778,-0.2104,-0.2815,-0.3159,-0.3077,-0.2382,-0.1271,0.0278,0.2764,0.5151,0.7256,0.9604,1.2396,1.541,1.6103,1.7486,1.9658,1.8431,1.7648,1.7393,1.5796,1.4744,1.4434,1.4095,1.3611,1.3002,1.4041,1.4374,1.3915,1.5463,1.617,1.5741,0.0,0.0,0.0,0.0,0.0,0.0,0.0,0.0,0.0,0.0,0.0,0.0,0.0,0.0,0.0,-0.5553,0.0,-1.1192,-1.1797,0.0,0.0,0.0,-0.6763,-0.621,-0.4435,-0.3033,-0.2512,0.0,0.0,0.1725,0.3868,0.5928,0.7482,1.088,1.4422,1.772,1.9948,2.0727,1.9277,1.4868,0.8909,0.1009,-0.7642,-1.5957,-2.3223,-2.532,-2.5386,-2.5173,-2.4662,-2.4046,-2.3319,-2.2486,-2.1711,-2.1297,-2.0159,-1.936,-1.9236,-1.9251,-1.8693,-1.6941,-1.6411,-1.6044,-2.4389,-2.4762,-2.3367,-2.2647,-2.2291,-2.0832,-1.942,-1.8085,-1.6703,-1.4808,-1.2575,-0.957,-0.5747,-0.1526,-0.1209,-0.0885,-0.0501,-0.0446,-0.0668,-0.106,-0.0949,-0.106,-0.1392,-0.2113,-0.2174,-0.156,-0.0866,0.0216,0.1725,0.3434,0.5387,0.7524,0.9657,1.2234,1.5119,1.5757,1.6971,1.8956,1.7557,1.6496,1.5784,1.5299,1.4893,1.4563,1.4235,1.38,1.3227,1.4331,1.4716,1.4181,1.5526,1.6316,1.6365,1.6466,0.0,0.0,0.0,0.0,0.0,0.0,0.0,0.0,0.0,0.8621,0.478,0.0,0.0294,0.0,-0.8843,-1.2315,-1.3715,-1.3408,0.0,0.0,-0.9299,-0.7657,-0.5857,-0.4054,-0.2366,-0.0677,0.0561,0.195,0.3545,0.4969,0.6651,0.8894,1.1461,1.4313,1.732,1.9695,2.068,1.885,1.2717,0.5405,-0.1542,-1.2561,-2.1479,-2.4416,-2.4894,-2.4819,-2.461,-2.3855,-2.2986,-2.215,-2.118,-2.0106,-1.8899,-1.817,-1.7437,-1.6741,-1.685,-1.6876,-1.591,-1.5407,-1.5005,-2.2498,-2.2721,-2.1277,-2.0411,-1.999,-1.9735,-1.8717,-1.7261,-1.6421,-1.4982,-1.3117,-1.0015,-0.6428,-0.2764,-0.267,-0.212,-0.1118,-0.1118,-0.1284,-0.1562,-0.0989,-0.088,-0.1169,-0.1005,-0.0718,-0.0254,0.0522,0.1655,0.3096,0.4595,0.6396,0.8586,1.0605,1.2969,1.5548,1.5934,1.7033,1.9022,1.8021,1.691,1.5838,1.5707,1.5539,1.5283,1.4901,1.4683,1.4587,1.5395,1.5572,1.5105,1.6014,1.6611,1.6684,1.6851,1.7097,0.0,0.0,0.0,0.0,0.0,0.0,0.0,0.0,0.0,0.0,0.0,-0.4476,-0.8242,-1.1069,-1.307,-1.4032,-1.3424,-1.234,-1.0883,-0.9337,-0.7543,-0.5515,-0.3424,-0.1592,-0.0171,0.1684,0.3219,0.4316,0.6049,0.7811,0.9519,1.1634,1.4071,1.6804,1.8965,1.9782,1.8547,1.314,0.4186,-0.7416,-1.6918,-2.318,-2.4323,-2.4302,-2.3891,-2.3467,-2.2415,-2.1284,-2.0302,-1.9056,-1.7889,-1.6889,-1.6061,-1.5251,-1.4496,-1.4126,-1.416,-1.4268,-1.3825,-1.3318,-2.0029,-1.9881,-1.8253,-1.7166,-1.6581,-1.7505,-1.7143,-1.5967,-1.5528,-1.4185,-1.2067,-0.8754,-0.5748,-0.3209,-0.3169,-0.2341,-0.1006,-0.095,-0.1225,-0.1602,-0.0376,-0.0107,-0.0599,0.0511,0.1053,0.1084,0.1945,0.3029,0.4389,0.5939,0.7808,0.9903,1.1911,1.4106,1.633,1.6418,1.7364,1.9241,1.8889,1.8021,1.6716,1.6619,1.6483,1.628,1.5908,1.5864,1.6259,1.6617,1.6618,1.6232,1.6726,1.696,1.685,1.7396,1.7282,0.0,1.4099,0.0,0.0,0.0,0.0,0.0,0.0,0.0,0.0,-0.747,-0.866,-1.1687,-1.2395,-1.2852,-1.3168,-1.2502,-1.1504,-1.028,-0.8538,-0.6672,-0.4897,-0.2585,-0.0753,0.029,0.2759,0.4481,0.4969,0.7121,0.8933,0.9862,1.1495,1.3652,1.612,1.79,1.8629,1.7829,1.4353,0.4636,-1.1579,-1.8483,-2.0995,-2.2863,-2.2691,-2.2206,-2.1498,-2.0234,-1.8931,-1.7709,-1.6389,-1.5265,-1.4679,-1.3645,-1.2806,-1.2054,-1.1357,-1.1226,-1.2034,-1.1861,-1.1225,-1.694,-1.6933,-1.6136,-1.5059,-1.3865,-1.3288,-1.3295,-1.3685,-1.3952,-1.2253,-0.9192,-0.6828,-0.4581,-0.2491,-0.2391,-0.1618,-0.0224,-0.0223,0.0219,0.1063,0.19,0.2419,0.2612,0.2873,0.2965,0.3042,0.3755,0.447,0.5233,0.7051,0.8912,1.0776,1.2624,1.4699,1.6922,0.0,0.0,0.0,1.8516,1.8332,1.7591,1.753,1.7445,1.7229,1.6953,0.0,1.6627,1.7078,1.7146,1.671,1.7265,0.0,0.0,0.0,0.0,0.0,0.0,0.0,0.0,0.0,0.0,0.0,-0.8581,-0.9313,-1.0504,-1.0865,-1.1513,-1.2646,-1.2349,-1.2087,-1.2006,-1.1379,-1.0436,-0.9099,-0.7106,-0.5042,-0.2965,-0.1232,0.0672,0.3236,0.4051,0.5132,0.6827,0.8053,0.9193,1.0452,1.1474,1.2879,1.4809,1.6775,1.7858,1.7282,1.2562,0.4083,-0.7932,-1.1888,-1.5069,-1.8002,-1.8603,-1.8032,-1.787,-1.6756,-1.5407,-1.4134,-1.3353,-1.2287,-1.0853,-1.0326,-0.9962,-0.9335,-0.8637,-0.8553,-0.9842,-0.9834,-0.9408,-1.2201,0.0,-1.1402,-1.087,0.0,-0.9332,-0.8838,-0.9099,-1.0824,-0.9829,-0.6844,-0.4766,-0.2793,-0.1109,-0.0722,0.0222,0.1612,0.1663,0.2064,0.288,0.3556,0.4031,0.4349,0.4369,0.4697,0.5193,0.5335,0.5906,0.685,0.8718,1.0264,1.1546,1.3868,1.5755,1.7167,1.793,1.8352,1.8382,1.8987,1.9013,1.8486,1.8446,1.8363,1.8179,1.7935,0.0,0.0,0.0,0.0,0.0,0.0,0.0,0.0,0.0,0.0,1.0487,0.6146,0.1687,-0.2928,-0.4989,-0.7099,-0.963,-1.0077,-1.0597,-1.15,-1.1428,-1.1347,-1.1338,-1.0722,-1.0128,-0.9685,-0.9015,-0.804,-0.6637,-0.4915,-0.3125,-0.1324,0.0166,0.1938,0.4036,0.5337,0.6587,0.8013,0.9452,1.0439,1.1266,1.1979,1.2818,1.3853,1.5638,1.7106,1.7663,1.2021,0.4874,-0.23,-0.6832,-0.987,-1.2936,-1.3521,-1.3471,-1.3891,-1.2616,-1.135,-1.066,-0.9732,-0.849,-0.77,-0.741,-0.72,-0.6618,-0.6272,-0.6064,-0.6462,-0.6996,-0.75,-0.7085,-0.7425,-0.6154,-0.6249,-0.6994,-0.5551,-0.4576,-0.4142,0.0,0.0,0.0,-0.2516,-0.0883,0.0445,0.1165,0.2098,0.3234,0.3504,0.3903,0.439,0.502,0.5471,0.5805,0.5891,0.6349,0.7174,0.6866,0.7352,0.8594,1.0196,1.1495,1.2597,1.5026,1.6612,1.7374,1.8868,1.9425,1.9054,1.9593,1.9707,1.9309,1.9316,1.9262,1.9138,1.9049,1.9538,2.0719,2.0647,2.086,2.1389,2.064,2.0261,2.0412,1.9199,1.5836,0.9901,0.2726,-0.2519,-0.5076,-0.6668,-0.8044,-0.93,-0.8806,-0.9293,-1.1072,-1.0439,-0.9715,-0.9188,-0.8443,-0.7629,-0.6844,-0.6125,-0.523,-0.3875,-0.2464,-0.1047,0.0443,0.1771,0.3259,0.4801,0.6635,0.8088,0.8835,1.0679,1.1953,1.1993,1.2623,1.3311,1.3641,1.4942,1.6322,1.7011,1.2967,0.7452,0.2425,-0.1432,-0.5111,-0.7667,-0.8231,-0.8569,-0.9172,-0.8352,-0.7465,-0.7459,-0.6055,-0.5234,-0.4845,-0.4782,-0.4565,-0.4073,-0.4124,-0.3926,-0.3126,-0.3943,-0.4875,-0.2564,-0.2653,-0.2459,-0.249,-0.2575,-0.1872,-0.1302,-0.0941,-0.1957,-0.213,-0.1584,-0.0055,0.1112,0.195,0.266,0.2995,0.3076,0.4275,0.5168,0.5841,0.6527,0.7328,0.8191,0.8234,0.8285,0.844,0.8381,0.8911,0.9909,1.0627,1.1902,1.3761,1.5078,1.6472,1.7885,1.9365,1.9745,1.9036,1.9604,1.9943,2.0051,2.0094,2.0114,2.0134,2.0603,2.0929,2.1035,2.1494,2.1831,2.1965,2.1531,2.1007,2.035,1.9322,1.4766,0.6241,0.3872,-0.0274,-0.7601,-0.725,-0.5941,-0.4502,-0.422,-0.58,-0.9452,-0.819,-0.7056,-0.6908,-0.5775,-0.4696,-0.3965,-0.3219,-0.246,-0.1583,-0.022,0.1214,0.2638,0.3528,0.4856,0.6838,0.7947,0.8835,0.9636,1.139,1.2464,1.226,1.3107,1.4126,1.4853,1.5137,1.5374,1.5806,1.4989,1.195,0.7527,0.5313,0.1972,-0.2577,-0.3051,-0.349,-0.4934,-0.448,-0.389,-0.3876,-0.3463,-0.3125,-0.2611,-0.2476,-0.2384,-0.2243,-0.1984,-0.1579,-0.1223,-0.1175,-0.1128,0.167,0.1141,0.1399,0.0984,0.0216,0.1085,0.1589,0.1865,0.2237,0.1679,0.0838,0.2651,0.369,0.4081,0.4915,0.5453,0.5775,0.6608,0.722,0.7755,0.8085,0.8539,0.9065,0.8829,0.8999,0.9518,0.954,1.0077,1.1072,1.2127,1.3449,1.5057,1.6832,1.8389,1.961,2.0451,2.0765,2.0639,2.0113,1.9993,2.0284,2.0288,2.0332,2.0359,2.0559,2.1062,2.182,2.2053,2.2595,2.354,2.251,2.1881,2.1751,1.9054,1.3906,0.6213,0.3213,-0.0777,-0.6645,-0.4887,-0.3031,-0.1634,-0.1479,-0.2286,-0.4191,-0.4624,-0.4599,-0.4203,-0.3182,-0.2144,-0.1042,-0.0274,0.0493,0.1206,0.2638,0.3741,0.445,0.5128,0.6131,0.7498,0.8633,0.9496,1.0261,1.1823,1.2932,1.3017,1.391,1.4841,1.5784,1.5565,1.5435,1.5761,1.5645,1.4247,1.1171,0.9421,0.7245,0.4253,0.3002,0.1864,0.0488,0.0251,-0.0099,-0.0291,-0.0333,-0.0234,0.0046,-0.0229,-0.0231,0.0094,-0.0046,0.0182,0.0593,0.1308,0.1547,0.5319,0.4464,0.4881,0.4235,0.2973,0.3859,0.4273,0.4401,0.5555,0.5103,0.3796,0.5091,0.5848,0.6149,0.6991,0.7647,0.8247,0.8626,0.8988,0.9351,0.9443,0.969,0.9961,0.9579,0.9815,1.0572,1.058,1.1113,1.2206,1.3443,1.4915,1.6516,1.8644,2.0122,2.0908,2.1322,2.1633,2.1736,2.0847,2.0516,2.0828,2.0881,2.0898,2.0967,2.1053,2.1625,2.2783,2.2904,2.355,2.4745,2.3607,2.2962,2.3023,1.9349,1.426,0.8109,0.3864,0.0032,-0.334,-0.1632,0.0106,0.0934,0.1156,0.1265,0.11,-0.0439,-0.1482,-0.1152,-0.055,0.0497,0.1819,0.2585,0.3242,0.403,0.5015,0.5725,0.5995,0.6612,0.7331,0.8131,0.9349,1.046,1.1249,1.2423,1.3554,1.4243,1.4752,1.5387,1.6245,1.6213,1.6212,1.6213,1.6132,1.5243,1.3687,1.2074,1.0579,0.9646,0.7647,0.5803,0.4656,0.3837,0.3161,0.2481,0.2276,0.2181,0.2217,0.1938,0.1872,0.2199,0.2119,0.2086,0.2664,0.3299,0.345,0.7993,0.743,0.743,0.7086,0.6377,0.6514,0.6569,0.6703,0.7558,0.785,0.7547,0.6836,0.7034,0.7772,0.8194,0.8555,0.8805,0.936,0.9866,1.0175,1.0524,1.1057,1.1522,1.1527,1.1579,1.166,1.166,1.2212,1.3226,1.3927,1.5591,1.8224,1.9596,2.0304,2.0648,2.1499,2.1741,2.1231,2.1789,2.2128,2.2236,2.2499,2.2691,2.2773,2.348,2.3929,2.3983,2.4563,2.4985,2.5273,2.4812,2.423,2.3372,2.0907,1.6764,1.0945,0.8012,0.4886,0.1131,0.2104,0.329,0.3957,0.4511,0.4834,0.483,0.4111,0.3123,0.2302,0.2477,0.3416,0.4895,0.5163,0.5496,0.6171,0.6509,0.6745,0.7486,0.8112,0.8797,0.9547,1.0695,1.1846,1.2483,1.3606,1.4688,1.5235,1.5407,1.5902,1.6954,1.7274,1.7371,1.7028,1.6345,1.5454,1.4588,1.3328,1.2016,1.0845,0.926,0.7882,0.6753,0.5659,0.4727,0.4364,0.3609,0.3559,0.369,0.3727,0.3731,0.3839,0.409,0.4525,0.4905,0.5096,0.476,1.0195,0.9605,0.9349,0.8904,0.8447,0.8663,0.9013,0.9342,0.9683,1.0182,1.0672,1.002,0.9751,0.9867,1.0152,1.0481,1.0841,1.1566,1.1816,1.1683,1.2145,1.2485,1.2715,1.2726,1.2754,1.2754,1.3016,1.3727,1.4863,1.6246,1.7748,1.9176,2.0211,2.094,2.1451,2.2306,2.267,2.2679,2.3272,2.367,2.3727,2.3216,2.2921,2.3022,2.335,2.3766,2.423,2.4494,2.4889,2.5351,2.48,2.4262,2.3829,2.0642,1.7082,1.3127,0.9006,0.5884,0.3834,0.4628,0.5375,0.5684,0.6318,0.6587,0.6234,0.6201,0.6172,0.5993,0.5205,0.5167,0.6572,0.7116,0.7706,0.8344,0.8829,0.9207,0.9474,0.9784,1.0084,1.0466,1.1548,1.2483,1.2956,1.4239,1.5227,1.566,1.5878,1.6492,1.7536,1.7655,1.7758,1.8012,1.7281,1.6153,1.5182,1.4397,1.3471,1.2652,1.1535,1.0292,0.9512,0.7839,0.6658,0.6398,0.5641,0.5098,0.4956,0.5184,0.5305,0.5486,0.5629,0.598,0.5831,0.6301,0.6403,1.1557,1.1116,1.0788,1.0407,1.0128,1.0574,1.103,1.1437,1.1612,1.2118,1.2726,1.2392,1.2226,1.2123,1.1943,1.2109,1.2754,1.3305,1.3403,1.3115,1.3569,1.3813,1.3813,1.3813,1.3813,1.3853,1.4137,1.4935,1.6284,1.7981,1.9236,1.9958,2.0682,2.1383,2.2147,2.2859,2.3307,2.3584,2.4198,2.4578,2.4565,2.39,2.3539,2.363,2.3686,2.3983,2.4598,2.4637,2.4898,2.5466,2.4827,2.4329,2.4011,2.0842,1.7537,1.4132,0.9752,0.6901,0.6345,0.6888,0.7327,0.7494,0.8081,0.8298,0.7941,0.8193,0.8659,0.8978,0.7846,0.7465,0.8332,0.8985,0.9504,0.9951,1.0493,1.0813,1.0762,1.1065,1.1358,1.1458,1.257,1.3396,1.3752,1.488,1.5884,1.5928,1.6244,1.6866,1.7787,1.78,1.788,1.8688,1.8078,1.705,1.5812,1.5154,1.4846,1.4281,1.3244,1.2158,1.2018,0.9955,0.8609,0.8282,0.7541,0.7277,0.7427,0.7446,0.7182,0.7273,0.7356,0.7302,0.7032,0.7687,0.8189,1.1774,1.1763,1.1726,1.1723,1.1745,1.2256,1.2519,1.2721,1.3116,1.3383,1.3522,1.3465,1.3905,1.4701,1.3415,1.3114,1.3919,1.4088,1.4118,1.4125,1.4604,1.4812,1.4826,1.4826,1.4863,1.4924,1.4976,1.5763,1.7249,1.8389,1.96,2.0862,2.0991,2.1446,2.226,2.2892,2.3206,2.3364,2.4062,2.4506,2.4545,2.4737,2.4919,2.51,2.5305,2.5288,2.541,2.5429,2.5448,2.5507,2.518,2.4834,2.4242,2.2283,1.8685,1.3826,1.0773,0.8963,0.8461,0.9004,0.9446,0.9578,1.0069,1.0551,1.0238,1.034,1.0493,1.0661,1.0383,1.0375,1.0586,1.0594,1.0653,1.0813,1.0813,1.0914,1.0906,1.2033,1.2619,1.287,1.3784,1.463,1.5297,1.6039,1.6337,1.638,1.6479,1.6921,1.7827,1.8052,1.8341,1.8612,1.8419,1.7826,1.7206,1.6216,1.562,1.5035,1.4009,1.2849,1.2253,1.1538,1.0776,1.0122,0.9534,0.9424,0.9954,0.9979,0.9589,0.9392,0.9035,0.8842,0.8508,0.8958,0.9415,1.2544,1.2317,1.2974,1.3069,1.2894,1.4063,1.4778,1.5157,1.5647,1.6101,1.6323,1.6049,1.6297,1.6916,1.6009,1.5438,1.5162,1.5475,1.5472,1.5212,1.5674,1.5932,1.5919,1.5932,1.6125,1.6384,1.6465,1.7101,1.8295,1.9316,2.0196,2.0878,2.1244,2.1774,2.2473,2.2771,2.3065,2.35,2.3866,2.4155,2.4478,2.462,2.4785,2.5013,2.5303,2.5456,2.5518,2.5511,2.5442,2.5317,2.5189,2.4835,2.4024,2.1457,1.8179,1.4454,1.2486,1.1111,1.0184,1.0253,1.0383,1.0434,1.1048,1.1308,1.0965,1.1166,1.1466,1.1458,1.1458,1.1715,1.2346,1.1953,1.1625,1.2049,1.2147,1.2286,1.2696,1.3178,1.3558,1.4029,1.4767,1.5511,1.6008,1.6367,1.6479,1.6522,1.6795,1.7312,1.7933,1.838,1.8703,1.8765,1.8458,1.7907,1.7381,1.6685,1.6051,1.5499,1.4699,1.3996,1.3314,1.2168,1.1235,1.1093,1.0795,1.0523,1.0697,1.0768,1.0649,1.048,1.0202,1.0351,1.0118,1.0477,1.076,1.3568,1.3399,1.4038,1.425,1.4225,1.5423,1.6275,1.679,1.7325,1.7758,1.7968,1.7702,1.7758,1.7995,1.7716,1.719,1.6543,1.6699,1.6661,1.6475,1.6671,1.6837,1.6993,1.6993,1.7227,1.757,1.7774,1.8291,1.9126,1.9919,2.0616,2.1181,2.1491,2.1919,2.249,2.2647,2.2989,2.3437,2.3644,2.3934,2.4355,2.4461,2.4543,2.4731,2.5044,2.5217,2.5288,2.5337,2.529,2.5096,2.4988,2.4448,2.3265,2.0715,1.8003,1.5598,1.4117,1.3052,1.222,1.1895,1.1846,1.2083,1.2434,1.2531,1.2132,1.2473,1.2735,1.2735,1.2725,1.3215,1.3663,1.3263,1.2938,1.342,1.3478,1.3658,1.4061,1.4272,1.4687,1.5186,1.5599,1.6064,1.6423,1.6479,1.6607,1.671,1.7063,1.7544,1.821,1.865,1.902,1.908,1.8727,1.8224,1.7706,1.7133,1.6539,1.5996,1.5365,1.4778,1.4182,1.2949,1.2166,1.2035,1.176,1.1388,1.1283,1.1393,1.1359,1.1244,1.1434,1.1669,1.1715,1.1901,1.2158,1.4865,1.4789,1.4916,1.5197,1.5625,1.6357,1.6867,1.7398,1.7932,1.8193,1.8313,1.8168,1.8232,1.8171,1.8218,1.809,1.7997,1.7599,1.7558,1.7825,1.7477,1.7544,1.7947,1.7933,1.7975,1.8139,1.8627,1.9101,1.9621,2.0112,2.0781,2.143,2.1612,2.1928,2.2293,2.2547,2.284,2.323,2.3524,2.3857,2.4191,2.4393,2.4478,2.4493,2.4716,2.4823,2.4809,2.4994,2.5004,2.4789,2.4651,2.3739,2.2136,2.0286,1.87,1.7072,1.5584,1.4744,1.4468,1.3935,1.382,1.4168,1.4514,1.4365,1.4215,1.4365,1.4422,1.4365,1.4411,1.4606,1.4641,1.4606,1.4503,1.4652,1.4479,1.4525,1.4789,1.5231,1.582,1.6238,1.6392,1.6479,1.6491,1.6534,1.668,1.7063,1.7353,1.7747,1.8574,1.893,1.9169,1.9406,1.9006,1.8341,1.7973,1.7626,1.7063,1.6497,1.5852,1.5264,1.5005,1.4065,1.3501,1.3279,1.3091,1.2712,1.2703,1.2782,1.2875,1.2812,1.3007,1.2954,1.3083,1.3219,1.3384,1.4903,1.4992,1.5698,1.6113,1.6449,1.7592,1.8238,1.8455,1.897,1.9207,1.9207,1.9207,1.9207,1.9207,1.9207,1.9207,1.9169,1.865,1.8302,1.8106,1.7933,1.7933,1.8092,1.8092,1.8291,1.8683,1.9205,1.9675,2.0108,2.0534,2.1086,2.1552,2.1928,2.2135,2.2282,2.2406,2.2676,2.3165,2.3303,2.3617,2.4152,2.4266,2.4303,2.4321,2.4491,2.4535,2.4405,2.4716,2.4685,2.4284,2.421,2.3414,2.173,2.0215,1.8766,1.7316,1.6039,1.5119,1.4744,1.4539,1.4471,1.4687,1.4755,1.4709,1.4709,1.4755,1.4744,1.4755,1.4709,1.4835,1.5231,1.5332,1.5197,1.4744,1.4709,1.4926,1.5332,1.582,1.625,1.6436,1.6534,1.6534,1.6522,1.6522,1.6808,1.7312,1.7626,1.8131,1.8727,1.9207,1.9442,1.9603,1.8968,1.8458,1.8171,1.7747,1.7105,1.671,1.617,1.5808,1.5543,1.5141,1.4641,1.4283,1.4107,1.4025,1.4025,1.4018,1.3957,1.4022,1.3938,1.4024,1.4247,1.441,1.4505,1.5971,1.5891,1.6731,1.7231,1.7452,1.8508,1.902,1.9207,1.9566,1.9782,1.9909,1.9909,2.0035,2.012,2.0015,1.9945,1.9894,1.9543,1.9163,1.8688,1.8458,1.8496,1.865,1.8688,1.8841,1.9169,1.953,2.0015,2.055,2.0862,2.1291,2.184,2.218,2.2299,2.2327,2.231,2.2544,2.2954,2.3163,2.3469,2.3921,2.4151,2.419,2.4265,2.4616,2.4598,2.4283,2.4597,2.4542,2.3943,2.353,2.2673,2.1493,2.0045,1.8697,1.7585,1.6373,1.5525,1.5332,1.5217,1.5149,1.532,1.5389,1.5377,1.5377,1.5377,1.5389,1.5389,1.5377,1.5511,1.5876,1.592,1.5732,1.5433,1.5433,1.5522,1.5964,1.6441,1.6637,1.668,1.6879,1.6951,1.6866,1.7034,1.7325,1.7827,1.8171,1.8574,1.9095,1.9493,1.9617,1.9639,1.9317,1.8855,1.8458,1.7867,1.7146,1.6769,1.6386,1.617,1.5964,1.5499,1.5005,1.4652,1.4433,1.4387,1.4387,1.4479,1.4494,1.4609,1.4831,1.5057,1.5217,1.529,1.5401,1.7773,1.7422,1.7933,1.8363,1.876,1.8954,1.9244,1.9654,1.969,1.9909,2.0212,2.0246,2.0516,2.0797,2.0483,2.0348,2.0348,2.0299,2.0074,1.9702,1.9376,1.9288,1.9479,1.9493,1.953,1.9639,1.9711,2.0174,2.0878,2.1055,2.1446,2.218,2.2383,2.2395,2.2496,2.2429,2.2726,2.3094,2.3276,2.3611,2.3981,2.4233,2.4427,2.4502,2.5051,2.5069,2.4498,2.4457,2.4306,2.3611,2.2702,2.1961,2.1222,1.9767,1.8617,1.8013,1.6549,1.6139,1.6194,1.5908,1.5852,1.625,1.6293,1.6491,1.6349,1.625,1.625,1.6306,1.6349,1.6392,1.6436,1.6436,1.6423,1.6509,1.6324,1.6337,1.6509,1.6866,1.6921,1.6837,1.7381,1.7854,1.734,1.7747,1.8185,1.8626,1.8765,1.9043,1.9406,1.9654,1.969,1.9566,1.9406,1.908,1.8612,1.8171,1.7544,1.7299,1.6883,1.6527,1.6324,1.5864,1.5632,1.5242,1.4983,1.4892,1.4937,1.5119,1.5242,1.544,1.5704,1.5952,1.604,1.6039,1.6373,1.8013,1.7947,1.8458,1.8779,1.8983,1.9317,1.9566,1.969,1.9726,1.9965,2.0246,2.0299,2.0616,2.0959,2.0894,2.0829,2.0829,2.0829,2.0781,2.0681,2.055,2.0108,1.9782,1.9726,1.9741,1.9777,2.0076,2.0449,2.0991,2.1389,2.1817,2.2299,2.2902,2.3105,2.3156,2.36,2.4093,2.4344,2.4441,2.4743,2.5236,2.5393,2.5681,2.5947,2.5899,2.5479,2.4679,2.3756,2.3214,2.2958,2.2197,2.1549,2.1038,1.9652,1.8593,1.8013,1.705,1.6324,1.6423,1.6367,1.6367,1.6479,1.6607,1.6534,1.6534,1.6522,1.6522,1.6522,1.6534,1.6522,1.6522,1.6565,1.6723,1.6951,1.6795,1.6607,1.6607,1.6595,1.6795,1.7076,1.7381,1.7706,1.7894,1.8052,1.838,1.8817,1.9006,1.908,1.953,1.9705,1.9705,1.953,1.9369,1.9118,1.8803,1.838,1.8013,1.7867,1.7422,1.6866,1.6625,1.6293,1.6194,1.6107,1.5844,1.5712,1.5888,1.612,1.625,1.6139,1.6324,1.6454,1.657,1.6638,1.7126,1.8664,1.8511,1.9006,1.9244,1.9281,1.9566,1.9803,1.9945,1.9965,2.033,2.0732,2.083,2.1102,2.1507,2.1354,2.1244,2.1244,2.1244,2.115,2.0991,2.0959,2.0565,2.0104,1.9929,2.0117,2.0441,2.0709,2.1363,2.2135,2.2456,2.2784,2.3249,2.363,2.3849,2.3896,2.4241,2.4569,2.4744,2.4923,2.5207,2.5535,2.574,2.587,2.6141,2.615,2.6015,2.5346,2.4016,2.3119,2.2781,2.1978,2.1163,2.0667,1.9555,1.8608,1.8106,1.7504,1.7105,1.6909,1.7034,1.7188,1.7188,1.7188,1.7201,1.7201,1.7146,1.7188,1.7229,1.6993,1.6951,1.7105,1.7188,1.7312,1.7544,1.7353,1.716,1.7214,1.7435,1.7504,1.7706,1.8013,1.8302,1.8496,1.8612,1.8893,1.9169,1.9281,1.9442,1.9639,1.9705,1.9779,1.9745,1.9627,1.9487,1.9272,1.8889,1.8525,1.8355,1.7747,1.7188,1.6837,1.6565,1.6479,1.6436,1.6479,1.6534,1.6522,1.6565,1.6625,1.6625,1.6765,1.6964,1.716,1.7271,1.7787,1.9406,1.9006,1.9479,1.9726,1.9747,1.9782,2.0035,2.0314,2.0382,2.0813,2.1383,2.1582,2.1735,2.2282,2.184,2.1658,2.1675,2.1688,2.1477,2.1323,2.1245,2.1039,2.0803,2.0649,2.0949,2.142,2.1608,2.2513,2.3325,2.3753,2.4094,2.4262,2.4472,2.4594,2.4675,2.4785,2.4754,2.4978,2.5268,2.547,2.5646,2.5848,2.6074,2.6233,2.6303,2.6433,2.5883,2.4816,2.3785,2.3431,2.1878,2.0927,2.0333,1.9492,1.8765,1.8302,1.8066,1.7814,1.7651,1.7963,1.8287,1.8289,1.8343,1.8285,1.8302,1.8248,1.8193,1.8358,1.7828,1.7854,1.8235,1.8342,1.8451,1.8601,1.849,1.8407,1.8509,1.8697,1.865,1.8302,1.9043,1.9258,1.9295,1.9369,1.969,1.9457,1.956,1.97,1.9878,2.0064,2.0168,2.0273,2.0117,1.9989,1.9731,1.9457,1.9107,1.8784,1.804,1.7435,1.6909,1.668,1.6565,1.6534,1.6534,1.6522,1.6522,1.6595,1.6837,1.7034,1.7188,1.7544,1.7894,1.7973,1.8341,1.9639,1.953,1.9639,1.9874,2.0158,2.0177,2.0431,2.0829,2.0829,2.115,2.1538,2.1612,2.1899,2.2265,2.218,2.2152,2.2123,2.214,2.2077,2.2049,2.202,2.2129,2.2069,2.189,2.1851,2.2239,2.2994,2.3555,2.3968,2.4377,2.4416,2.4611,2.5152,2.5372,2.5406,2.5827,2.62,2.6218,2.6285,2.6379,2.6592,2.6692,2.69,2.7102,2.6667,2.6433,2.6309,2.5167,2.4488,2.4,2.2459,2.1086,2.0724,1.972,1.906,1.8831,1.8453,1.8354,1.8659,1.8879,1.9141,1.9601,1.9642,1.9683,1.9642,1.921,1.9211,1.9377,1.9128,1.9017,1.9447,1.9642,1.9823,2.0028,2.0179,2.0359,2.0527,1.9394,1.8719,1.8841,1.904,1.9221,1.9487,1.9604,1.9765,1.972,1.9854,1.9974,2.0213,2.0468,2.0617,2.0797,2.0827,2.0692,2.0445,2.0064,1.9537,1.9084,1.8355,1.7747,1.7271,1.6795,1.668,1.6607,1.6534,1.6522,1.6522,1.6866,1.7146,1.7381,1.7666,1.8013,1.8341,1.8535,1.8727,1.9705,1.9705,1.9705,1.9803,2.0035,2.0212,2.055,2.0991,2.1213,2.1538,2.1853,2.1928,2.2061,2.2265,2.2327,2.2299,2.2412,2.2665,2.2615,2.2552,2.2873,2.3224,2.3207,2.352,2.3671,2.362,2.4048,2.4597,2.5129,2.5361,2.5592,2.5524,2.5913,2.6082,2.6116,2.6488,2.6623,2.664,2.6691,2.6808,2.6987,2.7019,2.7083,2.7238,2.6754,2.6548,2.6555,2.5645,2.5046,2.4463,2.3074,2.1881,2.1591,2.0729,2.0138,1.9825,1.9893,1.9755,1.9973,2.0196,2.0489,2.0808,2.0837,2.0878,2.0835,2.0503,2.0518,2.0608,2.0369,2.0132,2.0415,2.0752,2.1003,2.1167,2.1263,2.1414,2.1401,2.0523,1.9879,2.0055,2.0038,2.0226,2.0363,2.0288,2.0438,2.0647,2.0782,2.0887,2.0946,2.1171,2.1261,2.1395,2.1515,2.144,2.1171,2.0682,1.9929,1.9371,1.8703,1.8224,1.7787,1.7312,1.6837,1.6723,1.6607,1.6534,1.6565,1.6993,1.7504,1.7787,1.8092,1.8458,1.8817,1.9095,1.9244,1.9705,1.9705,1.9705,1.9711,1.9854,2.0143,2.0616,2.1118,2.143,2.1794,2.2288,2.2395,2.2552,2.2513,2.253,2.2496,2.2699,2.319,2.3291,2.3071,2.3816,2.4056,2.4127,2.4721,2.5246,2.5228,2.5312,2.5799,2.632,2.6691,2.6404,2.6607,2.664,2.6573,2.664,2.6691,2.6708,2.6708,2.6691,2.6725,2.6758,2.6758,2.6791,2.6774,2.674,2.6673,2.659,2.61,2.5614,2.5041,2.4013,2.3326,2.2789,2.1994,2.152,2.1027,2.1222,2.127,2.124,2.1506,2.1809,2.1934,2.1983,2.1998,2.2013,2.1858,2.1817,2.1836,2.1645,2.1422,2.1376,2.1745,2.1992,2.2028,2.2039,2.1994,2.1979,2.1964,2.1824,2.1421,2.0995,2.0959,2.1102,2.1111,2.135,2.1545,2.1665,2.1769,2.1814,2.1874,2.1964,2.2203,2.2383,2.2188,2.1889,2.135,2.059,1.9927,1.9228,1.8792,1.8361,1.7787,1.7312,1.6879,1.6723,1.6723,1.6921,1.7476,1.7907,1.8185,1.8574,1.9006,1.9369,1.9654,1.9654,1.9705,1.9705,1.9705,1.9874,2.0193,2.028,2.0765,2.143,2.1568,2.1869,2.2355,2.2919,2.3173,2.3224,2.3224,2.3207,2.3376,2.3917,2.4188,2.4002,2.4557,2.4695,2.5118,2.5456,2.5881,2.632,2.6354,2.6455,2.659,2.6708,2.6708,2.6708,2.6708,2.6708,2.6708,2.6708,2.6708,2.6708,2.6708,2.6708,2.6708,2.6708,2.6708,2.6708,2.6708,2.6708,2.6708,2.659,2.6472,2.6303,2.5362,2.482,2.4169,2.2769,2.1889,2.1724,2.1809,2.2017,2.2289,2.242,2.2802,2.3131,2.3161,2.3221,2.3131,2.2847,2.2727,2.2996,2.3046,2.302,2.3137,2.3044,2.3206,2.3236,2.3146,2.3131,2.3161,2.3056,2.2727,2.2099,2.1769,2.162,2.1799,2.1874,2.1904,2.2024,2.2128,2.2323,2.2473,2.2577,2.2697,2.2996,2.3355,2.2996,2.2607,2.1979,2.1302,2.0694,2.005,1.9566,1.9034,1.8386,1.7867,1.7517,1.7284,1.7188,1.7558,1.7987,1.8302,1.8574,1.908,1.9566,1.9654,1.9705,1.9705,1.9705,1.9705,1.9705,1.9803,2.007,2.0499,2.0894,2.1323,2.1764,2.2308,2.2811,2.3257,2.363,2.3866,2.3951,2.3951,2.4154,2.4712,2.4814,2.4709,2.5268,2.5524,2.5744,2.5964,2.6319,2.6607,2.6691,2.6708,2.6708,2.6708,2.6708,2.6708,2.6708,2.6708,2.6708,2.6708,2.6708,2.6708,2.6708,2.6708,2.6708,2.6708,2.6708,2.6708,2.6708,2.6708,2.6708,2.6708,2.659,2.6245,2.5582,2.5128,2.4453,2.3651,2.2652,2.2637,2.2622,2.2757,2.3086,2.3146,2.3295,2.3505,2.361,2.3804,2.3864,2.361,2.334,2.3505,2.3595,2.3595,2.3507,2.361,2.3595,2.3595,2.3595,2.3595,2.3595,2.3595,2.3161,2.2607,2.2398,2.2398,2.2667,2.2652,2.2488,2.2503,2.2607,2.2817,2.3056,2.3131,2.3191,2.334,2.355,2.3295,2.2951,2.2547,2.1964,2.1391,2.0971,2.0426,1.9948,1.9366,1.8775,1.833,1.808,1.7936,1.7947,1.8302,1.8612,1.8968,1.9317,1.9603,1.969,1.9705,1.9705,1.9705,1.9705,1.9705,1.9747,1.996,2.0565,2.1087,2.1438,2.2073,2.2866,2.3579,2.3833,2.4222,2.4628,2.4879,2.4929,2.4845,2.5473,2.549,2.5372,2.6015,2.6302,2.615,2.6319,2.6674,2.6657,2.6708,2.6708,2.6708,2.6708,2.6708,2.6708,2.6708,2.6708,2.6708,2.6708,2.6708,2.6708,2.6708,2.6708,2.6708,2.6708,2.6708,2.6708,2.6708,2.6708,2.6708,2.6708,2.6539,2.6139,2.5598,2.5028,2.4552,2.3948,2.3595,2.3595,2.3595,2.3595,2.358,2.3565,2.361,2.3894,2.3834,2.4193,2.4448,2.4268,2.3834,2.3804,2.3834,2.3744,2.3684,2.3729,2.3714,2.3595,2.3595,2.3595,2.3595,2.3595,2.3595,2.3236,2.3098,2.3041,2.3176,2.3206,2.2996,2.3011,2.3116,2.3161,2.337,2.3415,2.346,2.3505,2.3535,2.337,2.3176,2.3086,2.2547,2.2039,2.1774,2.1446,2.0996,2.0499,1.9953,1.9522,1.9147,1.9009,1.8849,1.8664,1.9006,1.9317,1.953,1.9639,1.969,1.9705,1.9705,1.9705,1.9726,1.9705,1.9894,2.0212,2.0398,2.1229,2.2422,2.2644,2.331,2.4408,2.5,2.5287,2.5558,2.6082,2.5981,2.5845,2.6082,2.6353,2.6234,2.6522,2.6623,2.6539,2.6623,2.6776,2.6793,2.6742,2.6708,2.6843,2.686,2.6708,2.6708,2.6708,2.6708,2.6708,2.6708,2.6708,2.6708,2.6708,2.6708,2.6708,2.6708,2.6708,2.6759,2.6776,2.681,2.6843,2.6843,2.6725,2.6505,2.5709,2.5221,2.4934,2.4116,2.3724,2.3595,2.3595,2.3595,2.361,2.3699,2.3996,2.4372,2.4462,2.4866,2.5061,2.4971,2.4597,2.4507,2.4507,2.4313,2.4059,2.4208,2.4103,2.3984,2.3909,2.3834,2.3759,2.3879,2.3849,2.3699,2.346,2.343,2.349,2.3505,2.352,2.3565,2.3595,2.3595,2.3595,2.3595,2.3595,2.3595,2.3595,2.3445,2.3385,2.3295,2.3071,2.2592,2.2488,2.2323,2.1824,2.1401,2.1421,2.0951,2.048,1.9967,1.9624,1.9511,1.9612,1.9722,1.9907,1.9854,1.969,1.9705,1.9705,2.1027,2.0035,1.9782,1.9929,2.0361,2.1025,2.1843,2.2716,2.3429,2.4252,2.5036,2.5439,2.5812,2.6201,2.6607,2.6505,2.6336,2.6573,2.6691,2.6742,2.6759,2.6742,2.6691,2.6742,2.6826,2.7198,2.7029,2.7385,2.7418,2.7114,2.6708,2.6759,2.6725,2.6708,2.6776,2.6725,2.6708,2.6708,2.6708,2.6708,2.6708,2.6742,2.6911,2.7283,2.7317,2.7334,2.7334,2.7334,2.7097,2.6741,2.5997,2.5933,2.5912,2.5381,2.4879,2.5748,2.5438,2.4798,2.3861,2.4028,2.4549,2.4969,2.5213,2.5315,2.557,2.5674,2.548,2.5196,2.5181,2.4986,2.4777,2.5001,2.4956,2.4807,2.4537,2.4582,2.4492,2.4253,2.4223,2.4044,2.3879,2.3819,2.3714,2.3681,2.3666,2.358,2.3595,2.3595,2.3595,2.3595,2.3595,2.3595,2.3595,2.3565,2.3535,2.349,2.346,2.3146,2.3161,2.2921,2.2488,2.2218,2.2158,2.1889,2.1307,2.0818,2.0445,2.0286,2.0273,2.0266,2.0288,2.0228,2.0124,1.972,1.972,2.2513,2.1185,2.0736,2.0806,2.1284,2.2179,2.2933,2.3566,2.4385,2.5186,2.571,2.5913,2.6234,2.659,2.6691,2.6657,2.6674,2.6877,2.6962,2.6996,2.7165,2.7368,2.7453,2.7419,2.7637,2.8106,2.7722,2.796,2.8213,2.801,2.7435,2.7249,2.7199,2.708,2.7012,2.7063,2.7148,2.7452,2.7182,2.7063,2.708,2.7266,2.7503,2.7774,2.7994,2.8129,2.8112,2.8112,2.7774,2.745,2.6925,2.6911,2.7077,2.651,2.6283,2.6809,2.6677,2.608,2.5272,2.5157,2.5461,2.5991,2.6423,2.6749,2.6468,2.6723,2.6549,2.5916,2.5869,2.5779,2.5674,2.5674,2.5644,2.554,2.5435,2.5555,2.5601,2.5258,2.4912,2.4717,2.4492,2.4088,2.3983,2.3872,2.3782,2.3638,2.3595,2.3595,2.3625,2.364,2.3595,2.3595,2.3595,2.3595,2.3595,2.3595,2.3595,2.3595,2.3595,2.3475,2.2996,2.2832,2.2787,2.2443,2.2039,2.1819,2.1505,2.1212,2.0946,2.0961,2.0932,2.0797,2.0587,2.0124,1.9779,2.3786,2.3605,2.3167,2.3169,2.3506,2.372,2.4364,2.5124,2.5407,2.5913,2.6454,2.6573,2.6573,2.6674,2.6708,2.6725,2.6776,2.7435,2.7638,2.796,2.8383,2.8556,2.8539,2.8554,2.8718,2.8881,2.8566,2.8653,2.9028,2.8975,2.8755,2.8755,2.8112,2.7841,2.7757,2.7757,2.8027,2.823,2.801,2.7757,2.7926,2.818,2.8433,2.8163,2.8535,2.8943,2.8943,2.889,2.8738,2.8552,2.8106,2.8014,2.8064,2.7583,2.7524,2.7874,2.7856,2.748,2.7195,2.6718,2.7036,2.7898,2.8478,2.8509,2.8,2.7597,2.721,2.6864,2.6881,2.6559,2.6314,2.6096,2.6561,2.6517,2.6596,2.6581,2.6473,2.6122,2.5803,2.5498,2.5152,2.4852,2.4611,2.4578,2.3932,2.3743,2.3625,2.3625,2.3729,2.3744,2.364,2.3595,2.3595,2.3595,2.3595,2.3595,2.3595,2.3595,2.3595,2.3595,2.346,2.3385,2.3236,2.3131,2.2787,2.2697,2.2562,2.2188,2.1889,2.171,2.1575,2.1425,2.1066,2.0572,2.0213,2.5614,2.5598,2.5413,2.4796,2.3951,2.4364,2.4963,2.5627,2.6082,2.6404,2.6708,2.6708,2.6708,2.6708,2.6742,2.6979,2.7368,2.7638,2.8112,2.8484,2.8859,2.8975,2.8991,2.9161,2.9171,2.9484,2.9323,2.9617,3.0311,2.9888,3.0057,2.9871,2.9127,2.8687,2.8535,2.8501,2.8738,2.8839,2.8755,2.8552,2.8602,2.8772,2.9079,2.9336,2.9381,2.9661,2.969,2.9681,2.9431,2.9124,2.8858,2.9001,2.9209,2.8777,2.8918,2.9353,2.9223,2.9239,2.9222,2.8505,2.814,2.883,2.9512,2.9673,2.915,2.8788,2.8618,2.8419,2.8186,2.7829,2.8092,2.8154,2.8309,2.8059,2.7827,2.7704,2.7488,2.7225,2.7086,2.6902,2.635,2.5889,2.5649,2.5423,2.4579,2.3848,2.3729,2.3729,2.4026,2.4071,2.3996,2.3879,2.3894,2.3774,2.3759,2.3699,2.3625,2.364,2.3655,2.3595,2.3595,2.358,2.346,2.346,2.3445,2.3236,2.3071,2.2996,2.2772,2.2428,2.2203,2.2039,2.159,2.1051,2.0797,2.6708,2.6708,2.6708,2.5983,2.4863,2.5296,2.5682,2.5982,2.6454,2.6708,2.6708,2.6708,2.6843,2.6962,2.7063,2.7486,2.8095,2.8501,2.8873,2.9262,2.9583,2.9597,2.9664,2.9783,3.007,3.0207,3.0099,3.0328,3.097,3.0632,3.07,3.0632,3.0226,2.9702,2.9262,2.913,2.9197,2.9516,2.9397,2.933,2.933,2.9617,2.9655,3.0133,3.0226,3.0425,3.0415,3.0425,3.0226,2.9939,2.982,2.9973,3.0095,3.0213,3.0352,3.0677,3.0935,3.0814,3.0687,3.0268,2.9355,2.9702,3.0201,3.0166,2.9848,2.9673,2.9488,2.9236,2.9268,2.9406,2.9451,2.9175,2.9098,2.8724,2.8801,2.8709,2.8706,2.8519,2.8497,2.843,2.7747,2.7039,2.6851,2.6611,2.5929,2.5346,2.5428,2.533,2.5177,2.5028,2.4623,2.4461,2.4328,2.4148,2.3969,2.4059,2.4118,2.3984,2.3924,2.364,2.3595,2.361,2.361,2.355,2.355,2.358,2.349,2.331,2.3176,2.3026,2.2757,2.2443,2.2143,2.1665,2.15,2.6708,2.6708,2.6708,2.6657,2.6455,2.6607,2.6623,2.6556,2.6657,2.6708,2.6725,2.6759,2.7148,2.757,2.7689,2.8264,2.8941,2.955,2.9939,3.0125,3.0497,3.092,3.0954,3.0903,3.0768,3.1072,3.092,3.0869,3.119,3.1038,3.1123,3.1157,3.0852,3.0581,3.0057,2.9401,2.979,3.0768,3.0328,3.0217,3.0192,3.0581,3.0548,3.048,3.0717,3.0948,3.0948,3.0948,3.0818,3.0751,3.0734,3.0835,3.0898,3.0948,3.0993,3.1117,3.1219,3.1235,3.1185,3.1134,3.0814,3.0377,3.074,3.074,3.0393,3.0267,3.0123,2.9892,2.9673,2.9585,2.9496,2.9496,2.9585,2.9673,2.9717,2.9745,2.9724,2.9751,2.9675,2.9534,2.8947,2.8329,2.8089,2.7822,2.7311,2.6999,2.7121,2.6893,2.6388,2.5874,2.536,2.5017,2.4822,2.4777,2.4642,2.4582,2.4552,2.4448,2.4238,2.3999,2.3744,2.367,2.3655,2.361,2.3595,2.3595,2.3595,2.3565,2.343,2.3266,2.3011,2.2727,2.2488,2.2368,2.2263,2.6708,2.6708,2.6708,2.6708,2.6708,2.6708,2.6708,2.6708,2.6708,2.6708,2.6809,2.7179,2.7516,2.7855,2.845,2.9008,2.9685,2.9871,3.0226,3.0835,3.1106,3.114,3.119,3.119,3.119,3.119,3.119,3.119,3.119,3.1213,3.123,3.119,3.138,3.1072,3.0934,3.0708,3.1148,3.121,3.1117,3.1148,3.093,3.1077,3.1094,3.0823,3.1111,3.1247,3.1258,3.1292,3.1292,3.1309,3.1326,3.1343,3.1309,3.1292,3.1309,3.1393,3.1546,3.1918,3.1918,3.1884,3.1607,3.1268,3.1015,3.1112,3.0878,3.0878,3.074,3.0617,3.0435,3.0435,3.0601,3.0601,3.0658,3.0683,3.0699,3.0699,3.0723,3.0683,3.0657,3.0501,3.0088,2.9469,2.9119,2.9105,2.8702,2.8275,2.8288,2.7529,2.6872,2.6471,2.6041,2.5621,2.536,2.5375,2.5345,2.53,2.5239,2.5211,2.4852,2.4448,2.4193,2.3969,2.3714,2.367,2.3625,2.3595,2.3714,2.3774,2.364,2.346,2.3281,2.3176,2.3071,2.3086,2.3161,2.6708,2.6708,2.6708,2.6708,2.6708,2.6708,2.6708,2.6725,2.6962,2.708,2.7266,2.7851,2.8426,2.8718,2.9161,2.977,3.0429,3.0514,3.0598,3.1173,3.119,3.119,3.119,3.119,3.119,3.119,3.123,3.1269,3.1449,3.1428,3.1562,3.1746,3.1898,3.194,3.1802,3.1683,3.1573,3.1565,3.1683,3.1756,3.1588,3.1545,3.1582,3.1435,3.1445,3.1492,3.1557,3.1579,3.1579,3.163,3.1749,3.1765,3.1715,3.1799,3.1901,3.2154,3.2324,3.2662,3.2679,3.2662,3.2401,3.2131,3.1579,3.1224,3.119,3.1151,3.1151,3.1095,3.1224,3.119,3.1151,3.119,3.119,3.119,3.1151,3.1151,3.1112,3.1072,3.1072,3.0975,3.0878,3.0393,3.0081,3.0243,3.0162,2.9774,2.942,2.8443,2.7566,2.7333,2.6839,2.6242,2.6063,2.6168,2.6108,2.5959,2.5944,2.5944,2.551,2.4986,2.4717,2.4492,2.4103,2.3789,2.3954,2.4059,2.4014,2.3999,2.4044,2.3924,2.3684,2.3625,2.3625,2.3595,2.3595,2.6708,2.6708,2.6708,2.6708,2.6708,2.6708,2.6725,2.6826,2.7487,2.7794,2.7891,2.8668,2.9259,2.9905,3.0091,3.048,3.0954,3.1072,3.1123,3.1173,3.119,3.119,3.119,3.119,3.119,3.1207,3.1331,3.164,3.18,3.2182,3.2367,3.2721,3.3248,3.3212,3.2897,3.2511,3.2195,3.2109,3.2248,3.2248,3.1986,3.2144,3.2179,3.2106,3.2029,3.2183,3.2315,3.2388,3.2364,3.251,3.2865,3.2747,3.2763,3.3,3.322,3.3355,3.3322,3.344,3.344,3.3423,3.3271,3.2899,3.2104,3.1546,3.141,3.1546,3.1461,3.1444,3.1461,3.1309,3.1207,3.1207,3.119,3.119,3.119,3.119,3.119,3.1151,3.1151,3.1151,3.1151,3.0918,3.0838,3.0958,3.0821,3.0606,3.0194,2.9863,2.9083,2.8726,2.8091,2.6904,2.6811,2.7036,2.6916,2.6632,2.6617,2.6617,2.6063,2.557,2.53,2.5061,2.4747,2.4552,2.4522,2.4552,2.4612,2.4642,2.4657,2.4492,2.4343,2.3864,2.3804,2.364,2.3595,2.6708,2.6708,2.6708,2.6708,2.6708,2.6708,2.6979,2.7469,2.7726,2.8066,2.8687,2.9433,2.9926,3.0142,3.0649,3.097,3.1106,3.119,3.1173,3.119,3.119,3.119,3.1207,3.1224,3.1207,3.1393,3.1653,3.2055,3.2393,3.2848,3.3703,3.427,3.4495,3.4541,3.439,3.3981,3.3255,3.2798,3.3005,3.2755,3.2574,3.2677,3.2839,3.3037,3.2805,3.3052,3.3395,3.3216,3.3126,3.3186,3.3305,3.322,3.3203,3.2865,3.273,3.3423,3.3795,3.4184,3.4167,3.4184,3.4032,3.366,3.2983,3.2916,3.2662,3.2341,3.2036,3.1968,3.1952,3.1884,3.1698,3.1596,3.1579,3.1596,3.1529,3.1393,3.136,3.1241,3.1241,3.119,3.119,3.119,3.119,3.1151,3.1015,3.1015,3.0878,3.0617,3.0251,2.9805,2.8995,2.7756,2.7364,2.7534,2.746,2.72,2.7245,2.72,2.6662,2.6228,2.6019,2.5779,2.5465,2.53,2.527,2.527,2.5315,2.533,2.533,2.5315,2.5151,2.4507,2.3984,2.3969,2.3894,2.6708,2.6708,2.6708,2.6843,2.7063,2.6826,2.7402,2.8467,2.8403,2.8725,2.9482,3.0212,3.0533,3.0632,3.097,3.1173,3.1173,3.119,3.119,3.119,3.1224,3.119,3.1224,3.1461,3.1444,3.1664,3.2093,3.2689,3.3071,3.3997,3.4871,3.5077,3.548,3.5814,3.5805,3.5581,3.5108,3.4437,3.3985,3.3659,3.3521,3.3655,3.4239,3.4225,3.3952,3.4172,3.4515,3.4131,3.3872,3.3931,3.4015,3.41,3.4066,3.3677,3.3744,3.4438,3.4675,3.4928,3.4945,3.4928,3.4675,3.4336,3.3998,3.4032,3.3761,3.3423,3.3,3.273,3.2679,3.2594,3.2324,3.2087,3.2104,3.2121,3.1901,3.1664,3.1495,3.1343,3.1258,3.1207,3.119,3.119,3.119,3.119,3.119,3.1151,3.1015,3.0757,3.0477,3.0081,2.9316,2.8244,2.7969,2.7913,2.781,2.756,2.7515,2.744,2.726,2.6901,2.6722,2.6587,2.6378,2.6168,2.6004,2.6004,2.5989,2.6004,2.6004,2.5974,2.5839,2.527,2.4852,2.4777,2.4672,2.6708,2.6708,2.6708,2.7114,2.7655,2.7114,2.8044,2.9922,2.934,2.9509,3.0205,3.0869,3.1123,3.1055,3.1173,3.119,3.119,3.119,3.119,3.1224,3.1427,3.1444,3.1647,3.1952,3.211,3.2161,3.2747,3.3854,3.4067,3.503,3.5926,3.5814,3.6856,3.7241,3.6875,3.6923,3.6552,3.6029,3.5488,3.51,3.4963,3.5472,3.6138,3.5734,3.5361,3.5153,3.5314,3.5091,3.466,3.4914,3.4996,3.5081,3.481,3.4962,3.5284,3.5334,3.5301,3.5419,3.5436,3.5419,3.5487,3.5233,3.4996,3.4945,3.4658,3.4117,3.3609,3.3491,3.344,3.322,3.2949,3.2814,3.2797,3.2747,3.2577,3.2425,3.2307,3.2002,3.1613,3.1495,3.1275,3.1258,3.119,3.119,3.119,3.119,3.1112,3.0935,3.0757,3.0435,2.9585,2.8685,2.8367,2.814,2.776,2.756,2.756,2.753,2.7485,2.7365,2.7036,2.7111,2.732,2.6991,2.6662,2.6662,2.6662,2.6662,2.6647,2.6617,2.6408,2.5989,2.5749,2.5689,2.5375,2.6708,2.6708,2.6708,2.7131,2.7757,2.7638,2.8518,3.0057,2.9935,3.0222,3.0869,3.1089,3.119,3.119,3.119,3.119,3.119,3.119,3.119,3.1484,3.1738,3.2094,3.2235,3.2934,3.2995,3.3383,3.4163,3.5304,3.6096,3.6892,3.7482,3.7794,3.8322,3.8065,3.7881,3.793,3.7452,3.7184,3.6964,3.6439,3.6113,3.6113,3.638,3.6601,3.6588,3.6556,3.659,3.6295,3.6063,3.601,3.5664,3.5226,3.459,3.525,3.5267,3.5013,3.5368,3.5571,3.5639,3.5639,3.5639,3.5639,3.5436,3.5487,3.5233,3.4607,3.4269,3.4252,3.4134,3.388,3.3694,3.3609,3.3525,3.3423,3.3271,3.3186,3.3102,3.2594,3.2053,3.1799,3.1512,3.1393,3.1326,3.1241,3.119,3.119,3.119,3.1112,3.1055,3.0797,2.9995,2.9196,2.8654,2.8286,2.7894,2.756,2.756,2.756,2.753,2.7475,2.7355,2.743,2.7455,2.752,2.7335,2.73,2.7255,2.7355,2.734,2.7255,2.7115,2.6741,2.6879,2.6879,2.6336,2.6971,2.6987,2.7147,2.7863,2.8677,2.8322,2.9125,3.056,3.0302,3.0514,3.114,3.119,3.119,3.119,3.119,3.119,3.119,3.119,3.1461,3.1822,3.2315,3.2865,3.3328,3.3997,3.4142,3.4519,3.5177,3.6238,3.7523,3.7823,3.8026,3.8415,3.8528,3.8689,3.8634,3.823,3.7991,3.8028,3.7973,3.7698,3.7257,3.7367,3.7496,3.7814,3.7685,3.7602,3.731,3.6964,3.6522,3.6249,3.5854,3.5548,3.5182,3.5419,3.5385,3.5284,3.5402,3.5639,3.5639,3.5639,3.5639,3.5639,3.5639,3.5588,3.5571,3.5047,3.5013,3.4996,3.4996,3.4776,3.4759,3.4675,3.4658,3.459,3.4117,3.3795,3.3491,3.3051,3.2797,3.2713,3.2442,3.2239,3.2104,3.1816,3.1681,3.1207,3.1207,3.1309,3.1292,3.1478,3.0608,2.9895,2.9512,2.8747,2.8222,2.7845,2.756,2.756,2.761,2.7515,2.749,2.75,2.756,2.758,2.763,2.775,2.7765,2.7725,2.791,2.7923,2.7773,2.754,2.7725,2.7825,2.7357,2.7396,2.7426,2.7736,2.8782,2.9942,2.9106,2.9815,3.137,3.08,3.0637,3.114,3.119,3.119,3.119,3.1252,3.1213,3.1252,3.1351,3.172,3.2117,3.29,3.3408,3.4297,3.53,3.552,3.5723,3.6164,3.6791,3.7631,3.7929,3.815,3.8132,3.8332,3.8707,3.8707,3.8689,3.8579,3.8542,3.8524,3.8615,3.8652,3.8707,3.8579,3.8423,3.8216,3.7946,3.7596,3.7079,3.6498,3.6182,3.5898,3.5644,3.552,3.5554,3.5571,3.552,3.552,3.5639,3.5639,3.5639,3.5639,3.5639,3.5639,3.5622,3.5622,3.556,3.5526,3.5509,3.5509,3.5509,3.552,3.5504,3.5487,3.5436,3.4861,3.4455,3.4049,3.3643,3.3558,3.3525,3.3288,3.3051,3.2763,3.2476,3.2138,3.1613,3.1427,3.1461,3.1613,3.1928,3.1734,3.1166,3.0786,2.9922,2.8873,2.8363,2.8016,2.776,2.781,2.766,2.756,2.756,2.756,2.756,2.766,2.794,2.7974,2.791,2.8091,2.8475,2.8238,2.8073,2.8183,2.8247,2.8262,2.7765,2.7811,2.7869,2.8782,3.0057,2.9929,3.0587,3.1652,3.1595,3.1387,3.124,3.119,3.119,3.1213,3.1548,3.1565,3.1368,3.1576,3.1462,3.1567,3.3491,3.4071,3.4836,3.6362,3.697,3.7216,3.7319,3.779,3.8062,3.835,3.8546,3.8528,3.8546,3.8707,3.8707,3.8707,3.8707,3.8726,3.8817,3.8854,3.8781,3.8762,3.8707,3.8496,3.8183,3.798,3.7631,3.6904,3.6539,3.6224,3.5941,3.5711,3.5667,3.5667,3.5622,3.5694,3.5694,3.5639,3.5639,3.5639,3.5639,3.5639,3.5639,3.5639,3.5622,3.5622,3.5605,3.5605,3.5605,3.5605,3.5588,3.5588,3.5571,3.5571,3.525,3.5216,3.503,3.459,3.4286,3.41,3.3846,3.3609,3.3339,3.3169,3.3119,3.273,3.2628,3.2645,3.256,3.2688,3.2807,3.2412,3.1924,3.0798,2.9587,2.9045,2.8724,2.8327,2.81,2.8182,2.8082,2.764,2.7625,2.7991,2.8046,2.8164,2.8134,2.8881,2.8611,2.8867,2.8572,2.8462,2.8649,2.8865,2.9018]},{"header":{"parameterUnit":"m.s-1","parameterCategory":1,"la1":31.0,"la2":29.5877,"lo1":-88.7671,"lo2":-86.6584,"dy":0.0162,"dx":0.0185,"nx":115,"ny":88,"refTime":"2024-09-19T12:00:00:Z","depth":0,"parameterNumber":3,"parameterNumberName":"V-component_of_WINDS"},"data":[0.0,0.0,0.0,0.0,0.0,0.0,0.0,0.0,0.0,0.0,0.0,0.0,0.0,0.0,0.0,0.0,0.0,0.0,0.0,0.0,0.0,0.0,0.0,0.0,0.0,0.0,0.0,0.0,0.0,0.0,0.0,0.0,0.0,0.0,0.0,0.0,0.0,0.0,0.0,0.0,0.0,0.0,0.0,0.0,0.0,0.0,0.0,0.0,0.0,0.0,0.0,0.0,0.0,0.0,0.0,0.0,0.0,0.0,0.0,0.0,0.0,0.0,0.0,0.0,0.0,0.0,0.0,0.0,0.0,0.0,0.0,0.0,0.0,0.0,0.0,0.0,0.0,0.0,0.0,0.0,0.0,0.0,0.0,0.0,0.0,0.0,0.0,0.0,0.0,0.0,0.0,0.0,0.0,0.0,0.0,0.0,0.0,0.0,0.0,0.0,0.0,0.0,0.0,0.0,0.0,0.0,0.0,0.0,0.0,0.0,0.0,0.0,0.0,0.0,0.0,0.0,0.0,0.0,0.0,0.0,0.0,0.0,0.0,0.0,0.0,0.0,0.0,0.0,0.0,0.0,0.0,0.0,0.0,0.0,0.0,0.0,0.0,0.0,0.0,0.0,0.0,0.0,0.0,0.0,0.0,0.0,0.0,0.0,0.0,0.0,0.0,0.0,0.0,0.0,0.0,0.0,0.0,0.0,0.0,0.0,0.0,0.0,0.0,0.0,0.0,0.0,0.0,0.0,0.0,0.0,0.0,0.0,0.0,0.0,0.0,0.0,0.0,0.0,0.0,0.0,0.0,0.0,0.0,0.0,0.0,0.0,0.0,0.0,0.0,0.0,0.0,0.0,0.0,0.0,0.0,0.0,0.0,0.0,0.0,0.0,0.0,0.0,0.0,0.0,0.0,0.0,0.0,0.0,0.0,0.0,0.0,0.0,0.0,0.0,0.0,0.0,0.0,0.0,0.0,0.0,0.0,0.0,0.0,0.0,0.0,0.0,0.0,0.0,0.0,0.0,0.0,0.0,0.0,0.0,0.0,0.0,0.0,0.0,0.0,0.0,0.0,0.0,0.0,0.0,0.0,0.0,0.0,0.0,0.0,0.0,0.0,0.0,0.0,0.0,0.0,0.0,0.0,0.0,0.0,0.0,0.0,0.0,0.0,0.0,0.0,0.0,0.0,0.0,0.0,0.0,0.0,0.0,0.0,0.0,0.0,0.0,0.0,0.0,0.0,0.0,0.0,0.0,0.0,0.0,0.0,0.0,0.0,0.0,0.0,0.0,0.0,0.0,0.0,0.0,0.0,0.0,0.0,0.0,0.0,0.0,0.0,0.0,0.0,0.0,0.0,0.0,0.0,0.0,0.0,0.0,0.0,0.0,0.0,0.0,0.0,0.0,0.0,0.0,0.0,0.0,0.0,0.0,0.0,0.0,0.0,0.0,0.0,0.0,0.0,0.0,0.0,0.0,0.0,0.0,0.0,0.0,0.0,0.0,0.0,0.0,0.0,0.0,0.0,0.0,0.0,0.0,0.0,0.0,0.0,0.0,0.0,0.0,0.0,0.0,0.0,0.0,0.0,0.0,0.0,0.0,0.0,0.0,0.0,0.0,0.0,0.0,0.0,0.0,0.0,0.0,0.0,0.0,0.0,0.0,0.0,0.0,0.0,0.0,0.0,0.0,0.0,0.0,0.0,0.0,0.0,0.0,0.0,0.0,0.0,0.0,0.0,0.0,0.0,0.0,0.0,0.0,0.0,0.0,0.0,0.0,0.0,0.0,0.0,0.0,0.0,0.0,0.0,0.0,0.0,0.0,0.0,0.0,0.0,0.0,0.0,0.0,0.0,0.0,0.0,0.0,0.0,0.0,0.0,0.0,0.0,0.0,0.0,0.0,0.0,0.0,0.0,0.0,0.0,0.0,0.0,0.0,0.0,0.0,0.0,0.0,0.0,0.0,0.0,0.0,0.0,0.0,0.0,0.0,0.0,0.0,0.0,0.0,0.0,0.0,0.0,0.0,0.0,0.0,0.0,0.0,0.0,0.0,0.0,0.0,0.0,0.0,0.0,0.0,0.0,0.0,0.0,0.0,0.0,0.0,0.0,0.0,0.0,0.0,0.0,0.0,0.0,0.0,0.0,0.0,0.0,0.0,0.0,0.0,0.0,0.0,0.0,0.0,0.0,0.0,0.0,0.0,0.0,0.0,0.0,0.0,0.0,0.0,0.0,0.0,0.0,0.0,0.0,0.0,0.0,0.0,0.0,0.0,0.0,0.0,0.0,0.0,0.0,0.0,0.0,0.0,0.0,0.0,0.0,0.0,0.0,0.0,0.0,0.0,0.0,0.0,0.0,0.0,0.0,0.0,0.0,0.0,0.0,0.0,0.0,0.0,0.0,0.0,0.0,0.0,0.0,0.0,0.0,0.0,0.0,0.0,0.0,0.0,0.0,0.0,0.0,0.0,0.0,0.0,0.0,0.0,0.0,0.0,0.0,0.0,0.0,0.0,0.0,0.0,0.0,0.0,0.0,0.0,0.0,0.0,0.0,0.0,0.0,0.0,0.0,0.0,0.0,0.0,0.0,0.0,0.0,0.0,0.0,0.0,0.0,0.0,0.0,0.0,0.0,0.0,0.0,0.0,0.0,0.0,0.0,0.0,0.0,0.0,0.0,0.0,0.0,0.0,0.0,0.0,0.0,0.0,0.0,0.0,0.0,0.0,0.0,0.0,0.0,0.0,0.0,0.0,0.0,0.0,0.0,0.0,0.0,0.0,0.0,0.0,0.0,0.0,0.0,0.0,0.0,0.0,0.0,0.0,0.0,0.0,0.0,0.0,0.0,0.0,0.0,0.0,0.0,0.0,0.0,0.0,0.0,0.0,0.0,0.0,0.0,0.0,0.0,0.0,0.0,0.0,0.0,0.0,0.0,0.0,0.0,0.0,0.0,0.0,0.0,0.0,0.0,0.0,0.0,0.0,0.0,0.0,0.0,0.0,0.0,0.0,0.0,0.0,0.0,0.0,0.0,0.0,0.0,0.0,0.0,0.0,0.0,0.0,0.0,0.0,0.0,0.0,0.0,0.0,0.0,0.0,0.0,0.0,0.0,0.0,0.0,0.0,0.0,0.0,0.0,0.0,0.0,0.0,0.0,0.0,0.0,0.0,0.0,0.0,0.0,0.0,0.0,0.0,0.0,0.0,0.0,0.0,0.0,0.0,0.0,0.0,0.0,0.0,0.0,0.0,0.0,0.0,0.0,0.0,0.0,0.0,0.0,0.0,0.0,0.0,0.0,0.0,0.0,0.0,0.0,0.0,0.0,0.0,0.0,0.0,0.0,0.0,0.0,0.0,0.0,0.0,0.0,0.0,0.0,0.0,0.0,0.0,0.0,0.0,0.0,0.0,0.0,0.0,0.0,0.0,0.0,0.0,0.0,0.0,0.0,0.0,0.0,0.0,0.0,0.0,0.0,0.0,0.0,0.0,0.0,0.0,0.0,0.0,0.0,0.0,0.0,0.0,0.0,0.0,0.0,0.0,0.0,0.0,0.0,0.0,0.0,0.0,0.0,0.0,0.0,0.0,0.0,0.0,0.0,0.0,0.0,0.0,0.0,0.0,0.0,0.0,0.0,0.0,0.0,0.0,0.0,0.0,0.0,0.0,0.0,0.0,0.0,0.0,0.0,0.0,0.0,0.0,0.0,0.0,0.0,0.0,0.0,0.0,0.0,0.0,0.0,0.0,0.0,0.0,0.0,0.0,0.0,0.0,0.0,0.0,0.0,0.0,0.0,0.0,0.0,0.0,0.0,0.0,0.0,0.0,0.0,0.0,0.0,0.0,0.0,0.0,0.0,0.0,0.0,0.0,0.0,0.0,0.0,0.0,0.0,0.0,0.0,0.0,0.0,0.0,0.0,0.0,0.0,0.0,0.0,0.0,0.0,0.0,0.0,0.0,0.0,0.0,0.0,0.0,0.0,0.0,0.0,0.0,0.0,0.0,0.0,0.0,0.0,0.0,0.0,0.0,0.0,0.0,0.0,0.0,0.0,0.0,0.0,0.0,0.0,0.0,0.0,0.0,0.0,0.0,0.0,0.0,0.0,0.0,0.0,0.0,0.0,0.0,0.0,0.0,0.0,0.0,0.0,0.0,0.0,0.0,0.0,0.0,0.0,0.0,0.0,0.0,0.0,0.0,0.0,0.0,0.0,0.0,0.0,0.0,0.0,0.0,0.0,0.0,0.0,0.0,0.0,0.0,0.0,0.0,0.0,0.0,0.0,0.0,0.7901,0.0,0.0,0.0,0.0,0.0,0.0,0.0,0.0,0.0,0.0,0.0,0.0,0.0,0.0,0.0,0.0,0.0,0.0,0.0,0.0,0.0,0.0,0.0,0.0,0.0,0.0,0.0,0.0,0.0,0.0,0.0,0.0,0.0,0.0,0.0,0.0,0.0,0.0,0.0,0.0,0.0,0.0,0.0,0.0,0.0,0.0,0.0,0.0,0.0,0.0,0.0,0.0,0.0,0.0,0.0,0.0,0.0,0.0,0.0,0.0,0.0,0.0,0.0,0.0,0.0,0.0,0.0,0.0,0.0,0.0,0.0,0.0,0.0,0.0,0.0,0.0,0.0,0.0,0.0,0.0,0.0,0.0,0.0,0.0,0.0,0.0,0.0,0.0,0.0,0.0,0.0,0.0,0.0,0.0,0.0,0.0,0.0,0.0,0.0,0.0,0.0,0.0,0.0,0.0,0.0,0.0,0.0,0.0,0.0,0.0,0.8949,0.8896,0.8415,0.8209,0.848,0.0,0.0,0.0,0.0,0.0,0.0,0.0,0.0,0.0,0.0,0.0,0.0,0.0,0.0,0.0,0.0,0.0,0.0,0.0,0.0,0.0,0.0,0.0,0.0,0.0,0.0,0.0,0.0,0.0,0.0,0.0,0.0,0.0,0.0,0.0,0.0,0.0,0.0,0.0,0.0,0.0,0.0,0.0,0.0,0.0,0.0,0.0,0.0,0.0,0.0,0.0,0.0,0.0,0.0,0.0,0.0,0.0,0.0,0.0,0.0,0.0,0.0,0.0,0.0,0.0,0.0,0.0,0.0,0.0,0.0,0.0,0.0,0.0,0.0,0.0,0.0,0.0,0.0,0.0,0.0,0.0,0.0,0.0,0.0,0.0,0.0,0.0,0.0,0.0,0.0,0.0,0.0,0.0,0.0,0.0,0.0,0.0,0.0,0.0,0.0,0.0,0.0,0.0,0.0,0.0,0.0,0.0,0.0,0.0,0.0,0.0,0.0,0.889,0.8705,0.8756,0.0,0.0,0.0,0.0,0.0,0.0,0.0,0.0,0.0,0.0,0.0,0.0,0.0,0.0,0.0,0.0,0.0,0.0,0.0,0.0,0.0,0.0,0.0,0.0,0.0,0.0,0.0,0.0,0.0,0.0,0.0,0.0,0.0,0.0,0.0,0.0,0.0,0.0,0.0,0.0,0.0,0.0,0.0,0.0,0.0,0.0,0.0,0.0,0.0,0.0,0.0,0.0,0.0,0.0,0.0,0.0,0.0,0.0,0.0,0.0,0.0,0.0,0.0,0.0,0.0,0.0,0.0,0.0,0.0,0.0,0.0,0.0,0.0,0.0,0.0,0.0,0.0,0.0,0.0,0.0,0.0,0.0,0.0,0.0,0.0,0.0,0.0,0.0,0.0,0.0,0.0,0.0,0.0,0.0,0.0,0.0,0.0,0.0,0.0,0.0,0.0,0.0,0.0,0.0,0.0,0.0,0.0,0.0,0.0,0.0,0.9204,0.9204,0.9054,0.0,0.812,0.0,0.0,0.0,0.0,0.0,0.0,0.0,0.0,0.0,0.0,0.0,0.0,0.0,0.0,0.0,0.0,0.0,0.0,0.0,0.0,0.0,0.0,0.0,0.0,0.0,0.0,0.0,0.0,0.0,0.0,0.0,0.0,0.0,0.0,0.0,0.0,0.0,0.0,0.0,0.0,0.0,0.0,0.0,0.0,0.0,0.0,0.0,0.0,0.0,0.0,0.0,0.0,0.0,0.0,0.0,0.0,0.0,0.0,0.0,0.0,0.0,0.0,0.0,0.0,0.0,0.0,0.0,0.0,0.0,0.0,0.0,0.0,0.0,0.0,0.0,0.0,0.0,0.0,0.0,0.0,0.0,0.0,0.0,0.0,0.0,0.0,0.0,0.0,0.0,0.0,0.0,0.0,0.0,0.0,0.0,0.0,0.0,0.0,0.0,0.0,0.0,0.0,0.0,0.0,0.0,0.0,0.0,0.0,0.0,0.0,0.0,0.9413,0.9472,0.9064,0.0,0.0,0.0,0.0,0.0,0.0,0.0,0.0,0.0,0.0,0.0,0.0,0.0,0.0,0.0,0.0,0.0,0.0,0.0,0.0,0.0,0.0,0.0,0.0,0.0,0.0,0.0,0.0,0.0,0.0,0.0,0.0,0.0,0.0,0.0,0.0,0.0,0.0,0.0,0.0,0.0,0.0,0.0,0.0,0.0,0.0,0.0,0.0,0.0,0.0,0.0,0.0,0.0,0.0,0.0,0.0,0.0,0.0,0.0,0.0,0.0,0.0,0.0,0.0,0.0,0.0,0.0,0.0,0.0,0.0,0.0,0.0,0.0,0.0,0.0,0.0,0.0,0.0,0.0,0.0,0.0,0.0,0.0,0.0,0.0,0.0,0.0,0.0,0.0,0.0,0.0,0.0,0.0,0.0,0.0,0.0,0.0,0.0,0.0,0.0,0.0,0.0,0.0,0.0,0.0,0.0,0.0,0.0,0.0,0.0,0.9673,0.0,0.9769,0.9805,0.9343,0.8378,0.0,0.0,0.0,0.0,0.0,0.0,0.0,0.0,0.0,0.0,0.0,0.0,0.0,0.0,0.0,0.0,0.0,0.0,0.0,0.0,0.0,0.0,0.0,0.0,0.0,0.0,0.0,0.0,0.0,0.0,0.0,0.0,0.0,0.0,0.0,0.0,0.0,0.0,0.0,0.0,0.0,0.0,0.0,0.0,0.0,0.0,0.0,0.0,0.0,0.0,0.0,0.0,0.0,0.0,0.0,0.0,0.0,0.0,0.0,0.0,0.0,0.0,0.0,0.0,0.0,0.0,0.0,0.0,0.0,0.0,0.0,0.0,0.0,0.0,0.0,0.0,0.0,0.0,0.0,0.0,0.0,0.0,0.0,0.0,0.0,0.0,0.0,0.0,0.0,0.0,0.0,0.0,0.0,0.0,0.0,0.0,0.0,0.0,0.0,0.0,0.0,0.0,0.0,0.0,0.0,0.0,0.0,0.0,0.0,0.9614,0.9829,1.0257,0.9945,0.9257,0.0,0.0,0.0,0.0,0.0,0.0,0.0,0.0,0.0,0.0,0.0,0.0,0.0,0.0,0.0,0.0,0.0,0.0,0.0,0.0,0.0,0.0,0.0,0.0,0.0,0.0,0.0,0.0,0.0,0.0,0.0,0.0,0.0,0.0,0.0,0.0,0.0,0.0,0.0,0.0,0.0,0.0,0.0,0.0,0.0,0.0,0.0,0.0,0.0,0.0,0.0,0.0,0.0,0.0,0.0,0.0,0.0,0.0,0.0,0.0,0.0,0.0,0.0,0.0,0.0,0.0,0.0,0.0,0.0,0.0,0.0,0.0,0.0,0.0,0.0,0.0,0.0,0.0,0.0,0.0,0.0,0.0,0.0,0.0,0.0,0.0,0.0,0.0,0.0,0.0,0.0,0.0,0.0,0.0,0.0,0.0,0.0,0.0,0.0,0.0,0.0,0.0,0.0,0.0,0.0,0.0,0.0,0.0,0.0,0.9614,0.9614,0.9777,1.0095,0.9665,0.8985,0.0,0.0,0.0,0.0,0.0,0.0,0.0,0.0,0.0,0.0,0.0,0.0,0.0,0.0,0.0,0.0,0.0,0.0,0.0,0.0,0.0,0.0,0.0,0.0,0.0,0.0,0.0,0.0,0.0,0.0,0.0,0.0,0.0,0.0,0.0,0.0,0.0,0.0,0.0,0.0,0.0,0.0,0.0,0.0,0.0,0.0,0.0,0.0,0.0,0.0,0.0,0.0,0.0,0.0,0.0,0.0,0.0,0.0,0.0,0.0,0.0,0.0,0.0,0.0,0.0,0.0,0.0,0.0,0.0,0.0,0.0,0.0,0.0,0.0,0.0,0.0,0.0,0.0,0.0,0.0,0.0,0.0,0.0,0.0,0.0,0.0,0.0,0.0,0.0,0.0,0.0,0.0,0.0,0.0,0.0,0.0,0.0,0.0,0.0,0.0,0.0,0.0,0.0,0.0,0.0,0.0,0.0,0.0,0.0,0.9621,0.0,0.9718,0.0,0.9311,0.8587,0.0,0.0,0.0,0.0,0.0,0.0,0.0,0.0,0.0,0.0,0.0,0.0,0.0,0.0,0.0,0.0,0.0,0.0,0.0,0.0,0.0,0.0,0.0,0.0,0.0,0.0,0.0,0.0,0.0,0.0,0.0,0.0,0.0,0.0,0.0,0.0,0.0,0.0,0.0,0.0,0.0,0.0,0.0,0.0,0.0,0.0,0.0,0.0,0.0,0.0,0.0,0.0,0.0,0.0,0.0,0.0,0.0,0.0,0.0,0.0,0.0,0.0,0.0,0.0,0.0,0.0,0.0,0.0,0.0,0.0,0.0,0.0,0.0,0.0,0.0,0.0,0.0,0.0,0.0,0.0,0.0,0.0,0.0,0.0,0.0,0.0,0.0,0.0,0.0,0.0,0.0,0.0,0.0,0.0,0.0,0.0,0.0,0.0,0.0,0.0,0.0,0.0,0.0,0.0,0.0,0.0,0.0,0.0,0.974,0.9614,0.9658,0.971,0.9747,0.8909,0.8139,0.0,0.0,0.0,0.0,0.0,0.0,0.0,0.0,0.0,0.0,0.0,0.0,0.0,0.0,0.0,0.0,0.0,0.0,0.0,0.0,0.0,0.0,0.0,0.0,0.0,0.0,0.0,0.0,0.0,0.0,0.0,0.0,0.0,0.0,0.0,0.0,0.0,0.0,0.0,0.0,0.0,0.0,0.0,0.0,0.0,0.0,0.0,0.0,0.0,0.0,0.0,0.0,0.0,0.0,0.0,0.0,0.0,0.0,0.0,0.0,0.0,0.0,0.0,0.0,0.0,0.0,0.0,0.0,0.0,0.0,0.0,0.0,0.0,0.0,0.0,0.0,0.0,0.0,0.0,0.0,0.0,0.0,0.0,0.0,0.0,0.0,0.0,0.0,0.0,0.0,0.0,0.0,0.0,0.0,0.0,0.0,0.0,0.0,0.0,0.0,0.0,0.0,0.0,0.0,0.0,0.0,0.0,0.0,0.0,0.9309,0.8856,0.8534,0.8311,0.7227,0.6475,0.0,0.0,0.0,0.0,0.0,0.0,0.0,0.0,0.0,0.0,0.0,0.0,0.0,0.0,0.0,0.0,0.0,0.0,0.0,0.0,0.0,0.0,0.0,0.0,0.0,0.0,0.0,0.0,0.0,0.0,0.0,0.0,0.0,0.0,0.0,0.0,0.0,0.0,0.0,0.0,0.0,0.0,0.0,0.0,0.0,0.0,0.0,0.0,0.0,0.0,0.0,0.0,0.0,0.0,0.0,0.0,0.0,0.0,0.0,0.0,0.0,0.0,0.0,0.0,0.0,0.0,0.0,0.0,0.0,0.0,0.0,0.0,0.0,0.0,0.0,0.0,0.0,0.0,0.0,0.0,0.0,0.0,0.0,0.0,0.0,0.0,0.0,0.0,0.0,0.0,0.0,0.0,0.0,0.0,0.0,0.0,0.0,0.0,0.0,0.0,0.0,0.0,0.0,0.0,0.0,0.0,0.0,0.0,0.0,0.8443,0.7454,0.7061,0.7267,0.5467,0.4727,0.5211,0.0,0.0,0.0,0.0,0.0,0.0,0.0,0.0,0.0,0.0,0.0,0.0,0.0,0.0,0.0,0.0,0.0,0.0,0.0,0.0,0.0,0.0,0.0,0.0,0.0,0.0,0.0,0.0,0.0,0.0,0.0,0.0,0.0,0.0,0.0,0.0,0.0,0.0,0.0,0.0,0.0,0.0,0.0,0.0,0.0,0.0,0.0,0.0,0.0,0.0,0.0,0.0,0.0,0.0,0.0,0.0,0.0,0.0,0.0,0.0,0.0,0.0,0.0,0.0,0.0,0.0,0.0,0.0,0.0,0.0,0.0,0.0,0.0,0.0,0.0,0.0,0.0,0.0,0.0,0.0,0.0,0.0,0.0,0.0,0.0,0.0,0.0,0.0,0.0,0.0,0.0,0.0,0.0,0.0,0.0,0.0,0.0,0.0,0.0,0.0,0.0,0.0,0.0,0.0,0.0,0.0,0.0,0.0,0.7019,0.5526,0.5177,0.5995,0.3346,0.264,0.0,0.0,0.0,0.0,0.0,0.0,0.0,0.0,0.0,0.0,0.0,0.0,0.0,0.0,0.0,0.0,0.0,0.0,0.0,0.0,0.0,0.0,0.0,0.0,0.0,0.0,0.0,0.0,0.0,0.0,0.0,0.0,0.0,0.0,0.0,0.0,0.0,0.0,0.0,0.0,0.0,0.0,0.0,0.0,0.0,0.0,0.0,0.0,0.0,0.0,0.0,0.0,0.0,0.0,0.0,0.0,0.0,0.0,0.0,0.0,0.0,0.0,0.0,0.0,0.0,0.0,0.0,0.0,0.0,0.0,0.0,0.0,0.0,0.0,0.0,0.0,0.0,0.0,0.0,0.0,0.0,0.0,0.0,0.0,0.0,0.0,0.0,0.0,0.0,0.0,0.0,0.0,0.0,0.0,0.0,0.0,0.0,0.0,0.0,0.0,0.0,0.0,0.0,0.0,0.0,0.0,0.0,0.0,0.0,0.7162,0.3765,0.1519,0.0481,-0.0873,-0.1043,0.0,0.0,0.0,0.0,0.0,0.0,0.0,0.0,0.0,0.0,0.0,0.0,0.0,0.0,0.0,0.0,0.0,0.0,0.0,0.0,0.0,0.0,0.0,0.0,0.0,0.0,0.0,0.0,0.0,0.0,0.0,0.0,0.0,0.0,0.0,0.0,0.0,0.0,0.0,0.0,0.0,0.0,0.0,0.0,0.0,0.0,0.0,0.0,0.0,0.0,0.0,0.0,0.0,0.0,0.0,0.0,0.0,0.0,0.0,0.0,0.0,0.0,0.0,0.0,0.0,0.0,0.0,0.0,0.0,0.0,0.0,0.0,0.0,0.0,0.0,0.0,0.0,0.0,0.0,0.0,0.0,0.0,0.0,0.0,0.0,0.0,0.0,0.0,0.0,0.0,0.0,0.0,0.0,0.0,0.0,0.0,0.0,0.0,0.0,0.0,0.0,0.0,0.0,0.0,0.0,0.0,0.0,0.0,1.1443,0.7762,0.3002,-0.1059,-0.4404,-0.5198,-0.4702,0.0,0.0,0.0,0.0,0.0,0.0,0.0,0.0,0.0,0.0,0.0,0.0,0.0,0.0,0.0,0.0,0.0,0.0,0.0,0.0,0.0,0.0,0.0,0.0,0.0,0.0,0.0,0.0,0.0,0.0,0.0,0.0,0.0,0.0,0.0,0.0,0.0,0.0,0.0,0.0,0.0,0.0,0.0,0.0,0.0,0.0,0.0,0.0,0.0,0.0,0.0,0.0,0.0,0.0,0.0,0.0,0.0,0.0,0.0,0.0,0.0,0.0,0.0,0.0,0.0,0.0,0.0,0.0,0.0,0.0,0.0,0.0,0.0,0.0,0.0,0.0,0.0,0.0,0.0,0.0,0.0,0.0,0.0,0.0,0.0,0.0,0.0,0.0,0.0,0.0,0.0,0.0,0.0,0.0,0.0,0.0,0.0,0.0,0.0,0.0,0.0,0.0,0.0,0.0,0.0,0.0,0.0,0.0,1.1573,0.8252,0.2845,-0.2599,-0.7921,-0.8837,-0.78,0.0,0.0,0.0,0.0,0.0,0.0,0.0,0.0,0.0,0.0,0.0,0.0,0.0,0.0,0.0,0.0,0.0,0.0,0.0,0.0,0.0,0.0,0.0,0.0,0.0,0.0,0.0,0.0,0.0,0.0,0.0,0.0,0.0,0.0,0.0,0.0,0.0,0.0,0.0,0.0,0.0,0.0,0.0,0.0,0.0,0.0,0.0,0.0,0.0,0.0,0.0,0.0,0.0,0.0,0.0,0.0,0.0,0.0,0.0,0.0,0.0,0.0,0.0,0.0,0.0,0.0,0.0,0.0,0.0,0.0,0.0,0.0,0.0,0.0,0.0,0.0,0.0,0.0,0.0,0.0,0.0,0.0,0.0,0.0,0.0,0.0,0.0,0.0,0.0,0.0,0.0,0.0,0.0,0.0,0.0,0.0,0.0,0.0,0.0,0.0,0.0,0.0,0.0,0.0,0.0,0.0,0.0,0.0,0.9882,0.5817,0.2097,-0.2319,-0.7468,-0.8267,-0.7965,0.0,0.0,0.0,0.0,0.0,0.0,0.0,0.0,0.0,0.0,0.0,0.0,0.0,0.0,0.0,0.0,0.0,0.0,0.0,0.0,0.0,0.0,0.0,0.0,0.0,0.0,0.0,0.0,0.0,0.0,0.0,0.0,0.0,0.0,0.0,0.0,0.0,0.0,0.0,0.0,0.0,0.0,0.0,0.0,0.0,0.0,0.0,0.0,0.8626,0.0,0.0,0.0,0.0,0.0,0.0,0.0,0.0,0.0,0.0,0.0,0.0,0.0,0.0,0.0,0.0,0.0,0.0,0.0,0.0,0.0,0.0,0.0,0.0,0.0,0.0,0.0,0.0,0.0,0.0,0.0,0.0,0.0,0.0,0.0,0.0,0.0,0.0,0.0,0.0,0.0,0.0,0.0,0.0,0.0,0.0,0.0,0.0,0.0,0.0,0.0,0.0,0.0,0.0,0.0,0.0,0.0,0.0,0.0,0.9426,0.5227,0.1744,-0.248,-0.732,-0.7903,-0.804,0.0,0.0,0.0,0.0,0.0,0.0,0.0,0.0,0.0,0.0,0.0,0.0,0.0,0.0,0.0,0.0,0.0,0.0,0.0,0.0,0.0,0.0,0.0,0.0,0.0,0.0,0.0,0.0,0.0,0.0,0.0,0.0,0.0,0.0,0.0,0.0,0.0,0.0,0.0,0.0,0.0,0.0,0.0,0.0,0.0,0.0,0.0,0.0,0.0,0.0,0.0,0.0,0.0,0.0,0.0,0.0,0.0,0.0,0.0,0.0,0.0,0.0,0.0,0.0,0.0,0.0,0.0,0.0,0.0,0.0,0.0,0.0,0.0,0.0,0.0,0.0,0.0,0.0,0.0,0.0,0.0,0.0,0.0,0.0,0.0,0.0,0.0,0.0,0.0,0.0,0.0,0.0,0.0,0.0,0.0,0.0,0.0,0.0,0.0,0.0,0.0,0.0,0.0,0.0,0.0,0.0,0.0,1.2799,0.9538,0.5049,0.1359,-0.2775,-0.7311,-0.7569,-0.7984,-0.8651,0.0,0.0,0.0,0.0,0.0,0.0,0.0,0.0,0.0,0.0,0.0,0.0,0.0,0.0,0.0,0.0,0.0,0.0,0.0,0.0,0.0,0.0,0.0,0.0,0.0,0.0,0.0,0.0,0.0,0.0,0.0,0.0,0.0,0.0,0.0,0.0,0.0,0.0,1.1267,1.0889,0.0,0.0,0.0,0.0,0.0,0.0,0.0,0.0,0.761,0.0,0.0,0.0,0.0,0.0,0.0,0.0,0.0,0.0,0.0,0.0,0.0,0.0,0.0,0.0,0.0,0.0,0.0,0.0,0.0,0.0,0.0,0.0,0.0,0.0,0.0,0.0,0.0,0.0,0.0,0.0,0.0,0.0,0.0,0.0,0.0,0.0,0.0,0.0,0.0,0.0,0.0,0.0,0.0,0.0,0.0,0.0,0.0,0.0,0.0,0.0,0.0,0.0,0.0,0.0,0.0,1.4101,1.2888,0.9388,0.3508,0.0305,-0.2853,-0.6013,-0.6749,-0.7696,-0.8756,0.0,0.0,0.0,0.0,0.0,0.0,0.0,0.0,0.0,0.0,0.0,0.0,0.0,0.0,0.0,0.0,0.0,0.0,0.0,0.0,0.0,0.0,0.0,0.0,0.0,0.0,0.0,0.0,0.0,0.0,0.0,0.0,0.0,0.0,0.0,0.0,0.0,0.0,0.0,1.0771,1.0005,0.0,0.0,0.0,0.0,0.0,0.0,0.0,0.0,0.7074,0.0,0.0,0.0,0.0,0.0,0.0,0.0,0.0,0.0,0.0,0.0,0.0,0.0,0.0,0.0,0.0,0.0,0.0,0.0,0.0,0.0,0.0,0.0,0.0,0.0,0.0,0.0,0.0,0.0,0.0,0.0,0.0,0.0,0.0,0.0,0.0,0.0,0.0,0.0,0.0,0.0,0.0,0.0,0.0,0.0,0.0,0.0,0.0,0.0,0.0,0.0,0.0,0.0,0.0,0.0,1.3761,1.2436,0.8939,0.3191,0.0038,-0.2787,-0.5379,-0.6479,-0.7383,0.0,0.0,0.0,0.0,0.0,0.0,0.0,0.0,0.0,0.0,0.0,0.0,0.0,0.0,0.0,0.0,0.0,0.0,0.0,0.0,0.0,0.0,0.0,0.0,0.0,0.0,0.0,0.0,0.0,0.0,0.0,0.0,0.0,0.0,0.0,0.0,0.0,0.0,0.0,0.0,1.0939,0.9813,0.8639,0.0,0.0,0.0,0.0,0.0,0.0,0.5534,0.5642,0.0,0.0,0.0,0.0,0.0,0.0,0.0,0.0,0.0,0.0,0.0,0.0,0.0,0.0,0.0,0.0,0.0,0.0,0.0,0.0,0.0,0.0,0.0,0.0,0.0,0.0,0.0,0.0,0.0,0.0,0.0,0.0,0.0,0.0,0.0,0.0,0.0,0.0,0.0,0.0,0.0,0.0,0.0,0.0,0.0,0.0,0.0,0.0,0.0,0.0,0.0,0.0,0.0,0.0,0.0,1.3363,1.195,0.8508,0.3022,-0.034,-0.3008,-0.5006,-0.6223,-0.6999,0.0,0.0,0.0,0.0,0.0,0.0,0.0,0.0,0.0,0.0,0.0,0.0,0.0,0.0,0.0,0.0,0.0,0.0,0.0,0.0,0.0,0.0,0.0,0.0,0.0,0.0,0.0,0.0,0.0,0.0,0.0,0.0,0.0,0.0,0.0,0.0,0.0,0.0,0.0,0.0,0.0,0.9879,0.8534,0.7278,0.0,0.0,0.0,0.0,0.4406,0.369,0.0,0.0,0.0,0.0,0.0,0.0,0.0,0.0,0.0,0.0,0.0,0.0,0.0,0.0,0.0,0.0,0.0,0.0,0.0,0.0,0.0,0.0,0.0,0.0,0.0,0.0,0.0,0.0,0.0,0.0,0.0,0.0,0.0,0.0,0.0,0.0,0.0,0.0,0.0,0.0,0.0,0.0,0.0,0.0,0.0,0.0,0.0,0.0,0.0,0.0,0.0,0.0,0.0,0.0,0.0,0.0,1.2507,1.1743,0.8407,0.2484,-0.1639,-0.4026,-0.4663,-0.5778,-0.6449,0.0,0.0,0.0,0.0,0.0,0.0,0.0,0.0,0.0,0.0,0.0,0.0,0.0,0.0,0.0,0.0,0.0,0.0,0.0,0.0,0.0,0.0,0.0,0.0,0.0,0.0,0.0,0.0,0.0,0.0,0.0,0.0,0.0,0.0,0.0,0.0,0.0,0.0,0.0,0.0,0.0,1.0625,0.8718,0.7225,0.6237,0.0,0.0,0.34,0.2181,0.0816,0.0,0.0,0.0,0.0,0.0,0.0,0.0,0.0,0.0,0.0,0.0,0.0,0.0,0.0,0.0,0.0,0.0,0.0,0.0,0.0,0.0,0.0,0.0,0.0,0.0,0.0,0.0,0.0,0.0,0.0,0.0,0.0,0.0,0.0,0.0,0.0,0.0,0.0,0.0,0.0,0.0,0.0,0.0,0.0,0.0,0.0,0.0,0.0,0.0,0.0,0.0,0.0,0.0,0.0,0.0,1.3305,1.1659,1.0939,0.7708,0.1841,-0.2028,-0.4207,-0.4584,-0.5696,-0.6368,0.0,0.0,0.0,0.0,0.0,0.0,0.0,0.0,0.0,0.0,0.0,0.0,0.0,0.0,0.0,0.0,0.0,0.0,0.0,0.0,0.0,0.0,0.0,0.0,0.0,0.0,0.0,0.0,0.0,0.0,0.0,0.0,0.0,0.0,0.0,0.0,0.0,0.0,0.0,0.0,0.0,0.0,0.8109,0.7031,0.0,0.0,0.0,0.1523,0.0108,0.0,0.0,0.0,0.0,0.0,0.0,0.0,0.0,0.0,0.0,0.0,0.0,0.0,0.0,0.0,0.0,0.0,0.0,0.0,0.0,0.0,0.0,0.0,0.0,0.0,0.0,0.0,0.0,0.0,0.0,0.0,0.0,0.0,0.0,0.0,0.0,0.0,0.0,0.0,0.0,0.0,0.0,0.0,0.0,0.0,0.0,0.0,0.0,0.0,0.0,0.0,0.0,0.0,0.0,0.0,0.0,0.0,1.0837,0.9942,0.6881,0.1424,-0.2185,-0.4212,-0.459,-0.5727,0.0,0.0,0.0,0.0,0.0,0.0,0.0,0.0,0.0,0.0,0.0,0.0,0.0,0.0,0.0,0.0,0.0,0.0,0.0,0.0,0.0,0.0,0.0,0.0,0.0,0.0,0.0,0.5615,0.0,0.0,0.0,0.0,0.0,0.0,0.0,0.0,0.0,0.0,0.0,0.0,0.0,0.0,0.9584,0.7635,0.6671,0.5727,0.0,0.0,0.0107,-0.1436,-0.519,-0.703,0.0,0.0,0.0,0.0,0.0,0.0,0.0,0.0,0.0,0.0,0.0,0.0,0.0,0.0,0.0,0.0,0.0,0.0,0.0,0.0,0.0,0.0,0.0,0.0,0.0,0.0,0.0,0.0,0.0,0.0,0.0,0.0,0.0,0.0,0.0,0.0,0.0,0.0,0.0,0.0,0.0,0.0,0.0,0.0,0.0,0.0,0.0,0.0,0.0,0.0,0.0,0.0,0.0,0.0,0.0,0.9938,0.8851,0.6057,0.1424,-0.2185,-0.4171,-0.459,-0.5774,-0.6443,0.0,0.0,0.0,0.0,0.0,0.0,0.0,0.0,0.0,0.0,0.0,0.0,0.0,0.0,0.0,0.0,0.0,0.0,0.0,0.0,0.0,0.0,0.0,0.0,0.0,0.0,0.0,0.0,0.0,0.0,0.0,0.0,0.0,0.0,0.0,0.0,0.0,0.0,0.0,0.0,0.0,0.9299,0.7802,0.6157,0.4974,0.0,0.0,-0.0671,-0.2197,-0.5799,-0.8099,-0.7309,0.0,0.0,0.0,0.0,0.0,0.0,0.0,0.0,0.0,0.0,0.0,0.0,0.0,0.0,0.0,0.0,0.0,0.0,0.0,0.0,0.0,0.0,0.0,0.0,0.0,0.0,0.0,0.0,0.0,0.0,0.0,0.0,0.0,0.0,0.0,0.0,0.0,0.0,0.0,0.0,0.0,0.0,0.0,0.0,0.0,0.0,0.0,0.0,0.0,0.0,0.0,0.0,0.0,1.1297,0.9232,0.8527,0.5778,0.0889,-0.236,-0.4192,-0.4579,-0.5743,-0.6504,0.0,0.0,0.0,0.0,0.0,0.0,0.0,0.0,0.0,0.0,0.0,0.0,0.0,0.0,0.0,0.0,0.0,0.0,0.0,0.0,0.0,0.0,0.0,0.0,0.0,0.0,0.0,0.0,0.6277,0.7155,0.8902,0.0,0.0,0.0,0.0,0.0,0.0,0.0,0.0,0.0,0.0,1.1595,1.0372,0.8224,0.0,0.0,0.1248,-0.1055,-0.4939,-0.9164,-1.1757,-1.1136,-0.5725,0.0,0.0,0.0,0.0,0.0,0.0,0.0,0.0,0.0,0.0,0.0,0.0,0.0,0.0,0.0,0.0,0.0,0.0,0.0,0.0,0.0,0.0,0.0,0.0,0.0,0.0,0.0,0.0,0.0,0.0,0.0,0.0,0.0,0.0,0.0,0.0,0.0,0.0,0.0,0.0,0.0,0.0,0.0,0.0,0.0,0.0,0.0,0.0,0.0,0.0,0.0,0.0,1.1002,0.8709,0.9282,0.6632,0.0503,-0.2506,-0.4187,-0.4616,-0.5805,-0.6565,0.0,0.0,0.0,0.0,0.0,0.0,0.0,0.0,0.0,0.0,0.0,0.0,0.0,0.0,0.0,0.0,0.0,0.0,0.0,0.0,0.0,0.0,0.0,0.0,0.0,0.0,0.0,0.0,0.7958,0.9413,1.1699,0.0,0.0,0.0,0.0,0.0,0.0,0.0,0.0,0.0,0.0,1.3296,1.1731,0.8892,0.5579,0.1825,-0.0,-0.2519,-0.7007,-1.1364,-1.3749,-1.2334,0.0,0.0,0.0,0.0,0.0,0.0,0.0,0.0,0.0,0.0,0.0,0.0,0.0,0.0,0.0,0.0,0.0,0.0,0.0,0.0,0.0,0.0,0.0,0.0,0.0,0.0,0.0,0.0,0.0,0.0,1.0505,0.0,0.0,0.0,0.0,0.0,0.0,0.0,0.0,0.0,0.0,0.0,0.0,0.0,0.0,0.0,0.0,0.0,0.0,0.0,0.0,0.0,0.0,1.1518,0.8512,1.1075,0.8638,0.0658,-0.2472,-0.4182,-0.4584,-0.5829,-0.6617,-0.6924,0.0,0.0,0.0,0.0,0.0,0.0,0.0,0.0,0.0,0.0,0.0,0.0,0.0,0.0,0.0,0.0,0.0,0.0,0.0,0.0,0.0,0.0,0.0,0.0,0.0,0.0,0.952,1.1171,1.2994,0.0,0.0,0.0,0.0,0.0,0.0,0.0,0.0,0.0,0.0,1.6815,1.4001,1.1338,0.7366,0.3869,0.1588,-0.2002,-0.5422,-0.8108,-1.175,-1.3238,0.0,0.0,0.0,0.0,0.0,0.0,0.0,0.0,0.0,0.0,0.0,0.0,0.0,0.0,0.0,0.0,0.0,0.0,0.0,0.0,0.0,0.0,0.0,0.0,0.0,0.0,0.0,1.4132,1.3668,0.0,0.0,0.0,0.0,0.0,0.0,0.0,0.0,0.0,0.0,0.0,1.699,1.7098,0.0,0.0,0.0,0.0,0.0,0.0,0.0,0.0,0.0,0.0,0.0,0.0,1.0899,0.864,0.8074,0.5433,0.0541,-0.2496,-0.4079,-0.4215,-0.5674,-0.6954,-0.7914,0.0,0.0,0.0,0.0,0.0,0.0,0.0,0.0,0.0,0.0,0.0,0.0,0.0,0.0,0.0,0.0,0.0,0.0,0.0,0.0,0.0,0.0,0.0,0.0,0.0,1.134,0.0,0.0,0.0,0.0,0.0,0.0,0.0,0.0,0.0,0.0,0.0,2.1927,2.1222,1.8416,1.5439,1.2589,0.7312,0.2346,0.0,0.0,0.0,0.0,0.0,0.0,0.0,0.0,0.0,0.0,0.0,0.0,0.0,0.0,1.3772,1.6252,1.727,1.8022,1.8801,0.0,0.0,0.0,0.0,0.0,0.0,0.0,0.0,0.0,0.0,0.0,0.0,0.0,0.0,1.6046,0.0,1.5289,0.0,0.0,0.0,0.0,0.0,0.0,0.0,0.0,2.0297,2.0236,1.9872,2.0052,2.0175,0.0,2.0834,2.0209,0.0,0.0,0.0,0.0,0.0,0.0,0.0,0.0,1.1016,0.8896,0.6121,0.3326,0.0463,-0.246,-0.3985,-0.4031,-0.5619,-0.7158,-0.8528,-0.7822,-0.731,0.0,0.0,0.0,0.0,0.0,0.0,0.0,0.0,0.0,0.0,0.0,0.0,0.0,0.0,0.0,0.0,0.0,0.0,0.0,0.0,0.0,0.0,0.0,1.4609,0.0,0.0,0.0,0.0,0.0,0.0,0.0,0.0,0.0,2.4313,2.4024,2.366,2.288,2.0018,1.6804,1.3466,0.0,0.0,0.0,0.0,0.0,0.0,0.0,-1.5676,-1.4213,-0.9512,-0.4505,-0.0258,0.4242,0.7717,0.9125,0.0,0.0,1.3786,1.4856,1.5694,1.6904,1.8235,1.9493,2.0434,2.1296,2.16,0.0,0.0,0.0,0.0,0.0,0.0,0.0,0.0,1.5973,1.6753,0.0,1.7679,0.0,0.0,0.0,0.0,0.0,2.1409,0.0,0.0,2.3217,2.3179,2.2821,2.252,2.2584,2.297,2.3146,2.3384,2.3537,2.1497,0.0,0.0,0.0,0.0,0.0,0.0,1.182,0.9548,0.5705,0.2647,0.0425,-0.2424,-0.3975,-0.4096,-0.5643,-0.7227,-0.8712,-0.864,-0.8674,-0.8937,-0.775,0.0,0.0,0.0,0.0,0.0,0.0,0.0,0.0,0.0,0.0,0.0,0.0,0.0,0.0,0.0,0.0,0.0,0.0,0.0,0.0,1.6495,0.0,0.0,0.0,0.0,0.0,0.0,0.0,0.0,0.0,0.0,2.6118,2.596,2.5468,2.4383,0.0,0.0,0.0,0.0,0.2844,-0.2778,-0.8119,-1.2888,-1.6528,-1.6697,-1.4941,-1.0677,0.0,0.0,0.4533,0.608,0.6659,0.7645,0.9009,1.0647,1.2665,1.335,1.4093,1.5672,1.7028,1.8307,1.9521,2.0109,2.0415,0.6604,0.0,0.0,0.0,0.0,1.6105,1.7562,1.864,1.9314,1.9803,2.0133,1.9764,0.0,0.0,0.0,0.0,0.0,0.0,2.3738,2.4194,2.4315,2.4309,2.4245,2.4225,2.4297,2.4482,2.467,2.4825,2.4943,2.413,2.3032,2.1627,0.0,0.0,0.0,0.0,1.2888,1.0733,0.6711,0.3446,0.1074,-0.1238,-0.3344,-0.523,-0.6067,-0.7398,-0.9303,-0.937,-0.968,-1.0344,-0.9613,0.0,0.0,0.0,0.0,0.0,0.0,0.0,0.0,0.0,0.0,0.0,0.0,0.0,0.0,0.0,0.0,0.0,0.0,0.0,1.7967,1.9152,2.0002,0.0,0.0,0.0,0.0,0.0,0.0,0.0,0.0,0.0,2.6695,2.5855,2.4905,0.0,0.0,1.8455,1.4328,0.8226,0.1949,-0.4179,-1.0153,0.0,-1.8163,-1.7573,-1.5578,-1.2142,-0.6191,-0.0562,0.3229,0.451,0.5571,0.7518,0.8897,1.0403,1.2379,1.29,1.3375,1.4275,1.5999,1.7599,1.8526,1.9642,2.0321,0.3249,0.7145,1.004,1.1955,1.3338,1.595,1.7792,1.9028,1.9971,2.0776,2.1404,2.1406,2.1595,2.1936,2.23,0.0,0.0,0.0,2.4764,2.4994,2.5055,2.5056,2.4996,2.5058,2.5141,2.5261,2.533,2.541,2.5488,2.5234,2.443,2.3077,0.0,0.0,1.9256,1.6302,1.357,1.1172,0.754,0.4421,0.1841,-0.1006,-0.3442,-0.5466,-0.6167,-0.7299,-0.897,-0.9677,-1.0386,-1.1181,-1.1012,-1.0149,0.0,0.0,0.0,0.0,0.0,0.0,0.0,0.0,0.0,0.0,0.0,0.9667,1.1025,0.0,0.0,0.0,1.696,1.8484,2.0264,2.0939,0.0,0.0,0.0,0.0,0.0,0.0,0.0,2.6072,2.6298,2.6423,2.6327,2.5531,2.4758,2.4298,2.2106,1.9142,1.5299,0.0,0.1971,-0.4634,-1.1158,-1.6442,-1.9202,-1.7776,-1.4601,-0.9497,-0.4196,0.0285,0.275,0.427,0.5976,0.8081,0.985,1.1344,1.2888,1.3684,1.4334,1.4699,1.5888,1.7234,1.8467,1.9569,2.0133,0.0222,0.0772,0.6659,0.9727,1.0905,1.4238,1.6296,1.737,1.8797,2.0234,2.1615,2.2523,2.3288,2.3942,2.4378,0.0,2.523,2.5291,2.5343,2.5427,2.5485,2.5457,2.5323,2.5195,2.5272,2.5518,2.5318,2.53,2.5487,2.524,2.4763,2.4108,2.3187,2.1688,1.9636,1.6895,1.4034,1.1065,0.8158,0.5269,0.2406,-0.1417,-0.3985,-0.5111,-0.5983,-0.6973,-0.8125,-0.9605,-1.0783,-1.1522,-1.2027,-1.1802,-1.0717,0.0,0.0,0.0,0.0,0.0,0.0,0.0,0.0,0.0,0.0,0.0,0.0,0.0,0.0,0.0,1.9051,0.0,2.15,2.1842,0.0,0.0,0.0,2.6151,2.717,2.6863,2.6625,2.6698,0.0,0.0,2.5469,2.5134,2.493,2.5059,2.2811,1.9941,1.6452,0.9891,0.2821,-0.4186,-1.1616,-1.7205,-1.9251,-1.6865,-1.2025,-0.4883,-0.1272,0.1108,0.3314,0.5524,0.7524,0.954,1.1581,1.324,1.3896,1.5469,1.6608,1.6722,1.6735,1.7356,1.9148,1.9732,2.008,0.2241,0.2821,0.6866,0.8637,0.9063,1.2954,1.5867,1.785,1.9046,2.0288,2.1562,2.2545,2.3708,2.4953,2.5166,2.5356,2.5522,2.5523,2.5519,2.5564,2.5568,2.5564,2.5489,2.4773,2.4846,2.5499,2.4809,2.4804,2.5469,2.5236,2.4812,2.423,2.3313,2.1958,2.0155,1.7271,1.4623,1.2193,0.8468,0.4613,0.0724,-0.1676,-0.3473,-0.4732,-0.5536,-0.6545,-0.7791,-0.913,-1.0209,-1.113,-1.2295,-1.252,-1.1565,-0.9796,0.0,0.0,0.0,0.0,0.0,0.0,0.0,0.0,0.0,1.5877,1.7686,0.0,1.9275,0.0,1.9516,1.9804,2.1019,2.0845,0.0,0.0,2.4067,2.4659,2.5368,2.5599,2.5751,2.587,2.5716,2.5492,2.5221,2.4979,2.4605,2.3948,2.2372,2.0067,1.6872,1.1199,0.4443,-0.3324,-1.2388,-1.8545,-1.7628,-1.347,-0.8191,-0.2566,0.0652,0.3157,0.54,0.7924,1.0174,1.1592,1.3428,1.5151,1.6574,1.7623,1.8456,1.909,1.9046,1.9075,1.9913,2.0353,2.0748,0.5091,0.5507,0.8651,1.0232,1.091,1.4207,1.6779,1.8754,1.957,2.062,2.1831,2.3034,2.42,2.524,2.5407,2.5517,2.5601,2.5601,2.5573,2.5538,2.5176,2.5199,2.55,2.4237,2.3505,2.3299,2.394,2.4436,2.4768,2.4793,2.4511,2.3915,2.3005,2.1692,1.99,1.7162,1.4612,1.2235,0.7976,0.3943,0.0207,-0.172,-0.3268,-0.4382,-0.5313,-0.6346,-0.7594,-0.8843,-0.9872,-1.0675,-1.185,-1.2291,-1.1791,-1.0479,-0.8431,0.0,0.0,0.0,0.0,0.0,0.0,0.0,0.0,0.0,0.0,0.0,2.0613,2.0789,2.0281,2.032,2.1301,2.1275,2.1922,2.3608,2.4324,2.5061,2.5944,2.6006,2.6026,2.6113,2.5687,2.5304,2.512,2.472,2.4221,2.356,2.1996,2.0095,1.763,1.2853,0.686,-0.0526,-0.946,-1.5621,-1.5375,-0.9916,-0.4401,-0.0796,0.2715,0.5736,0.7852,1.0393,1.2662,1.4149,1.5849,1.7351,1.8512,1.9311,2.0055,2.0607,2.065,2.0603,2.0955,2.139,2.1732,0.8399,0.8696,1.1295,1.3113,1.4477,1.6539,1.8304,1.9717,2.0237,2.1129,2.234,2.373,2.4651,2.5226,2.535,2.5479,2.5605,2.5607,2.5498,2.5281,2.4587,2.4531,2.4954,2.3432,2.1928,2.0675,2.2808,2.3812,2.3679,2.4043,2.3852,2.3189,2.2401,2.1111,1.9289,1.678,1.4061,1.1165,0.6922,0.3299,0.0292,-0.1637,-0.3129,-0.4135,-0.5207,-0.6249,-0.7324,-0.8558,-0.9498,-1.0143,-1.0966,-1.1494,-1.1689,-1.0712,-0.8758,0.0,-0.0246,0.0,0.0,0.0,0.0,0.0,0.0,0.0,0.0,2.1389,2.1569,2.1413,2.1147,2.1284,2.1915,2.2324,2.3072,2.4365,2.5153,2.6034,2.708,2.6848,2.6552,2.658,2.5712,2.5091,2.4979,2.4432,2.3892,2.3376,2.1848,2.0146,1.8543,1.4887,0.9853,0.3264,-0.4082,-0.9452,-1.011,-0.5475,-0.0229,0.2201,0.571,0.8747,1.0895,1.3203,1.5262,1.6805,1.8122,1.9278,2.0019,2.0714,2.1312,2.1746,2.17,2.168,2.1935,2.2074,2.2513,1.2139,1.2644,1.4214,1.5731,1.7121,1.8205,1.9254,2.0289,2.098,2.1993,2.3186,2.4009,2.4716,2.5288,2.5415,2.5535,2.5663,2.5565,2.5097,2.4352,2.4144,2.3509,2.2486,2.1823,2.1436,2.1307,2.157,2.1972,2.2445,2.2884,2.2624,2.1733,2.1646,2.0703,1.8877,0.0,0.0,0.0,0.5222,0.2863,0.0499,-0.1303,-0.2724,-0.3859,-0.4861,0.0,-0.676,-0.7693,-0.8595,-0.9454,-1.0018,0.0,0.0,0.0,0.0,0.0,0.0,0.0,0.0,0.0,0.0,0.0,2.2355,2.2483,2.2147,2.2277,2.2235,2.1904,2.2051,2.2262,2.2461,2.2698,2.3168,2.4018,2.4579,2.5064,2.5531,2.5654,2.5655,2.5439,2.5224,2.4946,2.4618,2.4244,2.3794,2.3204,2.1925,2.0511,1.9213,1.6922,1.3035,0.6591,0.0631,-0.2381,-0.2312,0.104,0.5006,0.8442,1.0903,1.3161,1.5195,1.7051,1.828,1.8842,1.9428,2.0348,2.1301,2.1648,2.186,2.2262,2.2501,2.2575,2.2236,2.1704,2.1381,1.5,0.0,1.636,1.7228,0.0,1.9134,1.9967,2.0557,2.1359,2.2604,2.4065,2.4521,2.5001,2.5405,2.5439,2.5448,2.5437,2.5375,2.4836,2.3889,2.3443,2.2573,2.1378,2.0776,2.0344,2.0081,2.063,2.0941,2.1083,2.1714,2.1763,2.1156,2.0754,1.9986,1.8734,1.5246,1.1246,0.6827,0.5132,0.3182,0.105,-0.0644,-0.2214,-0.3616,-0.468,0.0,0.0,0.0,0.0,0.0,0.0,0.0,0.0,0.0,0.0,-0.1826,0.1237,0.6584,1.4891,1.862,2.1062,2.2413,2.2901,2.2987,2.2571,2.2673,2.2758,2.274,2.2994,2.3155,2.3238,2.3485,2.3857,2.4346,2.4711,2.5001,2.5258,2.5351,2.5336,2.5127,2.4843,2.4582,2.4299,2.3692,2.3038,2.223,2.0959,1.9645,1.8467,1.7141,1.3729,0.6958,0.5072,0.3287,0.2201,0.5683,0.9204,1.1699,1.431,1.6561,1.8022,1.9427,2.0372,2.0587,2.087,2.1279,2.1743,2.1988,2.216,2.2341,2.2238,2.2053,2.1817,2.1693,2.1627,1.7212,1.7281,1.8,1.8278,1.834,1.9681,2.0431,2.0822,0.0,0.0,0.0,2.4991,2.5278,2.5484,2.5403,2.5245,2.4987,2.4931,2.4298,2.3122,2.2413,2.1543,2.0584,1.9888,1.9254,1.869,1.98,2.0063,1.9648,2.0451,2.0738,2.0456,1.976,1.8943,1.7758,1.3771,1.0058,0.6982,0.5433,0.3741,0.1817,0.0042,-0.1685,-0.3375,-0.4486,-0.5695,-0.6832,-0.7515,-0.806,-0.8425,-0.8708,-0.9233,-1.0011,-1.0154,-0.6927,0.0151,0.2632,0.7868,1.7135,2.0074,2.1951,2.3164,2.3398,2.3293,2.2828,2.3038,2.331,2.3628,2.3842,2.4013,2.4065,2.4339,2.4606,2.4816,2.5016,2.5232,2.5387,2.5329,2.5181,2.4992,2.4549,2.4171,2.3949,2.3165,2.2246,2.1198,1.991,1.8406,1.7226,1.6164,1.3515,0.8205,0.8181,0.8349,0.6662,0.9304,1.3059,1.4195,1.7064,1.936,2.001,2.0934,2.168,2.1662,2.1832,2.1802,2.1852,2.2026,2.2191,2.2247,2.1721,2.1182,2.1236,2.1537,2.1765,1.8534,1.8877,1.9002,1.9234,1.9558,1.9893,2.0545,2.1542,2.3552,2.4341,2.4167,2.5039,2.5464,2.5492,2.531,2.484,2.418,2.3938,2.284,2.1061,2.0858,2.0134,1.895,1.8825,1.8717,1.8626,1.8824,1.8579,1.8155,1.8784,1.8956,1.8682,1.8703,1.7434,1.4874,1.2278,0.9684,0.6975,0.5391,0.4057,0.2863,0.0395,-0.1583,-0.2964,-0.4145,-0.5025,-0.5636,-0.652,-0.6883,-0.6715,-0.7943,-0.8434,-0.7863,-0.5313,-0.1519,0.3197,0.7518,1.2556,1.8351,2.0473,2.2369,2.4293,2.4562,2.4157,2.325,2.3786,2.4207,2.4291,2.4525,2.4734,2.4684,2.4871,2.4977,2.4989,2.5175,2.5283,2.5096,2.5105,2.4982,2.4655,2.4279,2.3949,2.3702,2.2845,2.1919,2.1022,1.9524,1.7838,1.6139,1.4746,1.3661,1.2349,1.2522,1.3156,1.2907,1.4901,1.6661,1.8335,1.9825,2.114,2.1371,2.2269,2.2637,2.1707,2.156,2.1552,2.1659,2.1734,2.1764,2.1799,2.1589,2.125,2.0745,2.0689,2.0653,1.9087,1.9341,1.9403,1.9585,1.9803,1.9873,2.0191,2.0795,2.2212,2.3279,2.4009,2.4702,2.5062,2.506,2.4432,2.3857,2.3379,2.267,2.1578,2.0203,2.0137,1.9523,1.8483,1.851,1.845,1.8187,1.8132,1.8085,1.8069,1.8323,1.8426,1.8266,1.7738,1.6413,1.4444,1.2228,1.0353,0.8761,0.6293,0.4478,0.3394,0.133,-0.0888,-0.3179,-0.3857,-0.4525,-0.5491,-0.6064,-0.6372,-0.6473,-0.6936,-0.7481,-0.8024,-0.4795,0.0091,0.6462,0.8828,1.318,2.0451,2.2043,2.3418,2.4927,2.5074,2.4876,2.4389,2.4648,2.4812,2.4783,2.5013,2.5143,2.5115,2.5116,2.5112,2.5108,2.5096,2.5034,2.4918,2.4927,2.482,2.4524,2.4044,2.3653,2.3459,2.2712,2.1737,2.0631,1.9057,1.7453,1.6062,1.5702,1.5168,1.4253,1.4149,1.4561,1.5446,1.6908,1.8159,1.9183,2.0701,2.1854,2.2358,2.2967,2.2754,2.2225,2.1814,2.1424,2.1152,2.0956,2.1132,2.1582,2.1191,2.0859,2.091,2.0642,2.0214,1.9178,1.9335,1.9395,1.9506,1.96,1.9624,1.9678,1.985,2.0552,2.1673,2.299,2.3698,2.4126,2.4212,2.3229,2.2691,2.2355,2.1351,2.0307,1.9386,1.9254,1.8714,1.7971,1.8111,1.7984,1.7595,1.7522,1.7699,1.8011,1.7921,1.7775,1.7634,1.6714,1.558,1.4303,1.2248,1.0845,0.9906,0.7127,0.5068,0.3907,0.2195,-0.0046,-0.2482,-0.3287,-0.4106,-0.5155,-0.5499,-0.5817,-0.6112,-0.5831,-0.5992,-0.6439,-0.2935,0.2354,0.8888,1.069,1.4473,2.1698,2.3341,2.4218,2.5158,2.5208,2.5183,2.5191,2.5152,2.5132,2.513,2.5228,2.5308,2.5227,2.5121,2.5045,2.5089,2.493,2.4797,2.4733,2.4676,2.4554,2.4301,2.3733,2.3221,2.2937,2.2412,2.1378,1.9877,1.8463,1.7315,1.6676,1.6789,1.6354,1.5657,1.5176,1.5444,1.6025,1.7486,1.8699,1.9241,2.0869,2.2042,2.2631,2.2626,2.2494,2.2206,2.1658,2.1197,2.0663,2.0593,2.0873,2.1371,2.1046,2.0716,2.0944,2.0537,2.0077,1.8716,1.8863,1.8863,1.8953,1.9059,1.9054,1.9077,1.9195,1.9819,2.0187,2.0594,2.1682,2.248,2.2732,2.1917,2.1442,2.1256,2.0073,1.8953,1.7985,1.7602,1.7272,1.7083,1.7009,1.6926,1.6965,1.6965,1.7199,1.7472,1.697,1.6358,1.5772,1.5587,1.4819,1.3281,1.1734,1.0312,0.9067,0.7449,0.6085,0.4828,0.2663,0.104,0.005,-0.2313,-0.3736,-0.4013,-0.4442,-0.4631,-0.4684,-0.4599,-0.3298,-0.0561,0.4017,0.7862,1.0569,1.5228,1.9595,2.253,2.346,2.4172,2.4982,2.4947,2.4867,2.4847,2.4897,2.4981,2.5051,2.5152,2.5101,2.4894,2.482,2.4789,2.475,2.4724,2.4741,2.4487,2.4245,2.4005,2.378,2.32,2.2635,2.2289,2.1668,2.0591,1.9326,1.828,1.743,1.7103,1.6975,1.6848,1.6807,1.6852,1.6939,1.7309,1.8345,1.923,1.987,2.1424,2.2259,2.226,2.2281,2.2238,2.1694,2.1001,2.0712,2.0927,2.1139,2.1158,2.1496,2.129,2.0842,2.0234,1.9885,1.9827,1.7659,1.7876,1.8055,1.8257,1.843,1.8265,1.8378,1.8738,1.9003,1.925,1.9452,1.9665,2.0559,2.1904,2.093,2.035,2.0072,1.9345,1.8548,1.782,1.8006,1.8081,1.7992,1.8008,1.7964,1.7964,1.7751,1.7729,1.7792,1.727,1.6622,1.5948,1.5369,1.4325,1.2953,1.1798,1.0631,0.9452,0.847,0.735,0.5916,0.4094,0.2207,0.0502,-0.0662,-0.1714,-0.2654,-0.3661,-0.4277,-0.4356,-0.2826,-0.0847,0.1353,0.6164,1.0882,1.5167,1.9204,2.196,2.3221,2.3534,2.3995,2.4866,2.4652,2.4582,2.4774,2.4642,2.4528,2.4492,2.4752,2.4839,2.4525,2.4414,2.4255,2.4063,2.3931,2.383,2.3746,2.362,2.3472,2.3369,2.2788,2.2289,2.1995,2.121,2.0391,1.9687,1.9006,1.8397,1.7845,1.781,1.768,1.7394,1.774,1.794,1.7855,1.8594,1.9418,2.0053,2.0917,2.1577,2.2273,2.1984,2.1778,2.1428,2.1236,2.1032,2.1045,2.1593,2.1886,2.2002,2.1764,2.1204,1.9845,1.9393,1.9277,1.6894,1.7117,1.7349,1.758,1.772,1.7685,1.7911,1.8303,1.8493,1.8749,1.8956,1.8546,1.9283,2.0581,1.9779,1.9379,1.9453,1.8914,1.8363,1.7969,1.8338,1.8498,1.8498,1.8498,1.8498,1.8467,1.8177,1.8037,1.8006,1.7593,1.687,1.5947,1.5096,1.4086,1.2851,1.1837,1.093,1.0072,0.9228,0.8164,0.687,0.5353,0.357,0.1704,0.1086,0.0209,-0.1235,-0.2318,-0.3002,-0.3183,-0.0921,0.1488,0.3964,0.8053,1.2977,1.8501,2.1398,2.2929,2.3272,2.3442,2.378,2.4321,2.4153,2.41,2.4261,2.4136,2.3952,2.3855,2.4148,2.4228,2.4026,2.3873,2.3671,2.3444,2.3293,2.3189,2.3212,2.3069,2.2905,2.2855,2.2218,2.1753,2.1483,2.0766,2.0058,2.0024,1.9793,1.9317,1.8419,1.8352,1.8274,1.7504,1.8078,1.8444,1.819,1.8967,1.9701,2.0114,2.0788,2.171,2.2366,2.1971,2.1715,2.1717,2.1902,2.1909,2.157,2.1935,2.2105,2.2383,2.1985,2.091,1.9452,1.8907,1.861,1.6815,1.6799,1.6825,1.6898,1.693,1.7503,1.7796,1.7916,1.8473,1.8763,1.8783,1.8704,1.8964,1.9246,1.8379,1.8642,1.9604,1.878,1.8315,1.8161,1.7955,1.7809,1.7747,1.7747,1.7792,1.7945,1.7927,1.7661,1.7249,1.7223,1.6446,1.488,1.4698,1.4061,1.2852,1.1601,1.0821,1.0525,0.9418,0.8378,0.7563,0.6225,0.507,0.42,0.2883,0.1491,0.0166,-0.0111,-0.0222,-0.0223,0.0879,0.349,0.7935,1.0808,1.4533,1.9118,2.1144,2.2184,2.263,2.3155,2.3526,2.3557,2.3436,2.3287,2.3406,2.3361,2.3293,2.3259,2.332,2.3302,2.3229,2.3247,2.3241,2.3189,2.3189,2.3141,2.3124,2.2513,2.219,2.2068,2.1532,2.0991,2.0485,1.9984,1.9818,1.9782,1.9726,1.9295,1.838,1.8131,1.7867,1.7585,1.7787,1.8299,1.8777,1.9411,1.9993,2.0412,2.0965,2.1922,2.1993,2.2046,2.1972,2.183,2.1539,2.1545,2.1843,2.1896,2.1792,2.1601,2.0904,1.9859,1.9109,1.8469,1.8087,1.6274,1.6495,1.6681,1.6879,1.7111,1.7212,1.7456,1.7825,1.7763,1.7961,1.8208,1.7902,1.8021,1.8461,1.7702,1.7996,1.9061,1.911,1.8936,1.8619,1.8846,1.8986,1.8972,1.8986,1.8797,1.8519,1.8447,1.8021,1.721,1.657,1.5708,1.4824,1.4329,1.3474,1.2393,1.2172,1.1563,1.0218,0.9221,0.8435,0.7777,0.7176,0.6583,0.5832,0.4405,0.3408,0.2907,0.1952,0.1835,0.2773,0.3765,0.5905,0.9463,1.2829,1.6297,1.9894,2.141,2.2286,2.2874,2.3164,2.332,2.3298,2.3034,2.293,2.3117,2.3021,2.2873,2.2855,2.2855,2.2746,2.2388,2.26,2.2815,2.266,2.2607,2.251,2.2214,2.1931,2.1698,2.1397,2.0894,2.0398,2.0035,1.9767,1.9726,1.969,1.9406,1.8893,1.8249,1.7827,1.7517,1.7422,1.7747,1.8302,1.8803,1.9449,2.0,2.0382,2.0895,2.1348,2.162,2.1727,2.1697,2.177,2.1417,2.1575,2.2054,2.2324,2.2078,2.1487,2.0688,1.9779,1.893,1.833,1.7733,1.6532,1.6769,1.6954,1.7058,1.718,1.7204,1.7377,1.7616,1.7477,1.768,1.7968,1.7625,1.768,1.7995,1.7639,1.7801,1.8535,1.9126,1.9082,1.8621,1.9177,1.9369,1.9207,1.9207,1.9049,1.876,1.8567,1.7974,1.6995,1.6058,1.5186,1.4422,1.3956,1.3236,1.2403,1.2683,1.1968,1.0312,0.9254,0.8534,0.809,0.783,0.7503,0.6858,0.5782,0.5073,0.4916,0.3956,0.4006,0.5277,0.6346,0.8121,1.0972,1.417,1.7234,1.9786,2.1128,2.1938,2.239,2.2609,2.2635,2.2487,2.2317,2.2262,2.246,2.2272,2.2169,2.2169,2.2152,2.1886,2.1655,2.1857,2.2074,2.1899,2.1886,2.1751,2.1446,2.1259,2.0975,2.0616,2.033,2.0015,1.9747,1.9726,1.9617,1.9479,1.9118,1.865,1.7973,1.7544,1.7201,1.7105,1.7463,1.7987,1.8496,1.9029,1.9624,2.0019,2.0483,2.091,2.1225,2.1339,2.1504,2.16,2.1773,2.1992,2.2265,2.2603,2.2293,2.1715,2.095,2.001,1.9118,1.8238,1.769,1.7637,1.7625,1.7697,1.7405,1.7127,1.7541,1.7543,1.7322,1.7699,1.7879,1.784,1.7932,1.7839,1.8013,1.7825,1.8011,1.8076,1.8545,1.8584,1.8218,1.866,1.865,1.8263,1.8249,1.8372,1.8458,1.7909,1.7199,1.6391,1.5784,1.496,1.405,1.3768,1.3372,1.2871,1.2821,1.2208,1.0771,0.9504,0.886,0.8685,0.8103,0.7777,0.7664,0.6912,0.6362,0.6013,0.5828,0.6119,0.7225,0.8129,0.9955,1.2397,1.4942,1.706,1.8795,2.0218,2.0959,2.115,2.1458,2.1486,2.1305,2.1118,2.1197,2.1274,2.1197,2.1181,2.1197,2.1165,2.1055,2.1007,2.1055,2.1102,2.1023,2.1166,2.1134,2.0926,2.0583,2.0158,1.9874,1.9797,1.9726,1.9741,1.9705,1.953,1.9118,1.8855,1.8458,1.7626,1.7271,1.7034,1.6795,1.7188,1.7867,1.821,1.8574,1.9118,1.966,2.0108,2.0534,2.0748,2.0951,2.1295,2.1458,2.1573,2.1798,2.1781,2.2029,2.1748,2.1217,2.0615,2.0139,1.9305,1.8448,1.7843,1.7682,1.7709,1.7822,1.7739,1.7562,1.7515,1.7383,1.721,1.7081,1.6993,1.6993,1.6993,1.6993,1.6993,1.6993,1.6993,1.7034,1.7544,1.7907,1.8106,1.8249,1.8249,1.8092,1.8092,1.7974,1.7652,1.7141,1.6509,1.5852,1.5264,1.456,1.3862,1.3372,1.3104,1.2929,1.2871,1.2184,1.0864,1.0132,0.9482,0.885,0.8593,0.8427,0.8374,0.7605,0.7326,0.7812,0.6912,0.702,0.8243,0.8573,1.012,1.3057,1.5233,1.7046,1.865,1.9984,2.081,2.0959,2.0958,2.0958,2.0975,2.0975,2.1007,2.1007,2.0975,2.0959,2.0975,2.1007,2.0894,2.0583,2.0532,2.0632,2.0959,2.1007,2.0829,2.0532,2.0158,1.9889,1.9762,1.9705,1.9705,1.969,1.969,1.942,1.8893,1.8574,1.8052,1.7463,1.6993,1.6752,1.6595,1.7229,1.7747,1.8013,1.8458,1.908,1.9479,1.9879,2.0143,2.0348,2.0649,2.1007,2.1275,2.1415,2.1493,2.1493,2.1381,2.1187,2.0886,2.0471,1.9936,1.9342,1.878,1.8235,1.7972,1.812,1.802,1.7843,1.7682,1.7411,1.7201,1.6993,1.6637,1.638,1.6194,1.6194,1.6008,1.5932,1.6064,1.6151,1.6182,1.6544,1.6954,1.7504,1.7747,1.7706,1.7544,1.7504,1.734,1.7034,1.668,1.6064,1.5276,1.488,1.4294,1.3515,1.3065,1.2939,1.2891,1.2881,1.2304,1.1258,1.0495,0.9841,0.9242,0.891,0.8804,0.8712,0.8296,0.835,0.8718,0.823,0.8331,0.9131,0.9746,1.1428,1.3627,1.5521,1.7208,1.845,1.9687,2.0509,2.0532,2.0471,2.0473,2.0516,2.0514,2.0499,2.0499,2.0499,2.0514,2.0514,2.0499,2.0398,2.0139,2.0104,2.0227,2.0481,2.0481,2.0413,2.007,1.9681,1.9566,1.953,1.9332,1.9244,1.9317,1.9169,1.8907,1.838,1.8013,1.7626,1.7118,1.6723,1.6607,1.6552,1.6866,1.7353,1.7747,1.8341,1.9043,1.9376,1.9702,1.9879,2.007,2.0382,2.0748,2.1023,2.1197,2.1229,2.1229,2.1166,2.099,2.0671,2.0319,1.9981,1.9564,1.9308,1.8767,1.8405,1.8765,1.8249,1.7733,1.7341,1.7216,1.6951,1.6565,1.6522,1.6194,1.572,1.5676,1.532,1.4971,1.5365,1.5543,1.5543,1.5576,1.5896,1.6386,1.6769,1.6841,1.671,1.6723,1.668,1.6552,1.6466,1.5832,1.4824,1.4606,1.4061,1.3065,1.2988,1.293,1.2988,1.2949,1.2662,1.1894,1.104,1.0451,0.9933,0.9302,0.8951,0.8918,0.918,0.9186,0.9098,0.9695,1.0068,1.0205,1.163,1.2936,1.4046,1.5936,1.7437,1.8171,1.9462,1.9929,1.9909,2.0089,2.0108,1.9889,1.9854,1.9741,1.9833,1.9889,1.9889,1.9869,1.9833,1.9797,1.9762,1.9762,1.9747,1.9675,1.9803,1.9818,1.9675,1.9317,1.9295,1.9369,1.8803,1.8327,1.8841,1.8458,1.8027,1.7598,1.7422,1.7146,1.6795,1.6565,1.6522,1.6637,1.6795,1.7105,1.7585,1.8013,1.865,1.8878,1.9251,1.9609,1.9803,2.0124,2.028,2.0599,2.0812,2.0878,2.0845,2.0714,2.0599,2.0304,2.01,2.0054,1.9808,1.9456,1.8918,1.8171,1.8263,1.7747,1.7435,1.7242,1.6866,1.6637,1.6522,1.6479,1.6095,1.5676,1.5576,1.5186,1.4744,1.4835,1.4926,1.4926,1.4926,1.496,1.5164,1.5276,1.5852,1.638,1.6479,1.6491,1.6448,1.6113,1.541,1.4698,1.4359,1.3699,1.2939,1.3223,1.334,1.3369,1.342,1.3218,1.2876,1.2859,1.2001,1.0777,1.0453,1.0051,0.9572,1.0137,1.0294,1.0034,1.0701,1.126,1.1384,1.2686,1.3794,1.4527,1.62,1.7491,1.8171,1.9103,1.9803,1.9747,1.9767,1.9767,1.9726,1.9617,1.9705,1.9705,1.969,1.969,1.969,1.9705,1.969,1.969,1.9654,1.9493,1.9244,1.9406,1.9617,1.9617,1.9603,1.9406,1.9132,1.8803,1.8496,1.8288,1.8131,1.7827,1.7394,1.7188,1.7105,1.668,1.6534,1.6534,1.668,1.6837,1.7063,1.7381,1.7827,1.8171,1.8341,1.8765,1.9317,1.9551,1.9854,1.9909,1.998,2.0189,2.0292,2.0154,1.9995,1.9889,1.9929,1.9803,1.9696,1.9573,1.9309,1.8772,1.7558,1.772,1.7188,1.6951,1.6909,1.6637,1.6324,1.6151,1.6095,1.5599,1.4994,1.4858,1.4503,1.3967,1.4201,1.4329,1.4329,1.4329,1.4468,1.4698,1.4744,1.5287,1.592,1.6139,1.6218,1.6406,1.6035,1.5521,1.493,1.4514,1.4031,1.3559,1.3643,1.3769,1.3727,1.3715,1.3689,1.3575,1.3815,1.3332,1.1975,1.1527,1.1182,1.0895,1.1371,1.1582,1.1685,1.1843,1.2099,1.2563,1.3402,1.4275,1.5084,1.6409,1.7504,1.8106,1.8688,1.908,1.9281,1.9169,1.9006,1.9006,1.9006,1.902,1.902,1.9043,1.9006,1.8968,1.9207,1.9244,1.908,1.9006,1.8893,1.865,1.8855,1.9058,1.9035,1.8779,1.8688,1.8496,1.8171,1.7907,1.7706,1.7585,1.7312,1.7034,1.6909,1.6752,1.6552,1.6534,1.6597,1.6789,1.6837,1.694,1.7125,1.7461,1.7733,1.7881,1.8458,1.9006,1.9369,1.9654,1.9726,1.9762,1.9726,1.9705,1.969,1.9654,1.9551,1.9551,1.9457,1.9258,1.9058,1.893,1.8419,1.6795,1.7188,1.671,1.6479,1.6423,1.638,1.6008,1.5588,1.5499,1.4915,1.4086,1.3815,1.3647,1.2929,1.3515,1.3732,1.3742,1.3684,1.4014,1.4247,1.4398,1.4731,1.5393,1.5631,1.5786,1.6068,1.6209,1.5691,1.5148,1.4987,1.4621,1.4149,1.4058,1.4199,1.4175,1.4022,1.4077,1.4276,1.4515,1.4118,1.3209,1.2677,1.2297,1.2094,1.2405,1.3035,1.3259,1.3195,1.3049,1.3596,1.4005,1.4585,1.5531,1.6574,1.7422,1.7907,1.8145,1.8447,1.8764,1.8602,1.8367,1.853,1.8504,1.8285,1.8544,1.857,1.8514,1.8681,1.8705,1.8814,1.8719,1.8422,1.8451,1.8439,1.8329,1.8247,1.8031,1.7666,1.7544,1.7907,1.7146,1.6964,1.6921,1.6837,1.6522,1.6765,1.6705,1.6751,1.6753,1.6835,1.6923,1.7011,1.6955,1.6773,1.6926,1.7063,1.728,1.7516,1.8198,1.8779,1.9281,1.953,1.9654,1.9705,1.9705,1.969,1.969,1.9603,1.9369,1.9169,1.9006,1.865,1.8288,1.821,1.7867,1.6552,1.668,1.6552,1.6238,1.582,1.5764,1.5466,1.4926,1.4926,1.4468,1.392,1.3768,1.342,1.292,1.3065,1.3113,1.3162,1.3172,1.32,1.3248,1.3296,1.3828,1.4607,1.5115,1.5443,1.5572,1.5437,1.5297,1.5049,1.472,1.431,1.4209,1.4521,1.4648,1.4668,1.4836,1.505,1.5137,1.5176,1.4773,1.4139,1.3821,1.3412,1.3,1.3223,1.3981,1.4659,1.4457,1.4496,1.4924,1.4866,1.4834,1.5335,1.6547,1.7389,1.7637,1.7976,1.8354,1.874,1.8797,1.8892,1.9177,1.9135,1.9427,1.9386,1.8878,1.8961,1.9209,1.9128,1.9017,1.9194,1.9386,1.906,1.8759,1.8654,1.8574,1.8241,1.8007,1.7841,1.7569,1.7295,1.7005,1.6791,1.6744,1.6584,1.6547,1.666,1.676,1.6961,1.7174,1.73,1.7451,1.7476,1.7363,1.7232,1.7288,1.7209,1.7334,1.7881,1.8458,1.893,1.9406,1.953,1.9617,1.9705,1.969,1.969,1.9317,1.9043,1.8803,1.8535,1.8171,1.7867,1.7666,1.7463,1.6534,1.6534,1.6534,1.6324,1.6008,1.572,1.5276,1.4698,1.4376,1.392,1.3457,1.3372,1.319,1.292,1.2891,1.2939,1.2939,1.3086,1.3057,1.3086,1.3273,1.368,1.4013,1.4697,1.5153,1.5412,1.5468,1.537,1.5174,1.4939,1.4775,1.4736,1.4961,1.5059,1.5078,1.5293,1.5371,1.5381,1.541,1.5167,1.4805,1.4746,1.4628,1.4255,1.4375,1.4792,1.5255,1.4956,1.5124,1.5509,1.5563,1.5536,1.5904,1.7012,1.7738,1.8087,1.807,1.8422,1.8789,1.8751,1.8692,1.9067,1.9093,1.9048,1.9008,1.8706,1.8719,1.8967,1.8995,1.9104,1.9373,1.9099,1.8911,1.8727,1.8647,1.8533,1.8278,1.8157,1.8057,1.7743,1.7496,1.7428,1.7238,1.7024,1.7149,1.7325,1.7438,1.7526,1.7576,1.7765,1.784,1.7953,1.8053,1.799,1.7765,1.7586,1.7324,1.7366,1.7517,1.7987,1.8419,1.8893,1.9369,1.9493,1.9617,1.9705,1.9654,1.9207,1.8688,1.8419,1.8092,1.7747,1.7394,1.7118,1.6951,1.6534,1.6534,1.6534,1.6466,1.6293,1.5808,1.5186,1.4514,1.405,1.3552,1.2998,1.293,1.3086,1.2998,1.3008,1.2988,1.3105,1.3389,1.3447,1.332,1.375,1.3959,1.407,1.4562,1.5094,1.5612,1.5587,1.5501,1.5426,1.541,1.5244,1.5361,1.5381,1.5342,1.5381,1.541,1.542,1.542,1.541,1.5352,1.5294,1.5294,1.5235,1.5225,1.5206,1.5245,1.5352,1.5145,1.5163,1.58,1.6197,1.6638,1.7173,1.781,1.838,1.8767,1.8367,1.849,1.8791,1.8695,1.8462,1.8405,1.8528,1.8541,1.8553,1.8586,1.8634,1.8732,1.8982,1.9204,1.9079,1.8986,1.87,1.8566,1.8493,1.8455,1.8442,1.843,1.8475,1.8134,1.7852,1.7743,1.7785,1.7714,1.7915,1.8078,1.8179,1.8267,1.8304,1.8355,1.843,1.8631,1.8781,1.8618,1.8367,1.7915,1.7664,1.7475,1.7466,1.7678,1.8043,1.8419,1.8893,1.9332,1.9493,1.9493,1.9295,1.8741,1.8302,1.8027,1.7626,1.7188,1.6837,1.6565,1.6565,1.6534,1.6534,1.6534,1.6238,1.5776,1.5632,1.4949,1.405,1.3873,1.3467,1.3037,1.3232,1.3379,1.3408,1.3408,1.3398,1.3496,1.3809,1.3965,1.3857,1.4107,1.4258,1.4502,1.4697,1.5094,1.5349,1.5446,1.5428,1.5429,1.542,1.542,1.542,1.542,1.542,1.542,1.542,1.542,1.542,1.542,1.542,1.542,1.542,1.542,1.542,1.542,1.542,1.542,1.5352,1.536,1.5571,1.6708,1.7299,1.764,1.803,1.8367,1.8472,1.8462,1.8639,1.8953,1.898,1.9133,1.9409,1.9434,1.9484,1.9409,1.9171,1.907,1.9296,1.951,1.9661,1.9674,1.9422,1.9472,1.9497,1.9422,1.9409,1.9434,1.9346,1.907,1.8543,1.8267,1.8141,1.8292,1.8355,1.838,1.848,1.8568,1.8731,1.8857,1.8945,1.9045,1.9296,1.9597,1.9296,1.897,1.8442,1.8033,1.7753,1.7661,1.7617,1.7906,1.7989,1.8341,1.8703,1.8945,1.9006,1.8664,1.8224,1.7907,1.7626,1.7105,1.6637,1.6565,1.6534,1.6534,1.6534,1.6534,1.6534,1.6324,1.5964,1.5377,1.4835,1.4247,1.36,1.3272,1.3303,1.3428,1.3643,1.3779,1.3828,1.3828,1.3945,1.4268,1.4326,1.4194,1.4515,1.4736,1.4863,1.499,1.5195,1.5361,1.541,1.542,1.542,1.542,1.542,1.542,1.542,1.542,1.542,1.542,1.542,1.542,1.542,1.542,1.542,1.542,1.542,1.542,1.542,1.542,1.542,1.542,1.5584,1.6083,1.7013,1.7677,1.8177,1.8645,1.9007,1.8995,1.8982,1.9095,1.9371,1.9422,1.9547,1.9723,1.9811,1.9974,2.0024,1.9811,1.9585,1.9723,1.9798,1.9798,1.9812,1.9811,1.9798,1.9798,1.9798,1.9798,1.9798,1.9798,1.9434,1.897,1.8794,1.8794,1.902,1.9007,1.8869,1.8882,1.897,1.9145,1.9346,1.9409,1.9459,1.9585,1.9761,1.9547,1.9258,1.892,1.843,1.8109,1.7911,1.7913,1.7804,1.798,1.7895,1.7935,1.8159,1.8492,1.8263,1.7907,1.7585,1.7229,1.6866,1.6595,1.6522,1.6534,1.6534,1.6534,1.6534,1.6534,1.6423,1.6163,1.5287,1.4765,1.446,1.3659,1.3402,1.3613,1.376,1.3984,1.4219,1.4291,1.4321,1.4272,1.4707,1.4717,1.4648,1.5019,1.5186,1.5098,1.5195,1.54,1.5391,1.542,1.542,1.542,1.542,1.542,1.542,1.542,1.542,1.542,1.542,1.542,1.542,1.542,1.542,1.542,1.542,1.542,1.542,1.542,1.542,1.542,1.542,1.5633,1.6255,1.7024,1.7852,1.8501,1.9307,1.9798,1.9798,1.9798,1.9798,1.9786,1.9773,1.9811,2.0049,1.9999,2.03,2.0514,2.0363,1.9999,1.9974,1.9999,1.9924,1.9874,1.9911,1.9899,1.9798,1.9798,1.9798,1.9798,1.9798,1.9798,1.9497,1.9296,1.9334,1.9447,1.9472,1.9296,1.9309,1.9397,1.9434,1.961,1.9648,1.9685,1.9723,1.9748,1.961,1.9447,1.9371,1.892,1.8493,1.8352,1.8316,1.8091,1.7977,1.7887,1.781,1.7699,1.7961,1.7732,1.7558,1.7188,1.6866,1.668,1.6552,1.6522,1.6534,1.6534,1.6534,1.6479,1.6534,1.6182,1.572,1.5511,1.5072,1.4422,1.4219,1.4145,1.4092,1.4434,1.46,1.4756,1.5059,1.5,1.4922,1.5059,1.5215,1.5146,1.5312,1.5371,1.5322,1.5371,1.5459,1.5469,1.5439,1.542,1.5498,1.5508,1.542,1.542,1.542,1.542,1.542,1.542,1.542,1.542,1.542,1.542,1.542,1.542,1.542,1.5449,1.5459,1.5478,1.5498,1.5498,1.5585,1.569,1.6856,1.7578,1.795,1.9097,1.9643,1.9798,1.9798,1.9798,1.9811,1.9886,1.9957,2.027,2.0526,2.0865,2.1029,2.0953,2.0639,2.0564,2.0564,2.0401,2.0188,2.0313,2.0225,2.0125,2.0062,1.9999,1.9936,2.0037,2.0012,1.9886,1.9685,1.966,1.971,1.9723,1.9736,1.9773,1.9798,1.9798,1.9798,1.9798,1.9798,1.9798,1.9798,1.9673,1.9623,1.9547,1.9359,1.8957,1.8869,1.8731,1.8475,1.8278,1.8134,1.8053,1.7881,1.7666,1.7669,1.7414,1.6824,1.6696,1.6779,1.666,1.6522,1.6534,1.6534,1.6135,1.6008,1.638,1.6139,1.5623,1.5487,1.5012,1.4471,1.4287,1.4357,1.4527,1.4687,1.4902,1.5127,1.5361,1.5303,1.5205,1.5342,1.541,1.5439,1.5449,1.5439,1.541,1.5439,1.5488,1.5782,1.5684,1.5811,1.583,1.5654,1.542,1.5449,1.543,1.542,1.5459,1.543,1.542,1.542,1.542,1.542,1.542,1.5439,1.5537,1.5752,1.5771,1.5781,1.5781,1.5781,1.5644,1.5673,1.6482,1.7084,1.7643,1.8695,1.9613,1.9315,1.9785,1.9902,1.9845,2.0072,2.0147,2.0219,2.06,2.1242,2.1455,2.1543,2.138,2.1142,2.1129,2.0966,2.079,2.0978,2.0941,2.0815,2.0589,2.0627,2.0552,2.0351,2.0326,2.0175,2.0037,1.9987,1.9899,1.9695,1.9683,1.9786,1.9798,1.9798,1.9798,1.9798,1.9798,1.9798,1.9798,1.9773,1.9748,1.971,1.9685,1.9422,1.9434,1.9233,1.8869,1.8643,1.8593,1.8367,1.8118,1.7938,1.7772,1.7479,1.7163,1.7081,1.7024,1.6974,1.6886,1.6547,1.6547,1.5691,1.5533,1.6128,1.6037,1.5464,1.5315,1.4964,1.4512,1.4364,1.4541,1.4844,1.4961,1.5146,1.5352,1.541,1.5391,1.54,1.5518,1.5566,1.5586,1.5684,1.5722,1.577,1.5751,1.6037,1.6473,1.6086,1.6143,1.6289,1.6172,1.584,1.5732,1.5703,1.5635,1.5596,1.5625,1.5674,1.585,1.5693,1.5625,1.5635,1.5742,1.5879,1.6035,1.6162,1.624,1.623,1.623,1.6035,1.6009,1.6581,1.7227,1.7584,1.8563,1.9183,1.9122,1.9471,1.9653,1.9744,1.9922,2.0072,2.0124,2.0459,2.1277,2.1626,2.1931,2.2081,2.165,2.1707,2.1631,2.1543,2.1543,2.1518,2.143,2.1343,2.1443,2.1387,2.0914,2.0719,2.074,2.0552,2.0213,2.0035,1.9679,1.9604,1.9747,1.9798,1.9798,1.9823,1.9836,1.9798,1.9798,1.9798,1.9798,1.9798,1.9798,1.9798,1.9798,1.9798,1.9698,1.9296,1.9158,1.912,1.8832,1.8493,1.839,1.8367,1.7958,1.7576,1.7589,1.7564,1.7451,1.7275,1.6886,1.6597,1.5153,1.5183,1.5774,1.5701,1.5192,1.5112,1.5004,1.4725,1.4743,1.4961,1.5273,1.5342,1.5342,1.54,1.542,1.543,1.5459,1.584,1.5957,1.6143,1.6387,1.6321,1.6311,1.6403,1.6664,1.6928,1.6576,1.6543,1.6675,1.6728,1.6602,1.6602,1.623,1.6074,1.6025,1.6025,1.6182,1.6299,1.6172,1.6025,1.6123,1.6269,1.6416,1.626,1.6475,1.6626,1.6626,1.668,1.6592,1.6484,1.6971,1.742,1.7707,1.8518,1.8917,1.889,1.9055,1.9153,1.9219,1.968,2.0006,2.0084,2.0313,2.0904,2.1485,2.1272,2.1451,2.1851,2.1768,2.17,2.1691,2.18,2.1605,2.1473,2.125,2.1238,2.1247,2.1153,2.0989,2.1206,2.1011,2.0486,2.0378,2.0081,1.9728,1.9834,1.9823,1.9823,1.9911,1.9924,1.9836,1.9798,1.9798,1.9798,1.9798,1.9798,1.9798,1.9798,1.9798,1.9798,1.9685,1.9623,1.9497,1.9409,1.912,1.9045,1.8932,1.8618,1.8367,1.8216,1.8103,1.7978,1.7677,1.7262,1.6961,1.5315,1.5305,1.5573,1.5419,1.5112,1.5373,1.5222,1.487,1.5059,1.5244,1.542,1.542,1.542,1.542,1.5439,1.5576,1.5801,1.5957,1.623,1.6445,1.6578,1.6728,1.6738,1.6836,1.7012,1.7367,1.7101,1.71,1.75,1.7256,1.7353,1.7246,1.6816,1.6562,1.6475,1.6455,1.6592,1.665,1.6602,1.6484,1.6514,1.6611,1.6704,1.6767,1.6963,1.7298,1.7402,1.7223,1.6992,1.6899,1.7083,1.7339,1.7637,1.8333,1.8512,1.852,1.8797,1.8807,1.8617,1.9317,1.998,2.0187,2.0094,2.0204,2.0985,2.082,2.0887,2.1125,2.1337,2.1258,2.1073,2.112,2.1043,2.0953,2.0969,2.0971,2.0997,2.089,2.0783,2.083,2.068,2.0318,2.0402,2.0496,2.0172,1.9922,1.9911,1.9911,1.9982,2.002,1.9957,2.0037,2.0049,1.9949,1.9936,1.9886,1.9823,1.9836,1.9849,1.9798,1.9798,1.9786,1.9685,1.9685,1.9673,1.9497,1.9359,1.9296,1.9108,1.8819,1.8631,1.8493,1.8116,1.7664,1.7451,1.542,1.542,1.542,1.5305,1.5236,1.5501,1.5355,1.5076,1.5273,1.542,1.542,1.542,1.5498,1.5566,1.5625,1.5869,1.6221,1.6455,1.667,1.6894,1.708,1.7174,1.7213,1.7282,1.7448,1.7794,1.7553,1.751,1.7881,1.7686,1.7725,1.7686,1.7451,1.7148,1.6894,1.6733,1.6772,1.7041,1.6973,1.6934,1.6934,1.71,1.7035,1.7222,1.7451,1.7654,1.7826,1.7654,1.7451,1.7285,1.7217,1.7305,1.7639,1.7975,1.8238,1.8342,1.8405,1.8607,1.8439,1.8639,1.9522,1.9846,1.9333,1.9497,1.9944,2.0204,2.0267,2.0662,2.0685,2.059,2.0526,2.0715,2.0756,2.0774,2.0734,2.0762,2.0666,2.0625,2.0421,2.0279,2.0159,2.0099,1.996,2.0053,2.0076,1.9713,1.9511,1.9701,2.0116,2.0177,2.0118,2.0254,2.0413,2.0263,2.0112,2.0188,2.0238,2.0125,2.0075,1.9836,1.9798,1.9811,1.9811,1.9761,1.9761,1.9786,1.971,1.956,1.9447,1.9321,1.9095,1.8832,1.8581,1.8179,1.8041,1.542,1.542,1.542,1.5391,1.5351,1.5439,1.5371,1.5332,1.5391,1.542,1.543,1.5449,1.5674,1.5998,1.5986,1.6318,1.6709,1.7061,1.7285,1.7393,1.7607,1.7852,1.7871,1.7842,1.7764,1.7939,1.7852,1.7822,1.8008,1.792,1.7969,1.7988,1.7812,1.7656,1.7353,1.6889,1.7113,1.7764,1.751,1.7271,1.7432,1.7656,1.7637,1.7598,1.7734,1.7958,1.7958,1.7958,1.7793,1.7754,1.7744,1.7803,1.7929,1.7958,1.8075,1.8056,1.8115,1.8125,1.8095,1.8066,1.8607,1.9166,1.8654,1.8654,1.9177,1.9375,1.9562,1.9879,2.0204,2.0333,2.0462,2.0462,2.0333,2.0204,2.0139,2.0063,1.9955,1.9879,1.9641,1.9641,1.9709,1.9745,1.9577,1.9481,1.9661,1.9526,1.9256,1.9539,2.0248,2.0306,2.0263,2.0623,2.0828,2.079,2.0677,2.0718,2.0693,2.0514,2.0338,2.0137,1.9924,1.9861,1.9849,1.9811,1.9798,1.9798,1.9798,1.9773,1.966,1.9522,1.9309,1.907,1.8869,1.8769,1.8681,1.542,1.542,1.542,1.542,1.542,1.542,1.542,1.542,1.542,1.542,1.5557,1.593,1.6128,1.6245,1.6426,1.6748,1.7139,1.7246,1.7451,1.7803,1.7959,1.7978,1.8008,1.8008,1.8008,1.8008,1.8008,1.8008,1.8008,1.793,1.794,1.8008,1.7754,1.7939,1.7591,1.7197,1.7088,1.7658,1.7426,1.7088,1.7678,1.7852,1.7862,1.7706,1.7872,1.7949,1.8047,1.8066,1.8066,1.8076,1.8086,1.8096,1.8076,1.8066,1.8076,1.8125,1.8213,1.8428,1.8428,1.8408,1.834,1.8418,1.8269,1.8144,1.8462,1.8462,1.8654,1.8854,1.911,1.911,1.8844,1.8844,1.8787,1.871,1.8721,1.8721,1.8643,1.871,1.8603,1.8783,1.8892,1.9598,1.9734,1.9264,1.9269,1.9342,1.908,2.0093,2.0995,2.0589,2.0346,2.0934,2.128,2.1292,2.1267,2.123,2.1272,2.1154,2.0853,2.0514,2.03,2.0112,1.9899,1.9861,1.9823,1.9798,1.9899,1.9949,1.9836,1.9685,1.9535,1.9447,1.9359,1.9371,1.9434,1.542,1.542,1.542,1.542,1.542,1.542,1.542,1.543,1.541,1.5478,1.5742,1.6406,1.6661,1.6664,1.6836,1.7187,1.7568,1.7617,1.7666,1.7998,1.8008,1.8008,1.8008,1.8008,1.8008,1.8008,1.794,1.7872,1.7432,1.751,1.7226,1.6968,1.7139,1.6894,1.6821,1.6669,1.6876,1.7139,1.6669,1.6531,1.6973,1.7217,1.7148,1.7335,1.752,1.7636,1.8036,1.8232,1.8232,1.8262,1.833,1.834,1.8311,1.8359,1.8418,1.8564,1.8662,1.8857,1.8867,1.8857,1.8801,1.8644,1.8232,1.8027,1.8008,1.8076,1.8076,1.8134,1.8027,1.8008,1.8076,1.8008,1.8008,1.8008,1.8076,1.8076,1.8144,1.8212,1.8212,1.8337,1.8462,1.9177,1.9628,1.9267,1.8847,1.8877,1.8923,2.0195,2.1344,2.0878,2.0687,2.144,2.187,2.1958,2.1907,2.1782,2.1769,2.1769,2.1405,2.0966,2.074,2.0552,2.0225,1.9962,2.01,2.0188,2.015,2.0137,2.0175,2.0075,1.9874,1.9823,1.9823,1.9798,1.9798,1.542,1.542,1.542,1.542,1.542,1.542,1.543,1.541,1.5393,1.5645,1.6184,1.6635,1.6978,1.7266,1.7373,1.7598,1.7871,1.7939,1.7969,1.7998,1.8008,1.8008,1.8008,1.8008,1.8008,1.8018,1.7998,1.781,1.6908,1.7021,1.6581,1.5783,1.6037,1.5841,1.5867,1.5945,1.6316,1.6184,1.5728,1.5728,1.6298,1.5939,1.6132,1.6447,1.6851,1.7474,1.8005,1.8511,1.8592,1.8769,1.8975,1.8906,1.8916,1.9053,1.918,1.9258,1.9238,1.9307,1.9307,1.9297,1.9209,1.8994,1.8535,1.8213,1.8135,1.8213,1.8164,1.8154,1.8164,1.8076,1.8018,1.8018,1.8008,1.8008,1.8008,1.8008,1.8008,1.8076,1.8076,1.8076,1.8076,1.8395,1.8529,1.8327,1.8519,1.8572,1.8685,1.9209,2.0269,2.0871,2.0976,2.208,2.2498,2.2686,2.2585,2.2347,2.2334,2.2334,2.187,2.1455,2.123,2.1029,2.0765,2.0602,2.0577,2.0602,2.0652,2.0677,2.069,2.0552,2.0426,2.0024,1.9974,1.9836,1.9798,1.542,1.542,1.542,1.542,1.542,1.542,1.5576,1.5859,1.5607,1.5798,1.6562,1.7338,1.754,1.7402,1.7695,1.7881,1.7959,1.8008,1.7998,1.8008,1.8008,1.8008,1.8018,1.8027,1.8018,1.8125,1.8183,1.8228,1.7863,1.7558,1.662,1.598,1.563,1.5288,1.4953,1.4864,1.5243,1.5207,1.4609,1.4927,1.5363,1.5237,1.5488,1.5846,1.6625,1.7297,1.7944,1.8793,1.9029,1.916,1.9228,1.918,1.917,1.8975,1.8896,1.9297,1.9512,1.9736,1.9727,1.9736,1.9648,1.9434,1.9043,1.9004,1.8857,1.8672,1.8496,1.8457,1.8447,1.8408,1.8301,1.8242,1.8232,1.8242,1.8203,1.8125,1.8105,1.8037,1.8037,1.8008,1.8008,1.8008,1.8008,1.8076,1.8269,1.8269,1.8462,1.8854,1.9365,2.0009,2.1066,2.2177,2.2658,2.2698,2.294,2.2824,2.2862,2.2824,2.2372,2.2008,2.1832,2.1631,2.1368,2.123,2.1204,2.1204,2.1242,2.1255,2.1255,2.1242,2.1104,2.0564,2.0125,2.0112,2.0049,1.542,1.542,1.542,1.5498,1.5625,1.5488,1.582,1.6436,1.6234,1.6418,1.7021,1.7708,1.7895,1.7686,1.7881,1.7998,1.7998,1.8008,1.8008,1.8008,1.8027,1.8008,1.8027,1.8164,1.8154,1.8281,1.8436,1.8495,1.8049,1.695,1.5983,1.5526,1.5335,1.4743,1.4194,1.4016,1.4096,1.4088,1.3903,1.4028,1.4402,1.4634,1.471,1.5327,1.6286,1.7037,1.7872,1.8919,1.9457,1.959,1.9639,1.9687,1.9668,1.9443,1.9482,1.9883,2.0019,2.0166,2.0176,2.0166,2.0019,1.9824,1.9629,1.9648,1.9492,1.9297,1.9053,1.8896,1.8867,1.8818,1.8662,1.8525,1.8535,1.8545,1.8418,1.8281,1.8184,1.8096,1.8047,1.8018,1.8008,1.8008,1.8008,1.8008,1.8008,1.8076,1.8269,1.8664,1.9044,1.9628,2.0719,2.1968,2.2348,2.2604,2.2823,2.3125,2.3088,2.3025,2.2874,2.2573,2.2422,2.2309,2.2133,2.1958,2.182,2.182,2.1807,2.182,2.182,2.1794,2.1681,2.1204,2.0853,2.079,2.0702,1.542,1.542,1.542,1.5654,1.5967,1.5654,1.6191,1.7275,1.7111,1.7209,1.7527,1.7822,1.7969,1.793,1.7998,1.8008,1.8008,1.8008,1.8008,1.8027,1.8144,1.8154,1.8271,1.8447,1.8446,1.8475,1.8433,1.8286,1.6985,1.6057,1.5435,1.4743,1.424,1.3831,1.3695,1.3622,1.3666,1.356,1.3445,1.3474,1.3772,1.3705,1.3601,1.4528,1.5559,1.6673,1.7896,1.8954,1.981,1.9955,2.0205,2.0254,2.0098,2.0185,2.0371,2.04,2.0381,2.0449,2.0459,2.0449,2.0488,2.0342,2.0205,2.0176,2.001,1.9697,1.9404,1.9336,1.9307,1.918,1.9023,1.8945,1.8936,1.8906,1.8809,1.8721,1.8652,1.8477,1.8252,1.8184,1.8057,1.8047,1.8008,1.8008,1.8008,1.8008,1.8144,1.8405,1.8664,1.911,2.0333,2.1616,2.2063,2.2384,2.2884,2.3125,2.3125,2.31,2.3062,2.2962,2.2686,2.2749,2.2924,2.2648,2.2372,2.2372,2.2372,2.2372,2.2359,2.2334,2.2159,2.1807,2.1606,2.1556,2.1292,1.542,1.542,1.542,1.5664,1.6025,1.5957,1.6465,1.7353,1.737,1.7537,1.7822,1.7949,1.8008,1.8008,1.8008,1.8008,1.8008,1.8008,1.8008,1.8086,1.8232,1.8158,1.8424,1.8538,1.8668,1.8695,1.8453,1.7698,1.6545,1.566,1.5049,1.4413,1.3948,1.3854,1.3788,1.3712,1.3539,1.3534,1.3454,1.3353,1.3502,1.3502,1.3512,1.4142,1.4968,1.58,1.6965,1.8294,1.8873,1.9349,2.0178,2.0236,1.9971,2.0352,2.0361,2.0215,2.042,2.0537,2.0576,2.0576,2.0576,2.0576,2.0459,2.0488,2.0342,1.998,1.9785,1.9775,1.9707,1.9561,1.9453,1.9404,1.9355,1.9297,1.9209,1.916,1.9111,1.8818,1.8506,1.8359,1.8193,1.8125,1.8086,1.8037,1.8008,1.8008,1.8008,1.8144,1.8202,1.8596,1.9759,2.0921,2.169,2.2199,2.2689,2.3125,2.3125,2.3125,2.31,2.2952,2.2852,2.2915,2.3037,2.299,2.2937,2.2705,2.2668,2.2852,2.284,2.2668,2.2652,2.2339,2.2355,2.2355,2.2001,1.4874,1.4805,1.451,1.466,1.5168,1.5458,1.6145,1.694,1.7319,1.7617,1.7978,1.8008,1.8008,1.8008,1.8008,1.8008,1.8008,1.8008,1.8164,1.828,1.8005,1.7937,1.819,1.8267,1.7868,1.7778,1.7252,1.6515,1.6121,1.5764,1.5267,1.465,1.4405,1.4082,1.4062,1.3915,1.3828,1.3841,1.3821,1.3721,1.3561,1.3601,1.3647,1.4138,1.475,1.5479,1.632,1.773,1.8709,1.9274,2.0079,2.042,2.0312,2.0449,2.043,2.0371,2.0439,2.0576,2.0576,2.0576,2.0576,2.0576,2.0576,2.0547,2.0537,2.0234,2.0215,2.0205,2.0205,2.0078,2.0068,2.0019,2.001,1.9971,1.9697,1.9512,1.9336,1.9082,1.8936,1.8887,1.873,1.8613,1.8535,1.8369,1.8291,1.8018,1.8018,1.8076,1.8066,1.8174,1.9312,2.026,2.105,2.1761,2.2249,2.275,2.3125,2.3125,2.3065,2.3088,2.2965,2.3075,2.3125,2.304,2.298,2.2774,2.2786,2.2957,2.2702,2.2311,2.2591,2.2905,2.2957,2.2836,2.2452,1.4034,1.3974,1.3304,1.3421,1.4122,1.4591,1.5521,1.6592,1.7072,1.7599,1.7978,1.8008,1.8008,1.8008,1.7862,1.793,1.7862,1.7647,1.7946,1.8078,1.7585,1.767,1.7569,1.7312,1.7037,1.6468,1.5819,1.6093,1.6265,1.5711,1.522,1.5213,1.481,1.4088,1.4088,1.4082,1.4041,1.4028,1.4021,1.4055,1.4068,1.4088,1.4041,1.4461,1.5054,1.5621,1.6347,1.7488,1.8798,1.9441,2.0001,2.0372,2.0508,2.0527,2.0537,2.0508,2.0508,2.0576,2.0576,2.0576,2.0576,2.0576,2.0576,2.0566,2.0566,2.0634,2.0615,2.0605,2.0605,2.0605,2.0508,2.0498,2.0488,2.0459,2.0127,1.9893,1.9658,1.9424,1.9375,1.9355,1.9219,1.9082,1.8916,1.875,1.8555,1.8252,1.8144,1.8164,1.8252,1.8527,1.9162,1.9855,2.0474,2.1147,2.1659,2.2259,2.2788,2.2884,2.2823,2.3005,2.3125,2.3125,2.3125,2.3125,2.3005,2.2726,2.2653,2.2702,2.2445,2.2147,2.2261,2.2531,2.2518,2.2469,2.2481,1.3243,1.3191,1.307,1.3421,1.4016,1.4195,1.5167,1.6477,1.6711,1.722,1.7765,1.8008,1.8008,1.793,1.7129,1.7139,1.7657,1.7323,1.7529,1.786,1.7342,1.7454,1.7369,1.6667,1.6557,1.5797,1.4983,1.4696,1.5282,1.4817,1.4412,1.4405,1.4412,1.4088,1.4088,1.4088,1.4088,1.4095,1.4128,1.4142,1.4115,1.4108,1.4088,1.4489,1.5137,1.5538,1.6265,1.79,1.8718,1.9362,1.9923,2.0411,2.0489,2.0489,2.0566,2.0401,2.0401,2.0576,2.0576,2.0576,2.0576,2.0576,2.0576,2.0576,2.0566,2.0566,2.0557,2.0557,2.0557,2.0557,2.0547,2.0547,2.0537,2.0537,2.0352,2.0332,2.0225,1.9971,1.9795,1.9687,1.9541,1.9404,1.9248,1.915,1.9121,1.8896,1.8838,1.8848,1.8799,1.8968,1.9036,1.9475,2.0045,2.0385,2.091,2.1788,2.2241,2.2431,2.2653,2.2924,2.3046,2.309,2.3078,2.2972,2.2813,2.2604,2.258,2.2261,2.2354,2.2151,2.2023,2.2037,2.2083,2.2249,2.2468]}]]